<?xml version="1.0" encoding="UTF-8" standalone="no" ?>
<gpx xmlns="http://www.topografix.com/GPX/1/1" xmlns:xsi="http://www.w3.org/2001/XMLSchema-instance" xsi:schemaLocation="http://www.topografix.com/GPX/1/1 http://www.topografix.com/GPX/1/1/gpx.xsd" version="1.1" creator="VisuGPX - https://www.visugpx.com">
  <metadata>
    <name>Les gorges d’Ehüjarre (Pyrenea)</name>
    <desc><![CDATA[Au départ de Sainte-Engrâce. En boucle par l'Utzigagna]]></desc>
  </metadata>
  <trk>
    <name><![CDATA[Les gorges d’Ehüjarre]]></name>
    <desc><![CDATA[Sainte-Engrâce]]></desc>
    <extensions>
      <line xmlns="http://www.topografix.com/GPX/gpx_style/0/2">
        <color>0000FF</color>
        <width>4</width>
      </line>
    </extensions>
    <trkseg>
      <trkpt lat="42.99046" lon="-0.81717">
        <ele>620.894</ele>
        <time>2023-04-18T07:30:01Z</time>
      </trkpt>
      <trkpt lat="42.9904" lon="-0.81724">
        <ele>620.857</ele>
        <time>2023-04-18T07:30:02Z</time>
      </trkpt>
      <trkpt lat="42.99044" lon="-0.81727">
        <ele>620.822</ele>
        <time>2023-04-18T07:30:34Z</time>
      </trkpt>
      <trkpt lat="42.99039" lon="-0.81724">
        <ele>620.709</ele>
        <time>2023-04-18T07:30:40Z</time>
      </trkpt>
      <trkpt lat="42.99035" lon="-0.8172">
        <ele>620.69</ele>
        <time>2023-04-18T07:30:45Z</time>
      </trkpt>
      <trkpt lat="42.99031" lon="-0.81715">
        <ele>620.022</ele>
        <time>2023-04-18T07:30:50Z</time>
      </trkpt>
      <trkpt lat="42.99028" lon="-0.81708">
        <ele>619.871</ele>
        <time>2023-04-18T07:30:54Z</time>
      </trkpt>
      <trkpt lat="42.99025" lon="-0.81704">
        <ele>619.339</ele>
        <time>2023-04-18T07:31:00Z</time>
      </trkpt>
      <trkpt lat="42.9902" lon="-0.817">
        <ele>618.74</ele>
        <time>2023-04-18T07:31:05Z</time>
      </trkpt>
      <trkpt lat="42.99016" lon="-0.81696">
        <ele>618.196</ele>
        <time>2023-04-18T07:31:10Z</time>
      </trkpt>
      <trkpt lat="42.99012" lon="-0.8169">
        <ele>617.542</ele>
        <time>2023-04-18T07:31:15Z</time>
      </trkpt>
      <trkpt lat="42.99008" lon="-0.81688">
        <ele>616.013</ele>
        <time>2023-04-18T07:31:20Z</time>
      </trkpt>
      <trkpt lat="42.99003" lon="-0.81688">
        <ele>614.274</ele>
        <time>2023-04-18T07:31:25Z</time>
      </trkpt>
      <trkpt lat="42.98998" lon="-0.81686">
        <ele>613.393</ele>
        <time>2023-04-18T07:31:29Z</time>
      </trkpt>
      <trkpt lat="42.98992" lon="-0.81688">
        <ele>612.465</ele>
        <time>2023-04-18T07:31:34Z</time>
      </trkpt>
      <trkpt lat="42.98988" lon="-0.8169">
        <ele>611.721</ele>
        <time>2023-04-18T07:31:39Z</time>
      </trkpt>
      <trkpt lat="42.98983" lon="-0.81691">
        <ele>611.409</ele>
        <time>2023-04-18T07:31:43Z</time>
      </trkpt>
      <trkpt lat="42.98979" lon="-0.81687">
        <ele>611.43</ele>
        <time>2023-04-18T07:31:46Z</time>
      </trkpt>
      <trkpt lat="42.98975" lon="-0.81681">
        <ele>611.462</ele>
        <time>2023-04-18T07:31:52Z</time>
      </trkpt>
      <trkpt lat="42.98971" lon="-0.81677">
        <ele>611.481</ele>
        <time>2023-04-18T07:31:59Z</time>
      </trkpt>
      <trkpt lat="42.98968" lon="-0.81673">
        <ele>612.049</ele>
        <time>2023-04-18T07:32:05Z</time>
      </trkpt>
      <trkpt lat="42.98963" lon="-0.81673">
        <ele>613.31</ele>
        <time>2023-04-18T07:32:12Z</time>
      </trkpt>
      <trkpt lat="42.98958" lon="-0.81671">
        <ele>614.656</ele>
        <time>2023-04-18T07:32:19Z</time>
      </trkpt>
      <trkpt lat="42.98954" lon="-0.81667">
        <ele>616.152</ele>
        <time>2023-04-18T07:32:23Z</time>
      </trkpt>
      <trkpt lat="42.98949" lon="-0.81667">
        <ele>617.773</ele>
        <time>2023-04-18T07:32:31Z</time>
      </trkpt>
      <trkpt lat="42.98943" lon="-0.81667">
        <ele>618.714</ele>
        <time>2023-04-18T07:32:36Z</time>
      </trkpt>
      <trkpt lat="42.98939" lon="-0.81666">
        <ele>619.785</ele>
        <time>2023-04-18T07:32:40Z</time>
      </trkpt>
      <trkpt lat="42.98934" lon="-0.81665">
        <ele>620.889</ele>
        <time>2023-04-18T07:32:47Z</time>
      </trkpt>
      <trkpt lat="42.98929" lon="-0.81664">
        <ele>622.017</ele>
        <time>2023-04-18T07:32:54Z</time>
      </trkpt>
      <trkpt lat="42.98924" lon="-0.81663">
        <ele>623.309</ele>
        <time>2023-04-18T07:32:59Z</time>
      </trkpt>
      <trkpt lat="42.98919" lon="-0.81661">
        <ele>624.429</ele>
        <time>2023-04-18T07:33:05Z</time>
      </trkpt>
      <trkpt lat="42.98913" lon="-0.8166">
        <ele>625.251</ele>
        <time>2023-04-18T07:33:12Z</time>
      </trkpt>
      <trkpt lat="42.98908" lon="-0.81661">
        <ele>625.93</ele>
        <time>2023-04-18T07:33:18Z</time>
      </trkpt>
      <trkpt lat="42.98904" lon="-0.81657">
        <ele>626.758</ele>
        <time>2023-04-18T07:33:23Z</time>
      </trkpt>
      <trkpt lat="42.98899" lon="-0.81653">
        <ele>626.729</ele>
        <time>2023-04-18T07:33:27Z</time>
      </trkpt>
      <trkpt lat="42.98896" lon="-0.81649">
        <ele>626.945</ele>
        <time>2023-04-18T07:33:35Z</time>
      </trkpt>
      <trkpt lat="42.98891" lon="-0.81648">
        <ele>627.121</ele>
        <time>2023-04-18T07:33:42Z</time>
      </trkpt>
      <trkpt lat="42.98887" lon="-0.81645">
        <ele>627.132</ele>
        <time>2023-04-18T07:33:49Z</time>
      </trkpt>
      <trkpt lat="42.98882" lon="-0.81647">
        <ele>627.613</ele>
        <time>2023-04-18T07:33:55Z</time>
      </trkpt>
      <trkpt lat="42.98877" lon="-0.81646">
        <ele>628.759</ele>
        <time>2023-04-18T07:33:59Z</time>
      </trkpt>
      <trkpt lat="42.98875" lon="-0.8164">
        <ele>630.003</ele>
        <time>2023-04-18T07:34:05Z</time>
      </trkpt>
      <trkpt lat="42.98869" lon="-0.8164">
        <ele>630.923</ele>
        <time>2023-04-18T07:34:10Z</time>
      </trkpt>
      <trkpt lat="42.98864" lon="-0.81641">
        <ele>631.009</ele>
        <time>2023-04-18T07:34:16Z</time>
      </trkpt>
      <trkpt lat="42.98859" lon="-0.81641">
        <ele>631.036</ele>
        <time>2023-04-18T07:34:23Z</time>
      </trkpt>
      <trkpt lat="42.98854" lon="-0.81644">
        <ele>631.368</ele>
        <time>2023-04-18T07:34:32Z</time>
      </trkpt>
      <trkpt lat="42.9885" lon="-0.81647">
        <ele>631.477</ele>
        <time>2023-04-18T07:34:37Z</time>
      </trkpt>
      <trkpt lat="42.98845" lon="-0.81645">
        <ele>631.485</ele>
        <time>2023-04-18T07:34:43Z</time>
      </trkpt>
      <trkpt lat="42.98841" lon="-0.81647">
        <ele>631.456</ele>
        <time>2023-04-18T07:34:49Z</time>
      </trkpt>
      <trkpt lat="42.98841" lon="-0.81654">
        <ele>631.972</ele>
        <time>2023-04-18T07:35:04Z</time>
      </trkpt>
      <trkpt lat="42.98838" lon="-0.81661">
        <ele>632.688</ele>
        <time>2023-04-18T07:35:09Z</time>
      </trkpt>
      <trkpt lat="42.98836" lon="-0.81667">
        <ele>633.729</ele>
        <time>2023-04-18T07:35:13Z</time>
      </trkpt>
      <trkpt lat="42.98834" lon="-0.81675">
        <ele>634.86</ele>
        <time>2023-04-18T07:35:19Z</time>
      </trkpt>
      <trkpt lat="42.98828" lon="-0.81678">
        <ele>635.627</ele>
        <time>2023-04-18T07:35:25Z</time>
      </trkpt>
      <trkpt lat="42.98823" lon="-0.81678">
        <ele>636.768</ele>
        <time>2023-04-18T07:35:29Z</time>
      </trkpt>
      <trkpt lat="42.98818" lon="-0.8168">
        <ele>637.714</ele>
        <time>2023-04-18T07:35:32Z</time>
      </trkpt>
      <trkpt lat="42.98813" lon="-0.81679">
        <ele>638.109</ele>
        <time>2023-04-18T07:35:36Z</time>
      </trkpt>
      <trkpt lat="42.98808" lon="-0.81678">
        <ele>638.293</ele>
        <time>2023-04-18T07:35:42Z</time>
      </trkpt>
      <trkpt lat="42.98804" lon="-0.81681">
        <ele>638.695</ele>
        <time>2023-04-18T07:35:51Z</time>
      </trkpt>
      <trkpt lat="42.98799" lon="-0.81681">
        <ele>639.574</ele>
        <time>2023-04-18T07:35:54Z</time>
      </trkpt>
      <trkpt lat="42.98795" lon="-0.8168">
        <ele>640.672</ele>
        <time>2023-04-18T07:35:57Z</time>
      </trkpt>
      <trkpt lat="42.98791" lon="-0.81684">
        <ele>641.093</ele>
        <time>2023-04-18T07:36:06Z</time>
      </trkpt>
      <trkpt lat="42.98785" lon="-0.81685">
        <ele>641.059</ele>
        <time>2023-04-18T07:36:16Z</time>
      </trkpt>
      <trkpt lat="42.98783" lon="-0.8168">
        <ele>641.035</ele>
        <time>2023-04-18T07:36:21Z</time>
      </trkpt>
      <trkpt lat="42.98776" lon="-0.81682">
        <ele>641.326</ele>
        <time>2023-04-18T07:36:30Z</time>
      </trkpt>
      <trkpt lat="42.98771" lon="-0.81679">
        <ele>640.877</ele>
        <time>2023-04-18T07:36:35Z</time>
      </trkpt>
      <trkpt lat="42.98767" lon="-0.81675">
        <ele>642.053</ele>
        <time>2023-04-18T07:36:46Z</time>
      </trkpt>
      <trkpt lat="42.98764" lon="-0.81669">
        <ele>642.304</ele>
        <time>2023-04-18T07:36:50Z</time>
      </trkpt>
      <trkpt lat="42.9876" lon="-0.81664">
        <ele>643.014</ele>
        <time>2023-04-18T07:36:55Z</time>
      </trkpt>
      <trkpt lat="42.98755" lon="-0.81666">
        <ele>643.109</ele>
        <time>2023-04-18T07:36:58Z</time>
      </trkpt>
      <trkpt lat="42.98756" lon="-0.81658">
        <ele>643.386</ele>
        <time>2023-04-18T07:37:04Z</time>
      </trkpt>
      <trkpt lat="42.98751" lon="-0.81661">
        <ele>643.528</ele>
        <time>2023-04-18T07:37:15Z</time>
      </trkpt>
      <trkpt lat="42.98745" lon="-0.81659">
        <ele>644.357</ele>
        <time>2023-04-18T07:37:28Z</time>
      </trkpt>
      <trkpt lat="42.98741" lon="-0.81655">
        <ele>645.655</ele>
        <time>2023-04-18T07:37:35Z</time>
      </trkpt>
      <trkpt lat="42.98739" lon="-0.81649">
        <ele>648.996</ele>
        <time>2023-04-18T07:37:40Z</time>
      </trkpt>
      <trkpt lat="42.98734" lon="-0.8165">
        <ele>649.092</ele>
        <time>2023-04-18T07:37:43Z</time>
      </trkpt>
      <trkpt lat="42.98737" lon="-0.81646">
        <ele>649.428</ele>
        <time>2023-04-18T07:37:54Z</time>
      </trkpt>
      <trkpt lat="42.98736" lon="-0.81638">
        <ele>649.929</ele>
        <time>2023-04-18T07:38:13Z</time>
      </trkpt>
      <trkpt lat="42.98732" lon="-0.81639">
        <ele>650.06</ele>
        <time>2023-04-18T07:38:17Z</time>
      </trkpt>
      <trkpt lat="42.98729" lon="-0.81632">
        <ele>651.293</ele>
        <time>2023-04-18T07:38:23Z</time>
      </trkpt>
      <trkpt lat="42.9873" lon="-0.81625">
        <ele>652.565</ele>
        <time>2023-04-18T07:38:30Z</time>
      </trkpt>
      <trkpt lat="42.98726" lon="-0.81621">
        <ele>652.921</ele>
        <time>2023-04-18T07:38:36Z</time>
      </trkpt>
      <trkpt lat="42.98722" lon="-0.81619">
        <ele>653.709</ele>
        <time>2023-04-18T07:38:42Z</time>
      </trkpt>
      <trkpt lat="42.98721" lon="-0.81612">
        <ele>654.71</ele>
        <time>2023-04-18T07:38:52Z</time>
      </trkpt>
      <trkpt lat="42.98716" lon="-0.81609">
        <ele>655.512</ele>
        <time>2023-04-18T07:39:01Z</time>
      </trkpt>
      <trkpt lat="42.98712" lon="-0.8161">
        <ele>656.441</ele>
        <time>2023-04-18T07:39:08Z</time>
      </trkpt>
      <trkpt lat="42.98707" lon="-0.81609">
        <ele>657.639</ele>
        <time>2023-04-18T07:39:15Z</time>
      </trkpt>
      <trkpt lat="42.98705" lon="-0.81602">
        <ele>658.85</ele>
        <time>2023-04-18T07:39:20Z</time>
      </trkpt>
      <trkpt lat="42.98699" lon="-0.81603">
        <ele>659.986</ele>
        <time>2023-04-18T07:39:29Z</time>
      </trkpt>
      <trkpt lat="42.98695" lon="-0.81601">
        <ele>660.412</ele>
        <time>2023-04-18T07:39:41Z</time>
      </trkpt>
      <trkpt lat="42.9869" lon="-0.81598">
        <ele>660.653</ele>
        <time>2023-04-18T07:39:50Z</time>
      </trkpt>
      <trkpt lat="42.98686" lon="-0.81595">
        <ele>660.984</ele>
        <time>2023-04-18T07:39:56Z</time>
      </trkpt>
      <trkpt lat="42.98681" lon="-0.81592">
        <ele>661.316</ele>
        <time>2023-04-18T07:40:07Z</time>
      </trkpt>
      <trkpt lat="42.98679" lon="-0.81587">
        <ele>661.876</ele>
        <time>2023-04-18T07:40:12Z</time>
      </trkpt>
      <trkpt lat="42.98676" lon="-0.81579">
        <ele>662.113</ele>
        <time>2023-04-18T07:40:22Z</time>
      </trkpt>
      <trkpt lat="42.98671" lon="-0.81578">
        <ele>662.309</ele>
        <time>2023-04-18T07:40:28Z</time>
      </trkpt>
      <trkpt lat="42.98674" lon="-0.81572">
        <ele>663.112</ele>
        <time>2023-04-18T07:40:35Z</time>
      </trkpt>
      <trkpt lat="42.98669" lon="-0.81572">
        <ele>663.734</ele>
        <time>2023-04-18T07:40:53Z</time>
      </trkpt>
      <trkpt lat="42.98666" lon="-0.81566">
        <ele>663.823</ele>
        <time>2023-04-18T07:40:59Z</time>
      </trkpt>
      <trkpt lat="42.98662" lon="-0.81559">
        <ele>664.911</ele>
        <time>2023-04-18T07:41:08Z</time>
      </trkpt>
      <trkpt lat="42.98658" lon="-0.81556">
        <ele>666.482</ele>
        <time>2023-04-18T07:41:18Z</time>
      </trkpt>
      <trkpt lat="42.98654" lon="-0.8155">
        <ele>667.258</ele>
        <time>2023-04-18T07:41:29Z</time>
      </trkpt>
      <trkpt lat="42.98649" lon="-0.8155">
        <ele>668.254</ele>
        <time>2023-04-18T07:41:34Z</time>
      </trkpt>
      <trkpt lat="42.98642" lon="-0.81548">
        <ele>668.665</ele>
        <time>2023-04-18T07:41:40Z</time>
      </trkpt>
      <trkpt lat="42.98638" lon="-0.81543">
        <ele>668.786</ele>
        <time>2023-04-18T07:41:50Z</time>
      </trkpt>
      <trkpt lat="42.98638" lon="-0.81535">
        <ele>668.726</ele>
        <time>2023-04-18T07:42:05Z</time>
      </trkpt>
      <trkpt lat="42.98634" lon="-0.81532">
        <ele>671.147</ele>
        <time>2023-04-18T07:42:16Z</time>
      </trkpt>
      <trkpt lat="42.98629" lon="-0.81527">
        <ele>672.811</ele>
        <time>2023-04-18T07:42:28Z</time>
      </trkpt>
      <trkpt lat="42.98625" lon="-0.81523">
        <ele>673.609</ele>
        <time>2023-04-18T07:42:34Z</time>
      </trkpt>
      <trkpt lat="42.98621" lon="-0.81524">
        <ele>674.433</ele>
        <time>2023-04-18T07:43:03Z</time>
      </trkpt>
      <trkpt lat="42.98616" lon="-0.81526">
        <ele>674.465</ele>
        <time>2023-04-18T07:43:11Z</time>
      </trkpt>
      <trkpt lat="42.9861" lon="-0.81528">
        <ele>674.474</ele>
        <time>2023-04-18T07:43:18Z</time>
      </trkpt>
      <trkpt lat="42.98606" lon="-0.81523">
        <ele>674.482</ele>
        <time>2023-04-18T07:43:29Z</time>
      </trkpt>
      <trkpt lat="42.98603" lon="-0.81519">
        <ele>674.863</ele>
        <time>2023-04-18T07:43:36Z</time>
      </trkpt>
      <trkpt lat="42.98601" lon="-0.81511">
        <ele>674.999</ele>
        <time>2023-04-18T07:43:40Z</time>
      </trkpt>
      <trkpt lat="42.98596" lon="-0.81511">
        <ele>676.335</ele>
        <time>2023-04-18T07:43:47Z</time>
      </trkpt>
      <trkpt lat="42.9859" lon="-0.8151">
        <ele>676.456</ele>
        <time>2023-04-18T07:43:54Z</time>
      </trkpt>
      <trkpt lat="42.98585" lon="-0.81508">
        <ele>676.847</ele>
        <time>2023-04-18T07:44:00Z</time>
      </trkpt>
      <trkpt lat="42.98581" lon="-0.81506">
        <ele>677.585</ele>
        <time>2023-04-18T07:44:06Z</time>
      </trkpt>
      <trkpt lat="42.98578" lon="-0.815">
        <ele>678.489</ele>
        <time>2023-04-18T07:44:11Z</time>
      </trkpt>
      <trkpt lat="42.98573" lon="-0.81497">
        <ele>679.217</ele>
        <time>2023-04-18T07:44:21Z</time>
      </trkpt>
      <trkpt lat="42.98568" lon="-0.81493">
        <ele>679.509</ele>
        <time>2023-04-18T07:44:29Z</time>
      </trkpt>
      <trkpt lat="42.98565" lon="-0.81488">
        <ele>680.259</ele>
        <time>2023-04-18T07:44:35Z</time>
      </trkpt>
      <trkpt lat="42.9856" lon="-0.81483">
        <ele>680.741</ele>
        <time>2023-04-18T07:44:42Z</time>
      </trkpt>
      <trkpt lat="42.98556" lon="-0.8148">
        <ele>680.91</ele>
        <time>2023-04-18T07:44:48Z</time>
      </trkpt>
      <trkpt lat="42.98552" lon="-0.81476">
        <ele>681.238</ele>
        <time>2023-04-18T07:45:19Z</time>
      </trkpt>
      <trkpt lat="42.98547" lon="-0.81478">
        <ele>681.499</ele>
        <time>2023-04-18T07:45:25Z</time>
      </trkpt>
      <trkpt lat="42.98542" lon="-0.81475">
        <ele>684.925</ele>
        <time>2023-04-18T07:45:34Z</time>
      </trkpt>
      <trkpt lat="42.98537" lon="-0.81473">
        <ele>685.421</ele>
        <time>2023-04-18T07:45:41Z</time>
      </trkpt>
      <trkpt lat="42.98533" lon="-0.81477">
        <ele>686.412</ele>
        <time>2023-04-18T07:45:44Z</time>
      </trkpt>
      <trkpt lat="42.98529" lon="-0.81476">
        <ele>687.223</ele>
        <time>2023-04-18T07:45:48Z</time>
      </trkpt>
      <trkpt lat="42.98524" lon="-0.81475">
        <ele>687.667</ele>
        <time>2023-04-18T07:45:52Z</time>
      </trkpt>
      <trkpt lat="42.98519" lon="-0.81471">
        <ele>687.881</ele>
        <time>2023-04-18T07:46:04Z</time>
      </trkpt>
      <trkpt lat="42.98514" lon="-0.8147">
        <ele>688.119</ele>
        <time>2023-04-18T07:46:13Z</time>
      </trkpt>
      <trkpt lat="42.98514" lon="-0.81463">
        <ele>688.909</ele>
        <time>2023-04-18T07:46:18Z</time>
      </trkpt>
      <trkpt lat="42.98511" lon="-0.81457">
        <ele>689.747</ele>
        <time>2023-04-18T07:46:26Z</time>
      </trkpt>
      <trkpt lat="42.98506" lon="-0.81457">
        <ele>689.959</ele>
        <time>2023-04-18T07:46:34Z</time>
      </trkpt>
      <trkpt lat="42.98502" lon="-0.81454">
        <ele>690.158</ele>
        <time>2023-04-18T07:46:39Z</time>
      </trkpt>
      <trkpt lat="42.98501" lon="-0.81448">
        <ele>690.746</ele>
        <time>2023-04-18T07:46:45Z</time>
      </trkpt>
      <trkpt lat="42.98496" lon="-0.81448">
        <ele>691.397</ele>
        <time>2023-04-18T07:46:51Z</time>
      </trkpt>
      <trkpt lat="42.98491" lon="-0.81446">
        <ele>691.693</ele>
        <time>2023-04-18T07:46:56Z</time>
      </trkpt>
      <trkpt lat="42.98487" lon="-0.81442">
        <ele>692.139</ele>
        <time>2023-04-18T07:47:06Z</time>
      </trkpt>
      <trkpt lat="42.98483" lon="-0.81439">
        <ele>692.85</ele>
        <time>2023-04-18T07:47:14Z</time>
      </trkpt>
      <trkpt lat="42.98478" lon="-0.81437">
        <ele>693.711</ele>
        <time>2023-04-18T07:47:18Z</time>
      </trkpt>
      <trkpt lat="42.98474" lon="-0.81434">
        <ele>694.847</ele>
        <time>2023-04-18T07:47:26Z</time>
      </trkpt>
      <trkpt lat="42.98468" lon="-0.81432">
        <ele>695.629</ele>
        <time>2023-04-18T07:47:33Z</time>
      </trkpt>
      <trkpt lat="42.98464" lon="-0.81429">
        <ele>696.221</ele>
        <time>2023-04-18T07:47:41Z</time>
      </trkpt>
      <trkpt lat="42.98459" lon="-0.81426">
        <ele>696.809</ele>
        <time>2023-04-18T07:47:50Z</time>
      </trkpt>
      <trkpt lat="42.98454" lon="-0.81426">
        <ele>697.255</ele>
        <time>2023-04-18T07:48:02Z</time>
      </trkpt>
      <trkpt lat="42.9845" lon="-0.81428">
        <ele>698.187</ele>
        <time>2023-04-18T07:48:07Z</time>
      </trkpt>
      <trkpt lat="42.98445" lon="-0.81426">
        <ele>699.566</ele>
        <time>2023-04-18T07:48:15Z</time>
      </trkpt>
      <trkpt lat="42.9844" lon="-0.81427">
        <ele>700.474</ele>
        <time>2023-04-18T07:48:24Z</time>
      </trkpt>
      <trkpt lat="42.98435" lon="-0.81426">
        <ele>701.385</ele>
        <time>2023-04-18T07:48:30Z</time>
      </trkpt>
      <trkpt lat="42.98433" lon="-0.81431">
        <ele>702.521</ele>
        <time>2023-04-18T07:48:42Z</time>
      </trkpt>
      <trkpt lat="42.98429" lon="-0.81427">
        <ele>703.597</ele>
        <time>2023-04-18T07:48:46Z</time>
      </trkpt>
      <trkpt lat="42.98423" lon="-0.81426">
        <ele>704.938</ele>
        <time>2023-04-18T07:48:50Z</time>
      </trkpt>
      <trkpt lat="42.9842" lon="-0.81431">
        <ele>706.019</ele>
        <time>2023-04-18T07:48:58Z</time>
      </trkpt>
      <trkpt lat="42.98415" lon="-0.81436">
        <ele>706.481</ele>
        <time>2023-04-18T07:49:03Z</time>
      </trkpt>
      <trkpt lat="42.98409" lon="-0.81434">
        <ele>707.861</ele>
        <time>2023-04-18T07:49:11Z</time>
      </trkpt>
      <trkpt lat="42.98406" lon="-0.81427">
        <ele>708.517</ele>
        <time>2023-04-18T07:49:13Z</time>
      </trkpt>
      <trkpt lat="42.98404" lon="-0.81433">
        <ele>709.309</ele>
        <time>2023-04-18T07:49:29Z</time>
      </trkpt>
      <trkpt lat="42.98399" lon="-0.81436">
        <ele>709.479</ele>
        <time>2023-04-18T07:49:38Z</time>
      </trkpt>
      <trkpt lat="42.98395" lon="-0.81439">
        <ele>710.461</ele>
        <time>2023-04-18T07:49:46Z</time>
      </trkpt>
      <trkpt lat="42.9839" lon="-0.8144">
        <ele>711.57</ele>
        <time>2023-04-18T07:49:49Z</time>
      </trkpt>
      <trkpt lat="42.98385" lon="-0.81442">
        <ele>711.738</ele>
        <time>2023-04-18T07:49:53Z</time>
      </trkpt>
      <trkpt lat="42.98382" lon="-0.81447">
        <ele>711.939</ele>
        <time>2023-04-18T07:50:09Z</time>
      </trkpt>
      <trkpt lat="42.98375" lon="-0.81449">
        <ele>712.345</ele>
        <time>2023-04-18T07:50:21Z</time>
      </trkpt>
      <trkpt lat="42.9837" lon="-0.81451">
        <ele>712.421</ele>
        <time>2023-04-18T07:50:23Z</time>
      </trkpt>
      <trkpt lat="42.98367" lon="-0.81446">
        <ele>713.682</ele>
        <time>2023-04-18T07:50:26Z</time>
      </trkpt>
      <trkpt lat="42.98368" lon="-0.81438">
        <ele>713.923</ele>
        <time>2023-04-18T07:50:36Z</time>
      </trkpt>
      <trkpt lat="42.98375" lon="-0.81436">
        <ele>714.952</ele>
        <time>2023-04-18T07:50:38Z</time>
      </trkpt>
      <trkpt lat="42.98373" lon="-0.81443">
        <ele>716.253</ele>
        <time>2023-04-18T07:50:41Z</time>
      </trkpt>
      <trkpt lat="42.98373" lon="-0.81451">
        <ele>716.608</ele>
        <time>2023-04-18T07:50:46Z</time>
      </trkpt>
      <trkpt lat="42.98371" lon="-0.81458">
        <ele>716.709</ele>
        <time>2023-04-18T07:50:50Z</time>
      </trkpt>
      <trkpt lat="42.98375" lon="-0.81461">
        <ele>717.316</ele>
        <time>2023-04-18T07:50:53Z</time>
      </trkpt>
      <trkpt lat="42.9837" lon="-0.81461">
        <ele>717.748</ele>
        <time>2023-04-18T07:50:55Z</time>
      </trkpt>
      <trkpt lat="42.98362" lon="-0.81462">
        <ele>718.257</ele>
        <time>2023-04-18T07:50:59Z</time>
      </trkpt>
      <trkpt lat="42.98356" lon="-0.81462">
        <ele>718.335</ele>
        <time>2023-04-18T07:51:01Z</time>
      </trkpt>
      <trkpt lat="42.98352" lon="-0.8146">
        <ele>718.976</ele>
        <time>2023-04-18T07:51:05Z</time>
      </trkpt>
      <trkpt lat="42.98349" lon="-0.81464">
        <ele>719.192</ele>
        <time>2023-04-18T07:51:13Z</time>
      </trkpt>
      <trkpt lat="42.98349" lon="-0.81458">
        <ele>719.598</ele>
        <time>2023-04-18T07:51:19Z</time>
      </trkpt>
      <trkpt lat="42.98346" lon="-0.81449">
        <ele>719.759</ele>
        <time>2023-04-18T07:51:25Z</time>
      </trkpt>
      <trkpt lat="42.98341" lon="-0.81451">
        <ele>721.01</ele>
        <time>2023-04-18T07:51:35Z</time>
      </trkpt>
      <trkpt lat="42.98336" lon="-0.81449">
        <ele>722.348</ele>
        <time>2023-04-18T07:51:43Z</time>
      </trkpt>
      <trkpt lat="42.98335" lon="-0.81455">
        <ele>723.561</ele>
        <time>2023-04-18T07:51:56Z</time>
      </trkpt>
      <trkpt lat="42.9833" lon="-0.81458">
        <ele>723.717</ele>
        <time>2023-04-18T07:52:07Z</time>
      </trkpt>
      <trkpt lat="42.98324" lon="-0.81459">
        <ele>723.909</ele>
        <time>2023-04-18T07:52:14Z</time>
      </trkpt>
      <trkpt lat="42.98319" lon="-0.81462">
        <ele>725.085</ele>
        <time>2023-04-18T07:52:21Z</time>
      </trkpt>
      <trkpt lat="42.98314" lon="-0.81458">
        <ele>725.987</ele>
        <time>2023-04-18T07:52:26Z</time>
      </trkpt>
      <trkpt lat="42.9831" lon="-0.81455">
        <ele>725.976</ele>
        <time>2023-04-18T07:52:36Z</time>
      </trkpt>
      <trkpt lat="42.98306" lon="-0.81459">
        <ele>722.774</ele>
        <time>2023-04-18T07:52:43Z</time>
      </trkpt>
      <trkpt lat="42.983" lon="-0.81458">
        <ele>720.145</ele>
        <time>2023-04-18T07:52:51Z</time>
      </trkpt>
      <trkpt lat="42.98296" lon="-0.81456">
        <ele>720.161</ele>
        <time>2023-04-18T07:52:56Z</time>
      </trkpt>
      <trkpt lat="42.9829" lon="-0.81457">
        <ele>720.117</ele>
        <time>2023-04-18T07:53:06Z</time>
      </trkpt>
      <trkpt lat="42.98286" lon="-0.81462">
        <ele>720.948</ele>
        <time>2023-04-18T07:53:15Z</time>
      </trkpt>
      <trkpt lat="42.98282" lon="-0.81456">
        <ele>721.629</ele>
        <time>2023-04-18T07:53:17Z</time>
      </trkpt>
      <trkpt lat="42.98278" lon="-0.81454">
        <ele>722.817</ele>
        <time>2023-04-18T07:53:22Z</time>
      </trkpt>
      <trkpt lat="42.98276" lon="-0.81448">
        <ele>723.687</ele>
        <time>2023-04-18T07:53:28Z</time>
      </trkpt>
      <trkpt lat="42.98272" lon="-0.81444">
        <ele>724.215</ele>
        <time>2023-04-18T07:53:36Z</time>
      </trkpt>
      <trkpt lat="42.98267" lon="-0.81441">
        <ele>725.409</ele>
        <time>2023-04-18T07:53:43Z</time>
      </trkpt>
      <trkpt lat="42.98263" lon="-0.81437">
        <ele>726.512</ele>
        <time>2023-04-18T07:54:01Z</time>
      </trkpt>
      <trkpt lat="42.98258" lon="-0.81438">
        <ele>727.444</ele>
        <time>2023-04-18T07:54:08Z</time>
      </trkpt>
      <trkpt lat="42.98253" lon="-0.81438">
        <ele>728.843</ele>
        <time>2023-04-18T07:54:19Z</time>
      </trkpt>
      <trkpt lat="42.98247" lon="-0.81441">
        <ele>730.481</ele>
        <time>2023-04-18T07:54:24Z</time>
      </trkpt>
      <trkpt lat="42.98243" lon="-0.81439">
        <ele>731.762</ele>
        <time>2023-04-18T07:54:29Z</time>
      </trkpt>
      <trkpt lat="42.98237" lon="-0.81443">
        <ele>733.028</ele>
        <time>2023-04-18T07:54:37Z</time>
      </trkpt>
      <trkpt lat="42.98232" lon="-0.81439">
        <ele>733.854</ele>
        <time>2023-04-18T07:54:40Z</time>
      </trkpt>
      <trkpt lat="42.98227" lon="-0.81437">
        <ele>735.615</ele>
        <time>2023-04-18T07:54:51Z</time>
      </trkpt>
      <trkpt lat="42.98223" lon="-0.81434">
        <ele>735.836</ele>
        <time>2023-04-18T07:55:00Z</time>
      </trkpt>
      <trkpt lat="42.98221" lon="-0.81428">
        <ele>737.039</ele>
        <time>2023-04-18T07:55:05Z</time>
      </trkpt>
      <trkpt lat="42.98216" lon="-0.81431">
        <ele>738.901</ele>
        <time>2023-04-18T07:55:11Z</time>
      </trkpt>
      <trkpt lat="42.98211" lon="-0.81429">
        <ele>740.221</ele>
        <time>2023-04-18T07:55:17Z</time>
      </trkpt>
      <trkpt lat="42.98208" lon="-0.81424">
        <ele>741.009</ele>
        <time>2023-04-18T07:55:20Z</time>
      </trkpt>
      <trkpt lat="42.98203" lon="-0.81422">
        <ele>741.544</ele>
        <time>2023-04-18T07:55:32Z</time>
      </trkpt>
      <trkpt lat="42.98199" lon="-0.81417">
        <ele>741.566</ele>
        <time>2023-04-18T07:55:39Z</time>
      </trkpt>
      <trkpt lat="42.98193" lon="-0.81413">
        <ele>741.845</ele>
        <time>2023-04-18T07:55:44Z</time>
      </trkpt>
      <trkpt lat="42.98189" lon="-0.81417">
        <ele>742.193</ele>
        <time>2023-04-18T07:55:50Z</time>
      </trkpt>
      <trkpt lat="42.98189" lon="-0.8141">
        <ele>742.454</ele>
        <time>2023-04-18T07:55:59Z</time>
      </trkpt>
      <trkpt lat="42.98184" lon="-0.81407">
        <ele>742.58</ele>
        <time>2023-04-18T07:56:06Z</time>
      </trkpt>
      <trkpt lat="42.9818" lon="-0.81409">
        <ele>742.956</ele>
        <time>2023-04-18T07:56:21Z</time>
      </trkpt>
      <trkpt lat="42.98173" lon="-0.8141">
        <ele>743.457</ele>
        <time>2023-04-18T07:56:29Z</time>
      </trkpt>
      <trkpt lat="42.98165" lon="-0.81413">
        <ele>745.188</ele>
        <time>2023-04-18T07:56:32Z</time>
      </trkpt>
      <trkpt lat="42.98164" lon="-0.81406">
        <ele>746.194</ele>
        <time>2023-04-18T07:56:38Z</time>
      </trkpt>
      <trkpt lat="42.98168" lon="-0.81401">
        <ele>746.457</ele>
        <time>2023-04-18T07:56:50Z</time>
      </trkpt>
      <trkpt lat="42.98163" lon="-0.814">
        <ele>747.122</ele>
        <time>2023-04-18T07:57:20Z</time>
      </trkpt>
      <trkpt lat="42.98164" lon="-0.81386">
        <ele>747.209</ele>
        <time>2023-04-18T07:58:16Z</time>
      </trkpt>
      <trkpt lat="42.9817" lon="-0.81388">
        <ele>747.41</ele>
        <time>2023-04-18T07:58:28Z</time>
      </trkpt>
      <trkpt lat="42.98165" lon="-0.8139">
        <ele>747.472</ele>
        <time>2023-04-18T07:58:48Z</time>
      </trkpt>
      <trkpt lat="42.98169" lon="-0.81395">
        <ele>747.491</ele>
        <time>2023-04-18T07:58:55Z</time>
      </trkpt>
      <trkpt lat="42.98165" lon="-0.81389">
        <ele>747.219</ele>
        <time>2023-04-18T07:59:25Z</time>
      </trkpt>
      <trkpt lat="42.98168" lon="-0.81394">
        <ele>747.08</ele>
        <time>2023-04-18T07:59:45Z</time>
      </trkpt>
      <trkpt lat="42.98165" lon="-0.81399">
        <ele>746.836</ele>
        <time>2023-04-18T07:59:50Z</time>
      </trkpt>
      <trkpt lat="42.9816" lon="-0.814">
        <ele>746.892</ele>
        <time>2023-04-18T08:00:01Z</time>
      </trkpt>
      <trkpt lat="42.98157" lon="-0.81405">
        <ele>746.813</ele>
        <time>2023-04-18T08:00:08Z</time>
      </trkpt>
      <trkpt lat="42.98153" lon="-0.81408">
        <ele>747.594</ele>
        <time>2023-04-18T08:00:17Z</time>
      </trkpt>
      <trkpt lat="42.98147" lon="-0.81409">
        <ele>748.944</ele>
        <time>2023-04-18T08:00:23Z</time>
      </trkpt>
      <trkpt lat="42.98142" lon="-0.81411">
        <ele>750.205</ele>
        <time>2023-04-18T08:00:25Z</time>
      </trkpt>
      <trkpt lat="42.98137" lon="-0.81407">
        <ele>751.215</ele>
        <time>2023-04-18T08:00:29Z</time>
      </trkpt>
      <trkpt lat="42.98139" lon="-0.81401">
        <ele>751.909</ele>
        <time>2023-04-18T08:00:38Z</time>
      </trkpt>
      <trkpt lat="42.98134" lon="-0.81403">
        <ele>752.535</ele>
        <time>2023-04-18T08:00:42Z</time>
      </trkpt>
      <trkpt lat="42.98128" lon="-0.81403">
        <ele>753.347</ele>
        <time>2023-04-18T08:01:02Z</time>
      </trkpt>
      <trkpt lat="42.98123" lon="-0.81402">
        <ele>754.076</ele>
        <time>2023-04-18T08:01:08Z</time>
      </trkpt>
      <trkpt lat="42.98126" lon="-0.81408">
        <ele>754.224</ele>
        <time>2023-04-18T08:01:11Z</time>
      </trkpt>
      <trkpt lat="42.98121" lon="-0.81411">
        <ele>754.285</ele>
        <time>2023-04-18T08:01:23Z</time>
      </trkpt>
      <trkpt lat="42.9812" lon="-0.81405">
        <ele>754.541</ele>
        <time>2023-04-18T08:01:37Z</time>
      </trkpt>
      <trkpt lat="42.98116" lon="-0.81402">
        <ele>754.947</ele>
        <time>2023-04-18T08:01:40Z</time>
      </trkpt>
      <trkpt lat="42.98111" lon="-0.81396">
        <ele>755.428</ele>
        <time>2023-04-18T08:01:47Z</time>
      </trkpt>
      <trkpt lat="42.98115" lon="-0.81392">
        <ele>756.149</ele>
        <time>2023-04-18T08:01:56Z</time>
      </trkpt>
      <trkpt lat="42.98112" lon="-0.81397">
        <ele>756.734</ele>
        <time>2023-04-18T08:02:00Z</time>
      </trkpt>
      <trkpt lat="42.98108" lon="-0.81402">
        <ele>757.455</ele>
        <time>2023-04-18T08:02:07Z</time>
      </trkpt>
      <trkpt lat="42.98103" lon="-0.81401">
        <ele>758.11</ele>
        <time>2023-04-18T08:02:10Z</time>
      </trkpt>
      <trkpt lat="42.98098" lon="-0.81407">
        <ele>758.309</ele>
        <time>2023-04-18T08:02:15Z</time>
      </trkpt>
      <trkpt lat="42.98094" lon="-0.81406">
        <ele>758.384</ele>
        <time>2023-04-18T08:02:18Z</time>
      </trkpt>
      <trkpt lat="42.98088" lon="-0.81406">
        <ele>758.476</ele>
        <time>2023-04-18T08:02:37Z</time>
      </trkpt>
      <trkpt lat="42.98089" lon="-0.81399">
        <ele>758.435</ele>
        <time>2023-04-18T08:02:45Z</time>
      </trkpt>
      <trkpt lat="42.98084" lon="-0.81399">
        <ele>760.263</ele>
        <time>2023-04-18T08:02:54Z</time>
      </trkpt>
      <trkpt lat="42.9808" lon="-0.81404">
        <ele>762.434</ele>
        <time>2023-04-18T08:02:59Z</time>
      </trkpt>
      <trkpt lat="42.98077" lon="-0.81409">
        <ele>762.85</ele>
        <time>2023-04-18T08:03:06Z</time>
      </trkpt>
      <trkpt lat="42.98076" lon="-0.81416">
        <ele>762.936</ele>
        <time>2023-04-18T08:03:10Z</time>
      </trkpt>
      <trkpt lat="42.98071" lon="-0.81415">
        <ele>763.227</ele>
        <time>2023-04-18T08:03:21Z</time>
      </trkpt>
      <trkpt lat="42.98067" lon="-0.81418">
        <ele>763.448</ele>
        <time>2023-04-18T08:03:43Z</time>
      </trkpt>
      <trkpt lat="42.98061" lon="-0.81419">
        <ele>763.553</ele>
        <time>2023-04-18T08:03:45Z</time>
      </trkpt>
      <trkpt lat="42.98057" lon="-0.81419">
        <ele>765.504</ele>
        <time>2023-04-18T08:03:48Z</time>
      </trkpt>
      <trkpt lat="42.98052" lon="-0.81417">
        <ele>767.514</ele>
        <time>2023-04-18T08:03:54Z</time>
      </trkpt>
      <trkpt lat="42.98048" lon="-0.81412">
        <ele>767.709</ele>
        <time>2023-04-18T08:04:05Z</time>
      </trkpt>
      <trkpt lat="42.98043" lon="-0.8141">
        <ele>768.496</ele>
        <time>2023-04-18T08:04:14Z</time>
      </trkpt>
      <trkpt lat="42.98038" lon="-0.81407">
        <ele>769.518</ele>
        <time>2023-04-18T08:04:23Z</time>
      </trkpt>
      <trkpt lat="42.98032" lon="-0.81407">
        <ele>770.427</ele>
        <time>2023-04-18T08:04:35Z</time>
      </trkpt>
      <trkpt lat="42.9803" lon="-0.81412">
        <ele>771.565</ele>
        <time>2023-04-18T08:04:54Z</time>
      </trkpt>
      <trkpt lat="42.98025" lon="-0.81417">
        <ele>773.166</ele>
        <time>2023-04-18T08:04:56Z</time>
      </trkpt>
      <trkpt lat="42.98021" lon="-0.81423">
        <ele>777.572</ele>
        <time>2023-04-18T08:05:02Z</time>
      </trkpt>
      <trkpt lat="42.98018" lon="-0.81427">
        <ele>777.538</ele>
        <time>2023-04-18T08:05:09Z</time>
      </trkpt>
      <trkpt lat="42.98013" lon="-0.81428">
        <ele>778.359</ele>
        <time>2023-04-18T08:05:20Z</time>
      </trkpt>
      <trkpt lat="42.98006" lon="-0.8143">
        <ele>780.16</ele>
        <time>2023-04-18T08:05:23Z</time>
      </trkpt>
      <trkpt lat="42.98004" lon="-0.81424">
        <ele>780.353</ele>
        <time>2023-04-18T08:05:29Z</time>
      </trkpt>
      <trkpt lat="42.97999" lon="-0.81422">
        <ele>780.504</ele>
        <time>2023-04-18T08:05:43Z</time>
      </trkpt>
      <trkpt lat="42.97995" lon="-0.81416">
        <ele>781.414</ele>
        <time>2023-04-18T08:05:48Z</time>
      </trkpt>
      <trkpt lat="42.9799" lon="-0.81413">
        <ele>782.209</ele>
        <time>2023-04-18T08:05:52Z</time>
      </trkpt>
      <trkpt lat="42.97987" lon="-0.81407">
        <ele>782.366</ele>
        <time>2023-04-18T08:05:55Z</time>
      </trkpt>
      <trkpt lat="42.97984" lon="-0.81402">
        <ele>782.618</ele>
        <time>2023-04-18T08:05:58Z</time>
      </trkpt>
      <trkpt lat="42.97986" lon="-0.81393">
        <ele>783.527</ele>
        <time>2023-04-18T08:06:02Z</time>
      </trkpt>
      <trkpt lat="42.9798" lon="-0.81394">
        <ele>783.985</ele>
        <time>2023-04-18T08:06:24Z</time>
      </trkpt>
      <trkpt lat="42.97976" lon="-0.81398">
        <ele>784.466</ele>
        <time>2023-04-18T08:06:43Z</time>
      </trkpt>
      <trkpt lat="42.97979" lon="-0.81402">
        <ele>786.342</ele>
        <time>2023-04-18T08:06:48Z</time>
      </trkpt>
      <trkpt lat="42.97978" lon="-0.81409">
        <ele>789.858</ele>
        <time>2023-04-18T08:07:10Z</time>
      </trkpt>
      <trkpt lat="42.97973" lon="-0.81413">
        <ele>791.919</ele>
        <time>2023-04-18T08:07:16Z</time>
      </trkpt>
      <trkpt lat="42.97974" lon="-0.81419">
        <ele>793.55</ele>
        <time>2023-04-18T08:07:20Z</time>
      </trkpt>
      <trkpt lat="42.97969" lon="-0.81419">
        <ele>795.012</ele>
        <time>2023-04-18T08:07:28Z</time>
      </trkpt>
      <trkpt lat="42.97974" lon="-0.81421">
        <ele>795.732</ele>
        <time>2023-04-18T08:07:34Z</time>
      </trkpt>
      <trkpt lat="42.97969" lon="-0.81423">
        <ele>799.305</ele>
        <time>2023-04-18T08:07:41Z</time>
      </trkpt>
      <trkpt lat="42.97964" lon="-0.81428">
        <ele>803.009</ele>
        <time>2023-04-18T08:07:48Z</time>
      </trkpt>
      <trkpt lat="42.97965" lon="-0.81436">
        <ele>804.622</ele>
        <time>2023-04-18T08:07:55Z</time>
      </trkpt>
      <trkpt lat="42.97959" lon="-0.81434">
        <ele>805.764</ele>
        <time>2023-04-18T08:08:02Z</time>
      </trkpt>
      <trkpt lat="42.97954" lon="-0.81432">
        <ele>807.073</ele>
        <time>2023-04-18T08:08:08Z</time>
      </trkpt>
      <trkpt lat="42.97955" lon="-0.81439">
        <ele>808.571</ele>
        <time>2023-04-18T08:08:15Z</time>
      </trkpt>
      <trkpt lat="42.9796" lon="-0.81447">
        <ele>809.362</ele>
        <time>2023-04-18T08:08:21Z</time>
      </trkpt>
      <trkpt lat="42.97956" lon="-0.81452">
        <ele>810.448</ele>
        <time>2023-04-18T08:08:28Z</time>
      </trkpt>
      <trkpt lat="42.97951" lon="-0.81454">
        <ele>811.474</ele>
        <time>2023-04-18T08:08:40Z</time>
      </trkpt>
      <trkpt lat="42.97955" lon="-0.8146">
        <ele>812.415</ele>
        <time>2023-04-18T08:08:45Z</time>
      </trkpt>
      <trkpt lat="42.97952" lon="-0.81465">
        <ele>814.516</ele>
        <time>2023-04-18T08:08:56Z</time>
      </trkpt>
      <trkpt lat="42.97948" lon="-0.81463">
        <ele>815.063</ele>
        <time>2023-04-18T08:09:05Z</time>
      </trkpt>
      <trkpt lat="42.97944" lon="-0.81468">
        <ele>816.344</ele>
        <time>2023-04-18T08:09:25Z</time>
      </trkpt>
      <trkpt lat="42.97939" lon="-0.81469">
        <ele>818.118</ele>
        <time>2023-04-18T08:09:29Z</time>
      </trkpt>
      <trkpt lat="42.97937" lon="-0.81474">
        <ele>821.009</ele>
        <time>2023-04-18T08:09:37Z</time>
      </trkpt>
      <trkpt lat="42.97932" lon="-0.81475">
        <ele>823.267</ele>
        <time>2023-04-18T08:09:42Z</time>
      </trkpt>
      <trkpt lat="42.97927" lon="-0.81473">
        <ele>824.199</ele>
        <time>2023-04-18T08:09:45Z</time>
      </trkpt>
      <trkpt lat="42.97922" lon="-0.81477">
        <ele>825.148</ele>
        <time>2023-04-18T08:10:10Z</time>
      </trkpt>
      <trkpt lat="42.97922" lon="-0.81483">
        <ele>825.656</ele>
        <time>2023-04-18T08:10:20Z</time>
      </trkpt>
      <trkpt lat="42.97918" lon="-0.81479">
        <ele>825.897</ele>
        <time>2023-04-18T08:10:28Z</time>
      </trkpt>
      <trkpt lat="42.97916" lon="-0.81485">
        <ele>826.853</ele>
        <time>2023-04-18T08:10:40Z</time>
      </trkpt>
      <trkpt lat="42.97919" lon="-0.81491">
        <ele>828.129</ele>
        <time>2023-04-18T08:10:45Z</time>
      </trkpt>
      <trkpt lat="42.97916" lon="-0.81497">
        <ele>828.75</ele>
        <time>2023-04-18T08:10:58Z</time>
      </trkpt>
      <trkpt lat="42.97912" lon="-0.81502">
        <ele>829.421</ele>
        <time>2023-04-18T08:11:06Z</time>
      </trkpt>
      <trkpt lat="42.97908" lon="-0.81503">
        <ele>831.029</ele>
        <time>2023-04-18T08:11:11Z</time>
      </trkpt>
      <trkpt lat="42.97902" lon="-0.81504">
        <ele>832.9</ele>
        <time>2023-04-18T08:11:18Z</time>
      </trkpt>
      <trkpt lat="42.979" lon="-0.81511">
        <ele>834.02</ele>
        <time>2023-04-18T08:11:24Z</time>
      </trkpt>
      <trkpt lat="42.97896" lon="-0.81516">
        <ele>834.409</ele>
        <time>2023-04-18T08:11:32Z</time>
      </trkpt>
      <trkpt lat="42.97891" lon="-0.81518">
        <ele>834.673</ele>
        <time>2023-04-18T08:11:35Z</time>
      </trkpt>
      <trkpt lat="42.97891" lon="-0.81525">
        <ele>834.955</ele>
        <time>2023-04-18T08:11:48Z</time>
      </trkpt>
      <trkpt lat="42.97885" lon="-0.81526">
        <ele>835.154</ele>
        <time>2023-04-18T08:11:55Z</time>
      </trkpt>
      <trkpt lat="42.9788" lon="-0.81527">
        <ele>836.132</ele>
        <time>2023-04-18T08:12:02Z</time>
      </trkpt>
      <trkpt lat="42.97875" lon="-0.81525">
        <ele>837.613</ele>
        <time>2023-04-18T08:12:11Z</time>
      </trkpt>
      <trkpt lat="42.97871" lon="-0.81527">
        <ele>838.659</ele>
        <time>2023-04-18T08:12:17Z</time>
      </trkpt>
      <trkpt lat="42.97866" lon="-0.81526">
        <ele>839.215</ele>
        <time>2023-04-18T08:12:19Z</time>
      </trkpt>
      <trkpt lat="42.97866" lon="-0.81532">
        <ele>839.836</ele>
        <time>2023-04-18T08:12:26Z</time>
      </trkpt>
      <trkpt lat="42.97863" lon="-0.81537">
        <ele>840.347</ele>
        <time>2023-04-18T08:12:33Z</time>
      </trkpt>
      <trkpt lat="42.97857" lon="-0.8154">
        <ele>841.071</ele>
        <time>2023-04-18T08:12:42Z</time>
      </trkpt>
      <trkpt lat="42.97852" lon="-0.81542">
        <ele>841.941</ele>
        <time>2023-04-18T08:12:48Z</time>
      </trkpt>
      <trkpt lat="42.97848" lon="-0.81545">
        <ele>842.215</ele>
        <time>2023-04-18T08:12:54Z</time>
      </trkpt>
      <trkpt lat="42.97842" lon="-0.81549">
        <ele>843.209</ele>
        <time>2023-04-18T08:13:09Z</time>
      </trkpt>
      <trkpt lat="42.97841" lon="-0.81555">
        <ele>843.738</ele>
        <time>2023-04-18T08:13:14Z</time>
      </trkpt>
      <trkpt lat="42.97837" lon="-0.81557">
        <ele>845.24</ele>
        <time>2023-04-18T08:13:18Z</time>
      </trkpt>
      <trkpt lat="42.97836" lon="-0.81563">
        <ele>846.499</ele>
        <time>2023-04-18T08:13:24Z</time>
      </trkpt>
      <trkpt lat="42.97831" lon="-0.81564">
        <ele>846.827</ele>
        <time>2023-04-18T08:13:28Z</time>
      </trkpt>
      <trkpt lat="42.97826" lon="-0.81566">
        <ele>847.128</ele>
        <time>2023-04-18T08:13:33Z</time>
      </trkpt>
      <trkpt lat="42.97829" lon="-0.81571">
        <ele>847.214</ele>
        <time>2023-04-18T08:13:37Z</time>
      </trkpt>
      <trkpt lat="42.97824" lon="-0.81571">
        <ele>847.73</ele>
        <time>2023-04-18T08:13:41Z</time>
      </trkpt>
      <trkpt lat="42.97814" lon="-0.81569">
        <ele>848.751</ele>
        <time>2023-04-18T08:13:57Z</time>
      </trkpt>
      <trkpt lat="42.97809" lon="-0.81567">
        <ele>849.312</ele>
        <time>2023-04-18T08:14:21Z</time>
      </trkpt>
      <trkpt lat="42.9781" lon="-0.81574">
        <ele>849.773</ele>
        <time>2023-04-18T08:14:29Z</time>
      </trkpt>
      <trkpt lat="42.97812" lon="-0.81579">
        <ele>849.985</ele>
        <time>2023-04-18T08:14:35Z</time>
      </trkpt>
      <trkpt lat="42.97815" lon="-0.81585">
        <ele>850.513</ele>
        <time>2023-04-18T08:14:39Z</time>
      </trkpt>
      <trkpt lat="42.9781" lon="-0.81587">
        <ele>851.109</ele>
        <time>2023-04-18T08:14:44Z</time>
      </trkpt>
      <trkpt lat="42.97815" lon="-0.81594">
        <ele>851.888</ele>
        <time>2023-04-18T08:14:49Z</time>
      </trkpt>
      <trkpt lat="42.97817" lon="-0.816">
        <ele>852.26</ele>
        <time>2023-04-18T08:15:09Z</time>
      </trkpt>
      <trkpt lat="42.97818" lon="-0.81608">
        <ele>852.999</ele>
        <time>2023-04-18T08:15:15Z</time>
      </trkpt>
      <trkpt lat="42.97813" lon="-0.81609">
        <ele>854.947</ele>
        <time>2023-04-18T08:15:23Z</time>
      </trkpt>
      <trkpt lat="42.97815" lon="-0.81615">
        <ele>855.488</ele>
        <time>2023-04-18T08:15:39Z</time>
      </trkpt>
      <trkpt lat="42.97819" lon="-0.81619">
        <ele>856.224</ele>
        <time>2023-04-18T08:15:44Z</time>
      </trkpt>
      <trkpt lat="42.97821" lon="-0.81626">
        <ele>856.79</ele>
        <time>2023-04-18T08:15:52Z</time>
      </trkpt>
      <trkpt lat="42.97824" lon="-0.81631">
        <ele>857.361</ele>
        <time>2023-04-18T08:16:00Z</time>
      </trkpt>
      <trkpt lat="42.97821" lon="-0.81635">
        <ele>858.492</ele>
        <time>2023-04-18T08:16:05Z</time>
      </trkpt>
      <trkpt lat="42.97816" lon="-0.81636">
        <ele>859.815</ele>
        <time>2023-04-18T08:16:08Z</time>
      </trkpt>
      <trkpt lat="42.97812" lon="-0.81644">
        <ele>861.665</ele>
        <time>2023-04-18T08:16:12Z</time>
      </trkpt>
      <trkpt lat="42.97814" lon="-0.8165">
        <ele>861.911</ele>
        <time>2023-04-18T08:16:13Z</time>
      </trkpt>
      <trkpt lat="42.97817" lon="-0.81657">
        <ele>862.609</ele>
        <time>2023-04-18T08:16:17Z</time>
      </trkpt>
      <trkpt lat="42.97816" lon="-0.81663">
        <ele>862.752</ele>
        <time>2023-04-18T08:16:21Z</time>
      </trkpt>
      <trkpt lat="42.97813" lon="-0.81666">
        <ele>863.054</ele>
        <time>2023-04-18T08:16:25Z</time>
      </trkpt>
      <trkpt lat="42.97807" lon="-0.81667">
        <ele>863.773</ele>
        <time>2023-04-18T08:16:27Z</time>
      </trkpt>
      <trkpt lat="42.97801" lon="-0.81667">
        <ele>864.421</ele>
        <time>2023-04-18T08:16:29Z</time>
      </trkpt>
      <trkpt lat="42.97804" lon="-0.81673">
        <ele>865.042</ele>
        <time>2023-04-18T08:16:43Z</time>
      </trkpt>
      <trkpt lat="42.978" lon="-0.81677">
        <ele>865.548</ele>
        <time>2023-04-18T08:16:46Z</time>
      </trkpt>
      <trkpt lat="42.97803" lon="-0.81684">
        <ele>867.524</ele>
        <time>2023-04-18T08:16:50Z</time>
      </trkpt>
      <trkpt lat="42.97799" lon="-0.81688">
        <ele>867.655</ele>
        <time>2023-04-18T08:16:53Z</time>
      </trkpt>
      <trkpt lat="42.97795" lon="-0.81685">
        <ele>867.696</ele>
        <time>2023-04-18T08:16:57Z</time>
      </trkpt>
      <trkpt lat="42.97791" lon="-0.81682">
        <ele>867.731</ele>
        <time>2023-04-18T08:17:01Z</time>
      </trkpt>
      <trkpt lat="42.97796" lon="-0.81684">
        <ele>867.761</ele>
        <time>2023-04-18T08:17:03Z</time>
      </trkpt>
      <trkpt lat="42.97793" lon="-0.8168">
        <ele>868.107</ele>
        <time>2023-04-18T08:17:08Z</time>
      </trkpt>
      <trkpt lat="42.97791" lon="-0.81686">
        <ele>868.709</ele>
        <time>2023-04-18T08:17:10Z</time>
      </trkpt>
      <trkpt lat="42.9779" lon="-0.81692">
        <ele>869.624</ele>
        <time>2023-04-18T08:17:15Z</time>
      </trkpt>
      <trkpt lat="42.97788" lon="-0.81699">
        <ele>870.226</ele>
        <time>2023-04-18T08:17:22Z</time>
      </trkpt>
      <trkpt lat="42.97785" lon="-0.81706">
        <ele>870.865</ele>
        <time>2023-04-18T08:17:26Z</time>
      </trkpt>
      <trkpt lat="42.97785" lon="-0.81712">
        <ele>871.983</ele>
        <time>2023-04-18T08:17:36Z</time>
      </trkpt>
      <trkpt lat="42.9778" lon="-0.81711">
        <ele>872.814</ele>
        <time>2023-04-18T08:17:40Z</time>
      </trkpt>
      <trkpt lat="42.97774" lon="-0.81712">
        <ele>874.56</ele>
        <time>2023-04-18T08:17:46Z</time>
      </trkpt>
      <trkpt lat="42.97771" lon="-0.81718">
        <ele>875.266</ele>
        <time>2023-04-18T08:17:57Z</time>
      </trkpt>
      <trkpt lat="42.97767" lon="-0.81724">
        <ele>875.997</ele>
        <time>2023-04-18T08:18:09Z</time>
      </trkpt>
      <trkpt lat="42.97769" lon="-0.8173">
        <ele>877.698</ele>
        <time>2023-04-18T08:18:16Z</time>
      </trkpt>
      <trkpt lat="42.97765" lon="-0.81732">
        <ele>878.562</ele>
        <time>2023-04-18T08:18:22Z</time>
      </trkpt>
      <trkpt lat="42.97759" lon="-0.81734">
        <ele>879.883</ele>
        <time>2023-04-18T08:18:28Z</time>
      </trkpt>
      <trkpt lat="42.97753" lon="-0.81733">
        <ele>880.711</ele>
        <time>2023-04-18T08:18:32Z</time>
      </trkpt>
      <trkpt lat="42.97746" lon="-0.81734">
        <ele>882.109</ele>
        <time>2023-04-18T08:18:36Z</time>
      </trkpt>
      <trkpt lat="42.97745" lon="-0.8174">
        <ele>882.787</ele>
        <time>2023-04-18T08:18:49Z</time>
      </trkpt>
      <trkpt lat="42.97742" lon="-0.81745">
        <ele>883.219</ele>
        <time>2023-04-18T08:18:54Z</time>
      </trkpt>
      <trkpt lat="42.97738" lon="-0.81748">
        <ele>883.898</ele>
        <time>2023-04-18T08:19:01Z</time>
      </trkpt>
      <trkpt lat="42.97732" lon="-0.8175">
        <ele>884.936</ele>
        <time>2023-04-18T08:19:10Z</time>
      </trkpt>
      <trkpt lat="42.97727" lon="-0.81752">
        <ele>885.727</ele>
        <time>2023-04-18T08:19:14Z</time>
      </trkpt>
      <trkpt lat="42.97722" lon="-0.81753">
        <ele>886.433</ele>
        <time>2023-04-18T08:19:18Z</time>
      </trkpt>
      <trkpt lat="42.97718" lon="-0.81755">
        <ele>886.829</ele>
        <time>2023-04-18T08:19:29Z</time>
      </trkpt>
      <trkpt lat="42.97712" lon="-0.81754">
        <ele>886.83</ele>
        <time>2023-04-18T08:19:35Z</time>
      </trkpt>
      <trkpt lat="42.97708" lon="-0.81752">
        <ele>886.991</ele>
        <time>2023-04-18T08:19:45Z</time>
      </trkpt>
      <trkpt lat="42.97703" lon="-0.81755">
        <ele>887.013</ele>
        <time>2023-04-18T08:19:59Z</time>
      </trkpt>
      <trkpt lat="42.97703" lon="-0.81761">
        <ele>887.043</ele>
        <time>2023-04-18T08:20:29Z</time>
      </trkpt>
      <trkpt lat="42.97698" lon="-0.8176">
        <ele>887.907</ele>
        <time>2023-04-18T08:20:36Z</time>
      </trkpt>
      <trkpt lat="42.97693" lon="-0.8176">
        <ele>891.009</ele>
        <time>2023-04-18T08:20:42Z</time>
      </trkpt>
      <trkpt lat="42.97688" lon="-0.81759">
        <ele>893.882</ele>
        <time>2023-04-18T08:20:51Z</time>
      </trkpt>
      <trkpt lat="42.97682" lon="-0.81771">
        <ele>895.334</ele>
        <time>2023-04-18T08:21:48Z</time>
      </trkpt>
      <trkpt lat="42.97683" lon="-0.81764">
        <ele>895.483</ele>
        <time>2023-04-18T08:21:59Z</time>
      </trkpt>
      <trkpt lat="42.97688" lon="-0.81764">
        <ele>896.071</ele>
        <time>2023-04-18T08:22:07Z</time>
      </trkpt>
      <trkpt lat="42.97682" lon="-0.81767">
        <ele>896.162</ele>
        <time>2023-04-18T08:22:17Z</time>
      </trkpt>
      <trkpt lat="42.97678" lon="-0.8177">
        <ele>896.028</ele>
        <time>2023-04-18T08:22:21Z</time>
      </trkpt>
      <trkpt lat="42.97623" lon="-0.81791">
        <ele>902.578</ele>
        <time>2023-04-18T08:39:58Z</time>
      </trkpt>
      <trkpt lat="42.97611" lon="-0.8178">
        <ele>904.691</ele>
        <time>2023-04-18T08:40:24Z</time>
      </trkpt>
      <trkpt lat="42.97606" lon="-0.81779">
        <ele>905.462</ele>
        <time>2023-04-18T08:40:35Z</time>
      </trkpt>
      <trkpt lat="42.97599" lon="-0.81785">
        <ele>907.552</ele>
        <time>2023-04-18T08:40:40Z</time>
      </trkpt>
      <trkpt lat="42.97581" lon="-0.81802">
        <ele>918.952</ele>
        <time>2023-04-18T08:42:04Z</time>
      </trkpt>
      <trkpt lat="42.97578" lon="-0.81809">
        <ele>919.578</ele>
        <time>2023-04-18T08:42:09Z</time>
      </trkpt>
      <trkpt lat="42.97574" lon="-0.81811">
        <ele>919.989</ele>
        <time>2023-04-18T08:42:19Z</time>
      </trkpt>
      <trkpt lat="42.97568" lon="-0.81814">
        <ele>921.39</ele>
        <time>2023-04-18T08:42:21Z</time>
      </trkpt>
      <trkpt lat="42.97568" lon="-0.81808">
        <ele>922.994</ele>
        <time>2023-04-18T08:42:30Z</time>
      </trkpt>
      <trkpt lat="42.97573" lon="-0.81811">
        <ele>922.957</ele>
        <time>2023-04-18T08:42:35Z</time>
      </trkpt>
      <trkpt lat="42.9757" lon="-0.81818">
        <ele>923.522</ele>
        <time>2023-04-18T08:42:45Z</time>
      </trkpt>
      <trkpt lat="42.97566" lon="-0.8182">
        <ele>924.509</ele>
        <time>2023-04-18T08:42:56Z</time>
      </trkpt>
      <trkpt lat="42.97561" lon="-0.8182">
        <ele>925.96</ele>
        <time>2023-04-18T08:42:59Z</time>
      </trkpt>
      <trkpt lat="42.97556" lon="-0.8182">
        <ele>927.992</ele>
        <time>2023-04-18T08:43:06Z</time>
      </trkpt>
      <trkpt lat="42.97549" lon="-0.81819">
        <ele>929.211</ele>
        <time>2023-04-18T08:43:11Z</time>
      </trkpt>
      <trkpt lat="42.97547" lon="-0.81825">
        <ele>929.749</ele>
        <time>2023-04-18T08:43:22Z</time>
      </trkpt>
      <trkpt lat="42.97542" lon="-0.81825">
        <ele>930.63</ele>
        <time>2023-04-18T08:43:25Z</time>
      </trkpt>
      <trkpt lat="42.97538" lon="-0.81829">
        <ele>931.756</ele>
        <time>2023-04-18T08:43:38Z</time>
      </trkpt>
      <trkpt lat="42.97535" lon="-0.81834">
        <ele>932.562</ele>
        <time>2023-04-18T08:43:44Z</time>
      </trkpt>
      <trkpt lat="42.97531" lon="-0.81837">
        <ele>933.643</ele>
        <time>2023-04-18T08:43:55Z</time>
      </trkpt>
      <trkpt lat="42.97525" lon="-0.81837">
        <ele>934.814</ele>
        <time>2023-04-18T08:43:59Z</time>
      </trkpt>
      <trkpt lat="42.97526" lon="-0.81844">
        <ele>936.115</ele>
        <time>2023-04-18T08:44:14Z</time>
      </trkpt>
      <trkpt lat="42.97523" lon="-0.81838">
        <ele>937.465</ele>
        <time>2023-04-18T08:44:20Z</time>
      </trkpt>
      <trkpt lat="42.97519" lon="-0.81844">
        <ele>938.811</ele>
        <time>2023-04-18T08:44:31Z</time>
      </trkpt>
      <trkpt lat="42.97515" lon="-0.81848">
        <ele>940.409</ele>
        <time>2023-04-18T08:44:34Z</time>
      </trkpt>
      <trkpt lat="42.97511" lon="-0.81851">
        <ele>941.882</ele>
        <time>2023-04-18T08:44:38Z</time>
      </trkpt>
      <trkpt lat="42.97505" lon="-0.81856">
        <ele>942.994</ele>
        <time>2023-04-18T08:44:42Z</time>
      </trkpt>
      <trkpt lat="42.97501" lon="-0.81859">
        <ele>943.583</ele>
        <time>2023-04-18T08:44:45Z</time>
      </trkpt>
      <trkpt lat="42.97497" lon="-0.81857">
        <ele>944.361</ele>
        <time>2023-04-18T08:44:58Z</time>
      </trkpt>
      <trkpt lat="42.97492" lon="-0.81857">
        <ele>944.992</ele>
        <time>2023-04-18T08:45:05Z</time>
      </trkpt>
      <trkpt lat="42.97488" lon="-0.81855">
        <ele>946.088</ele>
        <time>2023-04-18T08:45:28Z</time>
      </trkpt>
      <trkpt lat="42.97486" lon="-0.81865">
        <ele>947.354</ele>
        <time>2023-04-18T08:45:34Z</time>
      </trkpt>
      <trkpt lat="42.97483" lon="-0.8187">
        <ele>949.525</ele>
        <time>2023-04-18T08:45:42Z</time>
      </trkpt>
      <trkpt lat="42.97477" lon="-0.81873">
        <ele>952.116</ele>
        <time>2023-04-18T08:45:45Z</time>
      </trkpt>
      <trkpt lat="42.97474" lon="-0.81877">
        <ele>953.312</ele>
        <time>2023-04-18T08:46:07Z</time>
      </trkpt>
      <trkpt lat="42.97467" lon="-0.81879">
        <ele>953.632</ele>
        <time>2023-04-18T08:46:12Z</time>
      </trkpt>
      <trkpt lat="42.97462" lon="-0.81884">
        <ele>956.805</ele>
        <time>2023-04-18T08:46:16Z</time>
      </trkpt>
      <trkpt lat="42.97457" lon="-0.81889">
        <ele>957.409</ele>
        <time>2023-04-18T08:46:49Z</time>
      </trkpt>
      <trkpt lat="42.97453" lon="-0.81894">
        <ele>958.382</ele>
        <time>2023-04-18T08:46:58Z</time>
      </trkpt>
      <trkpt lat="42.97451" lon="-0.819">
        <ele>964.834</ele>
        <time>2023-04-18T08:47:02Z</time>
      </trkpt>
      <trkpt lat="42.97447" lon="-0.81903">
        <ele>966.223</ele>
        <time>2023-04-18T08:47:06Z</time>
      </trkpt>
      <trkpt lat="42.97441" lon="-0.81903">
        <ele>966.651</ele>
        <time>2023-04-18T08:47:10Z</time>
      </trkpt>
      <trkpt lat="42.97435" lon="-0.81905">
        <ele>967.322</ele>
        <time>2023-04-18T08:47:17Z</time>
      </trkpt>
      <trkpt lat="42.97431" lon="-0.81909">
        <ele>967.868</ele>
        <time>2023-04-18T08:47:24Z</time>
      </trkpt>
      <trkpt lat="42.9743" lon="-0.81902">
        <ele>968.774</ele>
        <time>2023-04-18T08:47:39Z</time>
      </trkpt>
      <trkpt lat="42.97431" lon="-0.81908">
        <ele>969.885</ele>
        <time>2023-04-18T08:47:49Z</time>
      </trkpt>
      <trkpt lat="42.97426" lon="-0.81913">
        <ele>972.216</ele>
        <time>2023-04-18T08:47:53Z</time>
      </trkpt>
      <trkpt lat="42.97424" lon="-0.81908">
        <ele>973.035</ele>
        <time>2023-04-18T08:48:00Z</time>
      </trkpt>
      <trkpt lat="42.97419" lon="-0.81911">
        <ele>974.286</ele>
        <time>2023-04-18T08:48:03Z</time>
      </trkpt>
      <trkpt lat="42.97414" lon="-0.81916">
        <ele>975.114</ele>
        <time>2023-04-18T08:48:07Z</time>
      </trkpt>
      <trkpt lat="42.97418" lon="-0.81917">
        <ele>975.909</ele>
        <time>2023-04-18T08:48:10Z</time>
      </trkpt>
      <trkpt lat="42.97413" lon="-0.81919">
        <ele>976.544</ele>
        <time>2023-04-18T08:48:20Z</time>
      </trkpt>
      <trkpt lat="42.97409" lon="-0.81922">
        <ele>977.116</ele>
        <time>2023-04-18T08:48:28Z</time>
      </trkpt>
      <trkpt lat="42.97404" lon="-0.81923">
        <ele>978.215</ele>
        <time>2023-04-18T08:48:31Z</time>
      </trkpt>
      <trkpt lat="42.97398" lon="-0.81927">
        <ele>980.123</ele>
        <time>2023-04-18T08:48:35Z</time>
      </trkpt>
      <trkpt lat="42.97392" lon="-0.81923">
        <ele>981.594</ele>
        <time>2023-04-18T08:48:44Z</time>
      </trkpt>
      <trkpt lat="42.97388" lon="-0.81921">
        <ele>982.12</ele>
        <time>2023-04-18T08:48:47Z</time>
      </trkpt>
      <trkpt lat="42.97385" lon="-0.81916">
        <ele>983.786</ele>
        <time>2023-04-18T08:48:54Z</time>
      </trkpt>
      <trkpt lat="42.9738" lon="-0.81916">
        <ele>983.837</ele>
        <time>2023-04-18T08:49:00Z</time>
      </trkpt>
      <trkpt lat="42.97376" lon="-0.81914">
        <ele>984.068</ele>
        <time>2023-04-18T08:49:10Z</time>
      </trkpt>
      <trkpt lat="42.97371" lon="-0.81913">
        <ele>984.422</ele>
        <time>2023-04-18T08:49:23Z</time>
      </trkpt>
      <trkpt lat="42.97367" lon="-0.81916">
        <ele>985.462</ele>
        <time>2023-04-18T08:49:31Z</time>
      </trkpt>
      <trkpt lat="42.97362" lon="-0.81919">
        <ele>987.308</ele>
        <time>2023-04-18T08:49:38Z</time>
      </trkpt>
      <trkpt lat="42.97357" lon="-0.81919">
        <ele>989.109</ele>
        <time>2023-04-18T08:49:47Z</time>
      </trkpt>
      <trkpt lat="42.97352" lon="-0.8192">
        <ele>990.063</ele>
        <time>2023-04-18T08:49:53Z</time>
      </trkpt>
      <trkpt lat="42.97347" lon="-0.81917">
        <ele>991.025</ele>
        <time>2023-04-18T08:50:00Z</time>
      </trkpt>
      <trkpt lat="42.97344" lon="-0.81911">
        <ele>991.984</ele>
        <time>2023-04-18T08:50:04Z</time>
      </trkpt>
      <trkpt lat="42.97339" lon="-0.81907">
        <ele>992.392</ele>
        <time>2023-04-18T08:50:12Z</time>
      </trkpt>
      <trkpt lat="42.97336" lon="-0.81901">
        <ele>992.333</ele>
        <time>2023-04-18T08:50:21Z</time>
      </trkpt>
      <trkpt lat="42.97329" lon="-0.81902">
        <ele>992.519</ele>
        <time>2023-04-18T08:50:35Z</time>
      </trkpt>
      <trkpt lat="42.97325" lon="-0.81899">
        <ele>992.565</ele>
        <time>2023-04-18T08:51:04Z</time>
      </trkpt>
      <trkpt lat="42.97321" lon="-0.81896">
        <ele>992.526</ele>
        <time>2023-04-18T08:51:12Z</time>
      </trkpt>
      <trkpt lat="42.97316" lon="-0.81895">
        <ele>992.557</ele>
        <time>2023-04-18T08:51:16Z</time>
      </trkpt>
      <trkpt lat="42.97311" lon="-0.81893">
        <ele>992.737</ele>
        <time>2023-04-18T08:51:23Z</time>
      </trkpt>
      <trkpt lat="42.97307" lon="-0.81888">
        <ele>993.249</ele>
        <time>2023-04-18T08:51:29Z</time>
      </trkpt>
      <trkpt lat="42.97301" lon="-0.81887">
        <ele>993.613</ele>
        <time>2023-04-18T08:51:39Z</time>
      </trkpt>
      <trkpt lat="42.97297" lon="-0.81885">
        <ele>993.809</ele>
        <time>2023-04-18T08:51:42Z</time>
      </trkpt>
      <trkpt lat="42.97293" lon="-0.81882">
        <ele>994.544</ele>
        <time>2023-04-18T08:52:05Z</time>
      </trkpt>
      <trkpt lat="42.97285" lon="-0.81883">
        <ele>995.716</ele>
        <time>2023-04-18T08:52:13Z</time>
      </trkpt>
      <trkpt lat="42.97282" lon="-0.81878">
        <ele>998.455</ele>
        <time>2023-04-18T08:52:18Z</time>
      </trkpt>
      <trkpt lat="42.97277" lon="-0.81874">
        <ele>999.383</ele>
        <time>2023-04-18T08:52:22Z</time>
      </trkpt>
      <trkpt lat="42.97271" lon="-0.81876">
        <ele>999.964</ele>
        <time>2023-04-18T08:52:31Z</time>
      </trkpt>
      <trkpt lat="42.97267" lon="-0.81875">
        <ele>1000.67</ele>
        <time>2023-04-18T08:52:43Z</time>
      </trkpt>
      <trkpt lat="42.97262" lon="-0.81873">
        <ele>1004.126</ele>
        <time>2023-04-18T08:52:51Z</time>
      </trkpt>
      <trkpt lat="42.97258" lon="-0.81873">
        <ele>1008.577</ele>
        <time>2023-04-18T08:52:57Z</time>
      </trkpt>
      <trkpt lat="42.97253" lon="-0.81875">
        <ele>1010.088</ele>
        <time>2023-04-18T08:53:00Z</time>
      </trkpt>
      <trkpt lat="42.97248" lon="-0.81875">
        <ele>1010.721</ele>
        <time>2023-04-18T08:53:03Z</time>
      </trkpt>
      <trkpt lat="42.97244" lon="-0.81872">
        <ele>1010.941</ele>
        <time>2023-04-18T08:53:07Z</time>
      </trkpt>
      <trkpt lat="42.9724" lon="-0.81868">
        <ele>1011.105</ele>
        <time>2023-04-18T08:53:15Z</time>
      </trkpt>
      <trkpt lat="42.97239" lon="-0.81862">
        <ele>1011.409</ele>
        <time>2023-04-18T08:53:19Z</time>
      </trkpt>
      <trkpt lat="42.97235" lon="-0.81857">
        <ele>1012.263</ele>
        <time>2023-04-18T08:53:23Z</time>
      </trkpt>
      <trkpt lat="42.97232" lon="-0.81851">
        <ele>1012.955</ele>
        <time>2023-04-18T08:53:32Z</time>
      </trkpt>
      <trkpt lat="42.97232" lon="-0.81844">
        <ele>1013.384</ele>
        <time>2023-04-18T08:53:40Z</time>
      </trkpt>
      <trkpt lat="42.97228" lon="-0.81839">
        <ele>1014.332</ele>
        <time>2023-04-18T08:54:11Z</time>
      </trkpt>
      <trkpt lat="42.97224" lon="-0.81837">
        <ele>1015.733</ele>
        <time>2023-04-18T08:54:12Z</time>
      </trkpt>
      <trkpt lat="42.97224" lon="-0.8183">
        <ele>1019.629</ele>
        <time>2023-04-18T08:54:18Z</time>
      </trkpt>
      <trkpt lat="42.97226" lon="-0.81823">
        <ele>1022.915</ele>
        <time>2023-04-18T08:54:22Z</time>
      </trkpt>
      <trkpt lat="42.97225" lon="-0.81816">
        <ele>1023.436</ele>
        <time>2023-04-18T08:54:26Z</time>
      </trkpt>
      <trkpt lat="42.97223" lon="-0.8181">
        <ele>1024.367</ele>
        <time>2023-04-18T08:54:34Z</time>
      </trkpt>
      <trkpt lat="42.97225" lon="-0.81804">
        <ele>1025.275</ele>
        <time>2023-04-18T08:54:42Z</time>
      </trkpt>
      <trkpt lat="42.9722" lon="-0.818">
        <ele>1026.328</ele>
        <time>2023-04-18T08:55:09Z</time>
      </trkpt>
      <trkpt lat="42.97216" lon="-0.81795">
        <ele>1027.62</ele>
        <time>2023-04-18T08:55:15Z</time>
      </trkpt>
      <trkpt lat="42.97214" lon="-0.81789">
        <ele>1030.209</ele>
        <time>2023-04-18T08:55:21Z</time>
      </trkpt>
      <trkpt lat="42.97218" lon="-0.81785">
        <ele>1032.538</ele>
        <time>2023-04-18T08:55:45Z</time>
      </trkpt>
      <trkpt lat="42.97216" lon="-0.81793">
        <ele>1033.35</ele>
        <time>2023-04-18T08:56:00Z</time>
      </trkpt>
      <trkpt lat="42.97211" lon="-0.81794">
        <ele>1035.979</ele>
        <time>2023-04-18T08:56:07Z</time>
      </trkpt>
      <trkpt lat="42.97206" lon="-0.81794">
        <ele>1039.237</ele>
        <time>2023-04-18T08:56:17Z</time>
      </trkpt>
      <trkpt lat="42.972" lon="-0.81791">
        <ele>1040.488</ele>
        <time>2023-04-18T08:56:23Z</time>
      </trkpt>
      <trkpt lat="42.97196" lon="-0.81788">
        <ele>1040.734</ele>
        <time>2023-04-18T08:56:28Z</time>
      </trkpt>
      <trkpt lat="42.9719" lon="-0.81789">
        <ele>1040.89</ele>
        <time>2023-04-18T08:56:32Z</time>
      </trkpt>
      <trkpt lat="42.97186" lon="-0.81786">
        <ele>1040.831</ele>
        <time>2023-04-18T08:56:37Z</time>
      </trkpt>
      <trkpt lat="42.97184" lon="-0.81779">
        <ele>1040.732</ele>
        <time>2023-04-18T08:56:48Z</time>
      </trkpt>
      <trkpt lat="42.9718" lon="-0.81782">
        <ele>1040.816</ele>
        <time>2023-04-18T08:56:55Z</time>
      </trkpt>
      <trkpt lat="42.97176" lon="-0.81784">
        <ele>1040.976</ele>
        <time>2023-04-18T08:57:00Z</time>
      </trkpt>
      <trkpt lat="42.97171" lon="-0.81789">
        <ele>1041.213</ele>
        <time>2023-04-18T08:57:06Z</time>
      </trkpt>
      <trkpt lat="42.9717" lon="-0.81783">
        <ele>1041.809</ele>
        <time>2023-04-18T08:57:13Z</time>
      </trkpt>
      <trkpt lat="42.97166" lon="-0.81785">
        <ele>1042.472</ele>
        <time>2023-04-18T08:57:15Z</time>
      </trkpt>
      <trkpt lat="42.97161" lon="-0.81786">
        <ele>1043.214</ele>
        <time>2023-04-18T08:57:24Z</time>
      </trkpt>
      <trkpt lat="42.97157" lon="-0.81785">
        <ele>1043.753</ele>
        <time>2023-04-18T08:57:39Z</time>
      </trkpt>
      <trkpt lat="42.97161" lon="-0.81781">
        <ele>1044.661</ele>
        <time>2023-04-18T08:57:42Z</time>
      </trkpt>
      <trkpt lat="42.97156" lon="-0.81783">
        <ele>1046.862</ele>
        <time>2023-04-18T08:57:50Z</time>
      </trkpt>
      <trkpt lat="42.97152" lon="-0.81785">
        <ele>1048.488</ele>
        <time>2023-04-18T08:57:55Z</time>
      </trkpt>
      <trkpt lat="42.97147" lon="-0.81787">
        <ele>1049.644</ele>
        <time>2023-04-18T08:58:05Z</time>
      </trkpt>
      <trkpt lat="42.97142" lon="-0.81787">
        <ele>1051.275</ele>
        <time>2023-04-18T08:58:16Z</time>
      </trkpt>
      <trkpt lat="42.97137" lon="-0.81788">
        <ele>1052.796</ele>
        <time>2023-04-18T08:58:23Z</time>
      </trkpt>
      <trkpt lat="42.97132" lon="-0.81788">
        <ele>1054.677</ele>
        <time>2023-04-18T08:58:32Z</time>
      </trkpt>
      <trkpt lat="42.97127" lon="-0.81789">
        <ele>1056.361</ele>
        <time>2023-04-18T08:58:37Z</time>
      </trkpt>
      <trkpt lat="42.97121" lon="-0.81788">
        <ele>1057.827</ele>
        <time>2023-04-18T08:58:44Z</time>
      </trkpt>
      <trkpt lat="42.97117" lon="-0.81786">
        <ele>1059.009</ele>
        <time>2023-04-18T08:58:49Z</time>
      </trkpt>
      <trkpt lat="42.97111" lon="-0.81786">
        <ele>1059.838</ele>
        <time>2023-04-18T08:58:58Z</time>
      </trkpt>
      <trkpt lat="42.97106" lon="-0.81786">
        <ele>1060.52</ele>
        <time>2023-04-18T08:59:07Z</time>
      </trkpt>
      <trkpt lat="42.97101" lon="-0.8179">
        <ele>1061.339</ele>
        <time>2023-04-18T08:59:16Z</time>
      </trkpt>
      <trkpt lat="42.97096" lon="-0.81791">
        <ele>1062.627</ele>
        <time>2023-04-18T08:59:29Z</time>
      </trkpt>
      <trkpt lat="42.97092" lon="-0.81793">
        <ele>1064.078</ele>
        <time>2023-04-18T08:59:32Z</time>
      </trkpt>
      <trkpt lat="42.97087" lon="-0.81791">
        <ele>1065.934</ele>
        <time>2023-04-18T08:59:46Z</time>
      </trkpt>
      <trkpt lat="42.97084" lon="-0.81796">
        <ele>1067.48</ele>
        <time>2023-04-18T08:59:54Z</time>
      </trkpt>
      <trkpt lat="42.97079" lon="-0.81799">
        <ele>1068.911</ele>
        <time>2023-04-18T09:00:03Z</time>
      </trkpt>
      <trkpt lat="42.97074" lon="-0.81802">
        <ele>1070.772</ele>
        <time>2023-04-18T09:00:12Z</time>
      </trkpt>
      <trkpt lat="42.97069" lon="-0.81801">
        <ele>1071.952</ele>
        <time>2023-04-18T09:00:19Z</time>
      </trkpt>
      <trkpt lat="42.97074" lon="-0.81804">
        <ele>1073.153</ele>
        <time>2023-04-18T09:00:47Z</time>
      </trkpt>
      <trkpt lat="42.97071" lon="-0.81798">
        <ele>1073.608</ele>
        <time>2023-04-18T09:00:57Z</time>
      </trkpt>
      <trkpt lat="42.97075" lon="-0.81802">
        <ele>1076.009</ele>
        <time>2023-04-18T09:01:27Z</time>
      </trkpt>
      <trkpt lat="42.9701" lon="-0.81807">
        <ele>1106.087</ele>
        <time>2023-04-18T09:04:25Z</time>
      </trkpt>
      <trkpt lat="42.97006" lon="-0.81804">
        <ele>1107.739</ele>
        <time>2023-04-18T09:04:33Z</time>
      </trkpt>
      <trkpt lat="42.97002" lon="-0.81805">
        <ele>1108.801</ele>
        <time>2023-04-18T09:04:39Z</time>
      </trkpt>
      <trkpt lat="42.96998" lon="-0.81802">
        <ele>1109.821</ele>
        <time>2023-04-18T09:04:48Z</time>
      </trkpt>
      <trkpt lat="42.96997" lon="-0.81796">
        <ele>1110.809</ele>
        <time>2023-04-18T09:04:55Z</time>
      </trkpt>
      <trkpt lat="42.96992" lon="-0.81791">
        <ele>1111.944</ele>
        <time>2023-04-18T09:05:03Z</time>
      </trkpt>
      <trkpt lat="42.9699" lon="-0.81784">
        <ele>1113.276</ele>
        <time>2023-04-18T09:05:08Z</time>
      </trkpt>
      <trkpt lat="42.96987" lon="-0.81789">
        <ele>1114.385</ele>
        <time>2023-04-18T09:05:22Z</time>
      </trkpt>
      <trkpt lat="42.96987" lon="-0.81783">
        <ele>1115.243</ele>
        <time>2023-04-18T09:05:32Z</time>
      </trkpt>
      <trkpt lat="42.96987" lon="-0.81776">
        <ele>1116.834</ele>
        <time>2023-04-18T09:05:42Z</time>
      </trkpt>
      <trkpt lat="42.96983" lon="-0.81773">
        <ele>1118.96</ele>
        <time>2023-04-18T09:05:49Z</time>
      </trkpt>
      <trkpt lat="42.96979" lon="-0.81776">
        <ele>1120.246</ele>
        <time>2023-04-18T09:05:53Z</time>
      </trkpt>
      <trkpt lat="42.96978" lon="-0.81782">
        <ele>1120.627</ele>
        <time>2023-04-18T09:05:58Z</time>
      </trkpt>
      <trkpt lat="42.96982" lon="-0.81779">
        <ele>1120.798</ele>
        <time>2023-04-18T09:06:05Z</time>
      </trkpt>
      <trkpt lat="42.96978" lon="-0.81776">
        <ele>1120.753</ele>
        <time>2023-04-18T09:06:12Z</time>
      </trkpt>
      <trkpt lat="42.96976" lon="-0.81782">
        <ele>1120.604</ele>
        <time>2023-04-18T09:06:19Z</time>
      </trkpt>
      <trkpt lat="42.9698" lon="-0.81776">
        <ele>1120.614</ele>
        <time>2023-04-18T09:06:25Z</time>
      </trkpt>
      <trkpt lat="42.96983" lon="-0.81771">
        <ele>1120.609</ele>
        <time>2023-04-18T09:06:30Z</time>
      </trkpt>
      <trkpt lat="42.96975" lon="-0.81766">
        <ele>1115.99</ele>
        <time>2023-04-18T09:11:23Z</time>
      </trkpt>
      <trkpt lat="42.9697" lon="-0.81762">
        <ele>1115.992</ele>
        <time>2023-04-18T09:11:30Z</time>
      </trkpt>
      <trkpt lat="42.96974" lon="-0.81768">
        <ele>1115.921</ele>
        <time>2023-04-18T09:11:35Z</time>
      </trkpt>
      <trkpt lat="42.96981" lon="-0.81771">
        <ele>1115.979</ele>
        <time>2023-04-18T09:11:44Z</time>
      </trkpt>
      <trkpt lat="42.96978" lon="-0.81767">
        <ele>1115.966</ele>
        <time>2023-04-18T09:12:43Z</time>
      </trkpt>
      <trkpt lat="42.96973" lon="-0.81769">
        <ele>1115.922</ele>
        <time>2023-04-18T09:12:52Z</time>
      </trkpt>
      <trkpt lat="42.96969" lon="-0.8177">
        <ele>1117.133</ele>
        <time>2023-04-18T09:13:07Z</time>
      </trkpt>
      <trkpt lat="42.96968" lon="-0.81763">
        <ele>1118.194</ele>
        <time>2023-04-18T09:13:16Z</time>
      </trkpt>
      <trkpt lat="42.96961" lon="-0.81762">
        <ele>1120.572</ele>
        <time>2023-04-18T09:13:20Z</time>
      </trkpt>
      <trkpt lat="42.96959" lon="-0.81757">
        <ele>1122.913</ele>
        <time>2023-04-18T09:13:24Z</time>
      </trkpt>
      <trkpt lat="42.9696" lon="-0.81751">
        <ele>1123.914</ele>
        <time>2023-04-18T09:13:29Z</time>
      </trkpt>
      <trkpt lat="42.96955" lon="-0.81753">
        <ele>1124.009</ele>
        <time>2023-04-18T09:13:36Z</time>
      </trkpt>
      <trkpt lat="42.9695" lon="-0.81753">
        <ele>1124.368</ele>
        <time>2023-04-18T09:13:47Z</time>
      </trkpt>
      <trkpt lat="42.96944" lon="-0.81753">
        <ele>1124.81</ele>
        <time>2023-04-18T09:13:56Z</time>
      </trkpt>
      <trkpt lat="42.9694" lon="-0.81749">
        <ele>1125.859</ele>
        <time>2023-04-18T09:14:03Z</time>
      </trkpt>
      <trkpt lat="42.96874" lon="-0.81736">
        <ele>1132.903</ele>
        <time>2023-04-18T09:16:53Z</time>
      </trkpt>
      <trkpt lat="42.96867" lon="-0.81742">
        <ele>1132.923</ele>
        <time>2023-04-18T09:17:06Z</time>
      </trkpt>
      <trkpt lat="42.96862" lon="-0.81743">
        <ele>1132.909</ele>
        <time>2023-04-18T09:17:13Z</time>
      </trkpt>
      <trkpt lat="42.96856" lon="-0.81746">
        <ele>1134.186</ele>
        <time>2023-04-18T09:17:31Z</time>
      </trkpt>
      <trkpt lat="42.96852" lon="-0.81749">
        <ele>1134.288</ele>
        <time>2023-04-18T09:17:33Z</time>
      </trkpt>
      <trkpt lat="42.96847" lon="-0.81749">
        <ele>1136.787</ele>
        <time>2023-04-18T09:17:36Z</time>
      </trkpt>
      <trkpt lat="42.96843" lon="-0.81747">
        <ele>1136.735</ele>
        <time>2023-04-18T09:17:40Z</time>
      </trkpt>
      <trkpt lat="42.96845" lon="-0.8174">
        <ele>1136.776</ele>
        <time>2023-04-18T09:17:45Z</time>
      </trkpt>
      <trkpt lat="42.9684" lon="-0.81741">
        <ele>1136.762</ele>
        <time>2023-04-18T09:17:52Z</time>
      </trkpt>
      <trkpt lat="42.96836" lon="-0.81746">
        <ele>1136.968</ele>
        <time>2023-04-18T09:17:55Z</time>
      </trkpt>
      <trkpt lat="42.96831" lon="-0.81749">
        <ele>1137.169</ele>
        <time>2023-04-18T09:18:11Z</time>
      </trkpt>
      <trkpt lat="42.96826" lon="-0.8175">
        <ele>1137.37</ele>
        <time>2023-04-18T09:18:20Z</time>
      </trkpt>
      <trkpt lat="42.96821" lon="-0.81754">
        <ele>1138.437</ele>
        <time>2023-04-18T09:18:28Z</time>
      </trkpt>
      <trkpt lat="42.96816" lon="-0.81756">
        <ele>1140.149</ele>
        <time>2023-04-18T09:18:31Z</time>
      </trkpt>
      <trkpt lat="42.96811" lon="-0.81759">
        <ele>1141.413</ele>
        <time>2023-04-18T09:18:37Z</time>
      </trkpt>
      <trkpt lat="42.96807" lon="-0.81764">
        <ele>1142.209</ele>
        <time>2023-04-18T09:18:54Z</time>
      </trkpt>
      <trkpt lat="42.96801" lon="-0.81765">
        <ele>1143.294</ele>
        <time>2023-04-18T09:19:12Z</time>
      </trkpt>
      <trkpt lat="42.96796" lon="-0.81765">
        <ele>1144.466</ele>
        <time>2023-04-18T09:19:15Z</time>
      </trkpt>
      <trkpt lat="42.96791" lon="-0.81759">
        <ele>1147.895</ele>
        <time>2023-04-18T09:19:20Z</time>
      </trkpt>
      <trkpt lat="42.96785" lon="-0.81758">
        <ele>1147.863</ele>
        <time>2023-04-18T09:19:23Z</time>
      </trkpt>
      <trkpt lat="42.96782" lon="-0.81752">
        <ele>1147.874</ele>
        <time>2023-04-18T09:19:29Z</time>
      </trkpt>
      <trkpt lat="42.96779" lon="-0.81747">
        <ele>1147.82</ele>
        <time>2023-04-18T09:19:33Z</time>
      </trkpt>
      <trkpt lat="42.96773" lon="-0.81745">
        <ele>1147.816</ele>
        <time>2023-04-18T09:19:38Z</time>
      </trkpt>
      <trkpt lat="42.96769" lon="-0.8174">
        <ele>1147.867</ele>
        <time>2023-04-18T09:19:52Z</time>
      </trkpt>
      <trkpt lat="42.96765" lon="-0.81742">
        <ele>1147.918</ele>
        <time>2023-04-18T09:19:58Z</time>
      </trkpt>
      <trkpt lat="42.96759" lon="-0.81743">
        <ele>1148.265</ele>
        <time>2023-04-18T09:20:02Z</time>
      </trkpt>
      <trkpt lat="42.96754" lon="-0.81744">
        <ele>1148.468</ele>
        <time>2023-04-18T09:20:15Z</time>
      </trkpt>
      <trkpt lat="42.96749" lon="-0.81746">
        <ele>1148.714</ele>
        <time>2023-04-18T09:20:23Z</time>
      </trkpt>
      <trkpt lat="42.96743" lon="-0.81743">
        <ele>1149.209</ele>
        <time>2023-04-18T09:20:30Z</time>
      </trkpt>
      <trkpt lat="42.96739" lon="-0.81742">
        <ele>1150.027</ele>
        <time>2023-04-18T09:20:34Z</time>
      </trkpt>
      <trkpt lat="42.96735" lon="-0.81737">
        <ele>1151.139</ele>
        <time>2023-04-18T09:20:42Z</time>
      </trkpt>
      <trkpt lat="42.96738" lon="-0.81733">
        <ele>1152.028</ele>
        <time>2023-04-18T09:20:50Z</time>
      </trkpt>
      <trkpt lat="42.96733" lon="-0.81734">
        <ele>1152.916</ele>
        <time>2023-04-18T09:20:55Z</time>
      </trkpt>
      <trkpt lat="42.96727" lon="-0.81734">
        <ele>1154.147</ele>
        <time>2023-04-18T09:21:00Z</time>
      </trkpt>
      <trkpt lat="42.96722" lon="-0.81735">
        <ele>1155.183</ele>
        <time>2023-04-18T09:21:08Z</time>
      </trkpt>
      <trkpt lat="42.96717" lon="-0.81737">
        <ele>1156.049</ele>
        <time>2023-04-18T09:21:18Z</time>
      </trkpt>
      <trkpt lat="42.96721" lon="-0.81734">
        <ele>1157.31</ele>
        <time>2023-04-18T09:21:30Z</time>
      </trkpt>
      <trkpt lat="42.96723" lon="-0.81726">
        <ele>1159.161</ele>
        <time>2023-04-18T09:21:43Z</time>
      </trkpt>
      <trkpt lat="42.96716" lon="-0.81731">
        <ele>1159.127</ele>
        <time>2023-04-18T09:21:51Z</time>
      </trkpt>
      <trkpt lat="42.96711" lon="-0.81728">
        <ele>1160.468</ele>
        <time>2023-04-18T09:21:57Z</time>
      </trkpt>
      <trkpt lat="42.96704" lon="-0.81727">
        <ele>1160.514</ele>
        <time>2023-04-18T09:22:09Z</time>
      </trkpt>
      <trkpt lat="42.96707" lon="-0.81721">
        <ele>1161.409</ele>
        <time>2023-04-18T09:22:11Z</time>
      </trkpt>
      <trkpt lat="42.96702" lon="-0.81721">
        <ele>1163.353</ele>
        <time>2023-04-18T09:22:14Z</time>
      </trkpt>
      <trkpt lat="42.96696" lon="-0.81723">
        <ele>1163.485</ele>
        <time>2023-04-18T09:22:17Z</time>
      </trkpt>
      <trkpt lat="42.96691" lon="-0.8172">
        <ele>1164.024</ele>
        <time>2023-04-18T09:22:24Z</time>
      </trkpt>
      <trkpt lat="42.96687" lon="-0.81715">
        <ele>1164.222</ele>
        <time>2023-04-18T09:22:36Z</time>
      </trkpt>
      <trkpt lat="42.9668" lon="-0.81716">
        <ele>1175.523</ele>
        <time>2023-04-18T09:22:42Z</time>
      </trkpt>
      <trkpt lat="42.96674" lon="-0.81718">
        <ele>1177.749</ele>
        <time>2023-04-18T09:22:51Z</time>
      </trkpt>
      <trkpt lat="42.9667" lon="-0.81718">
        <ele>1179.025</ele>
        <time>2023-04-18T09:22:53Z</time>
      </trkpt>
      <trkpt lat="42.96674" lon="-0.81711">
        <ele>1180.756</ele>
        <time>2023-04-18T09:23:02Z</time>
      </trkpt>
      <trkpt lat="42.96668" lon="-0.81712">
        <ele>1180.847</ele>
        <time>2023-04-18T09:23:05Z</time>
      </trkpt>
      <trkpt lat="42.96663" lon="-0.81715">
        <ele>1182.262</ele>
        <time>2023-04-18T09:23:10Z</time>
      </trkpt>
      <trkpt lat="42.96661" lon="-0.8171">
        <ele>1182.483</ele>
        <time>2023-04-18T09:23:19Z</time>
      </trkpt>
      <trkpt lat="42.96658" lon="-0.81704">
        <ele>1183.311</ele>
        <time>2023-04-18T09:23:37Z</time>
      </trkpt>
      <trkpt lat="42.96652" lon="-0.81707">
        <ele>1184.809</ele>
        <time>2023-04-18T09:23:42Z</time>
      </trkpt>
      <trkpt lat="42.96649" lon="-0.81702">
        <ele>1186.357</ele>
        <time>2023-04-18T09:23:47Z</time>
      </trkpt>
      <trkpt lat="42.96649" lon="-0.81695">
        <ele>1188.159</ele>
        <time>2023-04-18T09:23:57Z</time>
      </trkpt>
      <trkpt lat="42.96644" lon="-0.81696">
        <ele>1188.688</ele>
        <time>2023-04-18T09:24:01Z</time>
      </trkpt>
      <trkpt lat="42.9664" lon="-0.81699">
        <ele>1189.566</ele>
        <time>2023-04-18T09:24:05Z</time>
      </trkpt>
      <trkpt lat="42.96646" lon="-0.81694">
        <ele>1190.537</ele>
        <time>2023-04-18T09:24:10Z</time>
      </trkpt>
      <trkpt lat="42.9664" lon="-0.81696">
        <ele>1191.283</ele>
        <time>2023-04-18T09:24:21Z</time>
      </trkpt>
      <trkpt lat="42.96635" lon="-0.81694">
        <ele>1191.979</ele>
        <time>2023-04-18T09:24:25Z</time>
      </trkpt>
      <trkpt lat="42.96629" lon="-0.81695">
        <ele>1193.77</ele>
        <time>2023-04-18T09:24:29Z</time>
      </trkpt>
      <trkpt lat="42.96626" lon="-0.81691">
        <ele>1194.181</ele>
        <time>2023-04-18T09:24:37Z</time>
      </trkpt>
      <trkpt lat="42.96622" lon="-0.81687">
        <ele>1194.178</ele>
        <time>2023-04-18T09:24:45Z</time>
      </trkpt>
      <trkpt lat="42.96616" lon="-0.81687">
        <ele>1194.733</ele>
        <time>2023-04-18T09:24:52Z</time>
      </trkpt>
      <trkpt lat="42.9662" lon="-0.81682">
        <ele>1196.226</ele>
        <time>2023-04-18T09:24:57Z</time>
      </trkpt>
      <trkpt lat="42.96616" lon="-0.81687">
        <ele>1196.709</ele>
        <time>2023-04-18T09:24:59Z</time>
      </trkpt>
      <trkpt lat="42.96611" lon="-0.81687">
        <ele>1197.898</ele>
        <time>2023-04-18T09:25:05Z</time>
      </trkpt>
      <trkpt lat="42.96614" lon="-0.81682">
        <ele>1198.37</ele>
        <time>2023-04-18T09:25:08Z</time>
      </trkpt>
      <trkpt lat="42.96612" lon="-0.81675">
        <ele>1198.999</ele>
        <time>2023-04-18T09:25:16Z</time>
      </trkpt>
      <trkpt lat="42.96607" lon="-0.81673">
        <ele>1199.117</ele>
        <time>2023-04-18T09:25:20Z</time>
      </trkpt>
      <trkpt lat="42.96608" lon="-0.81667">
        <ele>1199.628</ele>
        <time>2023-04-18T09:25:33Z</time>
      </trkpt>
      <trkpt lat="42.96604" lon="-0.81663">
        <ele>1200.594</ele>
        <time>2023-04-18T09:25:49Z</time>
      </trkpt>
      <trkpt lat="42.96599" lon="-0.81666">
        <ele>1201.81</ele>
        <time>2023-04-18T09:25:51Z</time>
      </trkpt>
      <trkpt lat="42.96598" lon="-0.81659">
        <ele>1203.951</ele>
        <time>2023-04-18T09:26:00Z</time>
      </trkpt>
      <trkpt lat="42.96595" lon="-0.81655">
        <ele>1205.252</ele>
        <time>2023-04-18T09:26:11Z</time>
      </trkpt>
      <trkpt lat="42.96604" lon="-0.81649">
        <ele>1206.749</ele>
        <time>2023-04-18T09:26:20Z</time>
      </trkpt>
      <trkpt lat="42.96596" lon="-0.8165">
        <ele>1208.702</ele>
        <time>2023-04-18T09:26:21Z</time>
      </trkpt>
      <trkpt lat="42.96594" lon="-0.81644">
        <ele>1209.322</ele>
        <time>2023-04-18T09:26:38Z</time>
      </trkpt>
      <trkpt lat="42.96589" lon="-0.81644">
        <ele>1209.909</ele>
        <time>2023-04-18T09:26:59Z</time>
      </trkpt>
      <trkpt lat="42.96584" lon="-0.8164">
        <ele>1210.425</ele>
        <time>2023-04-18T09:27:04Z</time>
      </trkpt>
      <trkpt lat="42.96583" lon="-0.81633">
        <ele>1212.377</ele>
        <time>2023-04-18T09:27:13Z</time>
      </trkpt>
      <trkpt lat="42.96582" lon="-0.81627">
        <ele>1212.686</ele>
        <time>2023-04-18T09:27:20Z</time>
      </trkpt>
      <trkpt lat="42.96581" lon="-0.81621">
        <ele>1212.984</ele>
        <time>2023-04-18T09:27:26Z</time>
      </trkpt>
      <trkpt lat="42.96577" lon="-0.81616">
        <ele>1213.085</ele>
        <time>2023-04-18T09:27:35Z</time>
      </trkpt>
      <trkpt lat="42.96582" lon="-0.81617">
        <ele>1213.471</ele>
        <time>2023-04-18T09:27:41Z</time>
      </trkpt>
      <trkpt lat="42.96577" lon="-0.81618">
        <ele>1214.317</ele>
        <time>2023-04-18T09:27:42Z</time>
      </trkpt>
      <trkpt lat="42.96571" lon="-0.81616">
        <ele>1215.868</ele>
        <time>2023-04-18T09:27:47Z</time>
      </trkpt>
      <trkpt lat="42.96566" lon="-0.81617">
        <ele>1216.939</ele>
        <time>2023-04-18T09:27:56Z</time>
      </trkpt>
      <trkpt lat="42.96562" lon="-0.81616">
        <ele>1217.325</ele>
        <time>2023-04-18T09:28:01Z</time>
      </trkpt>
      <trkpt lat="42.96557" lon="-0.81615">
        <ele>1218.426</ele>
        <time>2023-04-18T09:28:18Z</time>
      </trkpt>
      <trkpt lat="42.96552" lon="-0.81617">
        <ele>1219.608</ele>
        <time>2023-04-18T09:28:22Z</time>
      </trkpt>
      <trkpt lat="42.96546" lon="-0.81618">
        <ele>1221.209</ele>
        <time>2023-04-18T09:28:34Z</time>
      </trkpt>
      <trkpt lat="42.96541" lon="-0.81619">
        <ele>1222.623</ele>
        <time>2023-04-18T09:28:40Z</time>
      </trkpt>
      <trkpt lat="42.96535" lon="-0.8162">
        <ele>1223.575</ele>
        <time>2023-04-18T09:28:44Z</time>
      </trkpt>
      <trkpt lat="42.96531" lon="-0.8162">
        <ele>1224.874</ele>
        <time>2023-04-18T09:29:09Z</time>
      </trkpt>
      <trkpt lat="42.96524" lon="-0.81622">
        <ele>1225.842</ele>
        <time>2023-04-18T09:29:12Z</time>
      </trkpt>
      <trkpt lat="42.96521" lon="-0.81618">
        <ele>1227.643</ele>
        <time>2023-04-18T09:29:19Z</time>
      </trkpt>
      <trkpt lat="42.96515" lon="-0.81616">
        <ele>1229.939</ele>
        <time>2023-04-18T09:29:39Z</time>
      </trkpt>
      <trkpt lat="42.9652" lon="-0.81619">
        <ele>1230.375</ele>
        <time>2023-04-18T09:29:53Z</time>
      </trkpt>
      <trkpt lat="42.96519" lon="-0.81625">
        <ele>1232.156</ele>
        <time>2023-04-18T09:30:09Z</time>
      </trkpt>
      <trkpt lat="42.96514" lon="-0.81629">
        <ele>1234.467</ele>
        <time>2023-04-18T09:30:12Z</time>
      </trkpt>
      <trkpt lat="42.96511" lon="-0.81634">
        <ele>1236.665</ele>
        <time>2023-04-18T09:30:17Z</time>
      </trkpt>
      <trkpt lat="42.96507" lon="-0.81639">
        <ele>1237.868</ele>
        <time>2023-04-18T09:30:24Z</time>
      </trkpt>
      <trkpt lat="42.96503" lon="-0.81641">
        <ele>1237.814</ele>
        <time>2023-04-18T09:30:29Z</time>
      </trkpt>
      <trkpt lat="42.96499" lon="-0.81645">
        <ele>1237.909</ele>
        <time>2023-04-18T09:30:37Z</time>
      </trkpt>
      <trkpt lat="42.96494" lon="-0.81648">
        <ele>1237.927</ele>
        <time>2023-04-18T09:30:41Z</time>
      </trkpt>
      <trkpt lat="42.9649" lon="-0.81651">
        <ele>1237.929</ele>
        <time>2023-04-18T09:30:48Z</time>
      </trkpt>
      <trkpt lat="42.96484" lon="-0.81654">
        <ele>1238.228</ele>
        <time>2023-04-18T09:30:52Z</time>
      </trkpt>
      <trkpt lat="42.96479" lon="-0.81657">
        <ele>1238.636</ele>
        <time>2023-04-18T09:30:56Z</time>
      </trkpt>
      <trkpt lat="42.96474" lon="-0.81658">
        <ele>1239.187</ele>
        <time>2023-04-18T09:31:00Z</time>
      </trkpt>
      <trkpt lat="42.9647" lon="-0.81662">
        <ele>1239.583</ele>
        <time>2023-04-18T09:31:11Z</time>
      </trkpt>
      <trkpt lat="42.96465" lon="-0.81666">
        <ele>1240.159</ele>
        <time>2023-04-18T09:31:20Z</time>
      </trkpt>
      <trkpt lat="42.9646" lon="-0.8167">
        <ele>1240.79</ele>
        <time>2023-04-18T09:31:25Z</time>
      </trkpt>
      <trkpt lat="42.96455" lon="-0.81671">
        <ele>1242.041</ele>
        <time>2023-04-18T09:31:29Z</time>
      </trkpt>
      <trkpt lat="42.9645" lon="-0.81673">
        <ele>1243.088</ele>
        <time>2023-04-18T09:31:32Z</time>
      </trkpt>
      <trkpt lat="42.96445" lon="-0.81674">
        <ele>1243.424</ele>
        <time>2023-04-18T09:31:40Z</time>
      </trkpt>
      <trkpt lat="42.9644" lon="-0.81675">
        <ele>1243.426</ele>
        <time>2023-04-18T09:31:48Z</time>
      </trkpt>
      <trkpt lat="42.96434" lon="-0.8168">
        <ele>1244.209</ele>
        <time>2023-04-18T09:32:09Z</time>
      </trkpt>
      <trkpt lat="42.96429" lon="-0.81683">
        <ele>1245.489</ele>
        <time>2023-04-18T09:32:13Z</time>
      </trkpt>
      <trkpt lat="42.96424" lon="-0.81683">
        <ele>1248.081</ele>
        <time>2023-04-18T09:32:22Z</time>
      </trkpt>
      <trkpt lat="42.96419" lon="-0.81684">
        <ele>1248.73</ele>
        <time>2023-04-18T09:32:26Z</time>
      </trkpt>
      <trkpt lat="42.96414" lon="-0.81686">
        <ele>1250.138</ele>
        <time>2023-04-18T09:32:37Z</time>
      </trkpt>
      <trkpt lat="42.9641" lon="-0.8169">
        <ele>1250.319</ele>
        <time>2023-04-18T09:32:53Z</time>
      </trkpt>
      <trkpt lat="42.96405" lon="-0.8169">
        <ele>1251.375</ele>
        <time>2023-04-18T09:33:02Z</time>
      </trkpt>
      <trkpt lat="42.964" lon="-0.81694">
        <ele>1253.581</ele>
        <time>2023-04-18T09:33:08Z</time>
      </trkpt>
      <trkpt lat="42.96399" lon="-0.81699">
        <ele>1255.732</ele>
        <time>2023-04-18T09:33:26Z</time>
      </trkpt>
      <trkpt lat="42.96396" lon="-0.81695">
        <ele>1256.663</ele>
        <time>2023-04-18T09:33:38Z</time>
      </trkpt>
      <trkpt lat="42.96393" lon="-0.81701">
        <ele>1258.245</ele>
        <time>2023-04-18T09:34:06Z</time>
      </trkpt>
      <trkpt lat="42.96388" lon="-0.81702">
        <ele>1260.547</ele>
        <time>2023-04-18T09:34:18Z</time>
      </trkpt>
      <trkpt lat="42.96385" lon="-0.81708">
        <ele>1263.611</ele>
        <time>2023-04-18T09:34:29Z</time>
      </trkpt>
      <trkpt lat="42.96385" lon="-0.81714">
        <ele>1266.509</ele>
        <time>2023-04-18T09:34:43Z</time>
      </trkpt>
      <trkpt lat="42.96381" lon="-0.81717">
        <ele>1268.195</ele>
        <time>2023-04-18T09:34:49Z</time>
      </trkpt>
      <trkpt lat="42.96377" lon="-0.81713">
        <ele>1269.947</ele>
        <time>2023-04-18T09:35:10Z</time>
      </trkpt>
      <trkpt lat="42.96381" lon="-0.81713">
        <ele>1271.346</ele>
        <time>2023-04-18T09:35:48Z</time>
      </trkpt>
      <trkpt lat="42.96386" lon="-0.81718">
        <ele>1273.214</ele>
        <time>2023-04-18T09:36:02Z</time>
      </trkpt>
      <trkpt lat="42.96389" lon="-0.81723">
        <ele>1275.265</ele>
        <time>2023-04-18T09:36:13Z</time>
      </trkpt>
      <trkpt lat="42.96382" lon="-0.81712">
        <ele>1278.891</ele>
        <time>2023-04-18T09:36:55Z</time>
      </trkpt>
      <trkpt lat="42.96381" lon="-0.8172">
        <ele>1282.817</ele>
        <time>2023-04-18T09:37:00Z</time>
      </trkpt>
      <trkpt lat="42.96376" lon="-0.81712">
        <ele>1283.978</ele>
        <time>2023-04-18T09:37:08Z</time>
      </trkpt>
      <trkpt lat="42.96374" lon="-0.81722">
        <ele>1278.355</ele>
        <time>2023-04-18T09:40:45Z</time>
      </trkpt>
      <trkpt lat="42.96375" lon="-0.81729">
        <ele>1278.31</ele>
        <time>2023-04-18T09:40:48Z</time>
      </trkpt>
      <trkpt lat="42.96377" lon="-0.81737">
        <ele>1278.009</ele>
        <time>2023-04-18T09:40:51Z</time>
      </trkpt>
      <trkpt lat="42.96373" lon="-0.81733">
        <ele>1278.054</ele>
        <time>2023-04-18T09:40:54Z</time>
      </trkpt>
      <trkpt lat="42.96374" lon="-0.81743">
        <ele>1278.046</ele>
        <time>2023-04-18T09:40:59Z</time>
      </trkpt>
      <trkpt lat="42.96377" lon="-0.81747">
        <ele>1278.655</ele>
        <time>2023-04-18T09:41:15Z</time>
      </trkpt>
      <trkpt lat="42.96374" lon="-0.81752">
        <ele>1279.053</ele>
        <time>2023-04-18T09:41:22Z</time>
      </trkpt>
      <trkpt lat="42.96367" lon="-0.81757">
        <ele>1282.944</ele>
        <time>2023-04-18T09:41:40Z</time>
      </trkpt>
      <trkpt lat="42.96372" lon="-0.81758">
        <ele>1284.12</ele>
        <time>2023-04-18T09:41:45Z</time>
      </trkpt>
      <trkpt lat="42.96369" lon="-0.81762">
        <ele>1287.496</ele>
        <time>2023-04-18T09:42:00Z</time>
      </trkpt>
      <trkpt lat="42.96364" lon="-0.81762">
        <ele>1287.727</ele>
        <time>2023-04-18T09:42:04Z</time>
      </trkpt>
      <trkpt lat="42.96359" lon="-0.81767">
        <ele>1290.238</ele>
        <time>2023-04-18T09:42:15Z</time>
      </trkpt>
      <trkpt lat="42.96356" lon="-0.81772">
        <ele>1290.441</ele>
        <time>2023-04-18T09:42:22Z</time>
      </trkpt>
      <trkpt lat="42.96355" lon="-0.81778">
        <ele>1291.381</ele>
        <time>2023-04-18T09:42:33Z</time>
      </trkpt>
      <trkpt lat="42.96353" lon="-0.81785">
        <ele>1292.109</ele>
        <time>2023-04-18T09:42:48Z</time>
      </trkpt>
      <trkpt lat="42.96349" lon="-0.8179">
        <ele>1292.709</ele>
        <time>2023-04-18T09:43:00Z</time>
      </trkpt>
      <trkpt lat="42.96346" lon="-0.81795">
        <ele>1294.045</ele>
        <time>2023-04-18T09:43:07Z</time>
      </trkpt>
      <trkpt lat="42.96345" lon="-0.81802">
        <ele>1295.397</ele>
        <time>2023-04-18T09:43:13Z</time>
      </trkpt>
      <trkpt lat="42.96343" lon="-0.81809">
        <ele>1296.626</ele>
        <time>2023-04-18T09:43:20Z</time>
      </trkpt>
      <trkpt lat="42.96341" lon="-0.81815">
        <ele>1298.024</ele>
        <time>2023-04-18T09:43:34Z</time>
      </trkpt>
      <trkpt lat="42.96337" lon="-0.81819">
        <ele>1299.185</ele>
        <time>2023-04-18T09:43:42Z</time>
      </trkpt>
      <trkpt lat="42.96332" lon="-0.81823">
        <ele>1300.221</ele>
        <time>2023-04-18T09:43:57Z</time>
      </trkpt>
      <trkpt lat="42.9633" lon="-0.81829">
        <ele>1301.377</ele>
        <time>2023-04-18T09:44:03Z</time>
      </trkpt>
      <trkpt lat="42.96328" lon="-0.81835">
        <ele>1301.818</ele>
        <time>2023-04-18T09:44:08Z</time>
      </trkpt>
      <trkpt lat="42.96325" lon="-0.81841">
        <ele>1302.019</ele>
        <time>2023-04-18T09:44:16Z</time>
      </trkpt>
      <trkpt lat="42.96319" lon="-0.81841">
        <ele>1302.254</ele>
        <time>2023-04-18T09:44:23Z</time>
      </trkpt>
      <trkpt lat="42.96314" lon="-0.81845">
        <ele>1302.556</ele>
        <time>2023-04-18T09:44:34Z</time>
      </trkpt>
      <trkpt lat="42.96309" lon="-0.81847">
        <ele>1302.811</ele>
        <time>2023-04-18T09:44:39Z</time>
      </trkpt>
      <trkpt lat="42.96304" lon="-0.8185">
        <ele>1303.509</ele>
        <time>2023-04-18T09:44:47Z</time>
      </trkpt>
      <trkpt lat="42.96301" lon="-0.81854">
        <ele>1303.896</ele>
        <time>2023-04-18T09:45:02Z</time>
      </trkpt>
      <trkpt lat="42.96299" lon="-0.81859">
        <ele>1304.618</ele>
        <time>2023-04-18T09:45:12Z</time>
      </trkpt>
      <trkpt lat="42.96297" lon="-0.81865">
        <ele>1306.037</ele>
        <time>2023-04-18T09:45:26Z</time>
      </trkpt>
      <trkpt lat="42.96292" lon="-0.81868">
        <ele>1307.785</ele>
        <time>2023-04-18T09:45:31Z</time>
      </trkpt>
      <trkpt lat="42.96287" lon="-0.81868">
        <ele>1309.636</ele>
        <time>2023-04-18T09:45:34Z</time>
      </trkpt>
      <trkpt lat="42.96281" lon="-0.81864">
        <ele>1311.292</ele>
        <time>2023-04-18T09:46:00Z</time>
      </trkpt>
      <trkpt lat="42.96278" lon="-0.8187">
        <ele>1311.978</ele>
        <time>2023-04-18T09:46:19Z</time>
      </trkpt>
      <trkpt lat="42.96273" lon="-0.81873">
        <ele>1312.249</ele>
        <time>2023-04-18T09:46:24Z</time>
      </trkpt>
      <trkpt lat="42.9627" lon="-0.81879">
        <ele>1315.76</ele>
        <time>2023-04-18T09:46:32Z</time>
      </trkpt>
      <trkpt lat="42.96265" lon="-0.81881">
        <ele>1315.946</ele>
        <time>2023-04-18T09:46:37Z</time>
      </trkpt>
      <trkpt lat="42.96259" lon="-0.81882">
        <ele>1316.988</ele>
        <time>2023-04-18T09:46:40Z</time>
      </trkpt>
      <trkpt lat="42.96254" lon="-0.81882">
        <ele>1318.116</ele>
        <time>2023-04-18T09:46:46Z</time>
      </trkpt>
      <trkpt lat="42.96246" lon="-0.81879">
        <ele>1318.509</ele>
        <time>2023-04-18T09:47:03Z</time>
      </trkpt>
      <trkpt lat="42.96241" lon="-0.81881">
        <ele>1319.735</ele>
        <time>2023-04-18T09:47:12Z</time>
      </trkpt>
      <trkpt lat="42.96246" lon="-0.81884">
        <ele>1320.257</ele>
        <time>2023-04-18T09:47:18Z</time>
      </trkpt>
      <trkpt lat="42.96241" lon="-0.81885">
        <ele>1321.736</ele>
        <time>2023-04-18T09:47:22Z</time>
      </trkpt>
      <trkpt lat="42.96235" lon="-0.81886">
        <ele>1322.664</ele>
        <time>2023-04-18T09:47:28Z</time>
      </trkpt>
      <trkpt lat="42.9623" lon="-0.81888">
        <ele>1323.125</ele>
        <time>2023-04-18T09:47:35Z</time>
      </trkpt>
      <trkpt lat="42.96225" lon="-0.81889">
        <ele>1323.981</ele>
        <time>2023-04-18T09:47:45Z</time>
      </trkpt>
      <trkpt lat="42.96219" lon="-0.81886">
        <ele>1325.567</ele>
        <time>2023-04-18T09:47:55Z</time>
      </trkpt>
      <trkpt lat="42.96215" lon="-0.81891">
        <ele>1327.138</ele>
        <time>2023-04-18T09:48:05Z</time>
      </trkpt>
      <trkpt lat="42.9621" lon="-0.81892">
        <ele>1327.669</ele>
        <time>2023-04-18T09:48:13Z</time>
      </trkpt>
      <trkpt lat="42.96205" lon="-0.81895">
        <ele>1328.294</ele>
        <time>2023-04-18T09:48:26Z</time>
      </trkpt>
      <trkpt lat="42.96202" lon="-0.81899">
        <ele>1329.357</ele>
        <time>2023-04-18T09:48:38Z</time>
      </trkpt>
      <trkpt lat="42.96197" lon="-0.819">
        <ele>1330.422</ele>
        <time>2023-04-18T09:48:48Z</time>
      </trkpt>
      <trkpt lat="42.96192" lon="-0.81904">
        <ele>1332.409</ele>
        <time>2023-04-18T09:49:01Z</time>
      </trkpt>
      <trkpt lat="42.96187" lon="-0.81905">
        <ele>1333.86</ele>
        <time>2023-04-18T09:49:22Z</time>
      </trkpt>
      <trkpt lat="42.96182" lon="-0.81905">
        <ele>1335.522</ele>
        <time>2023-04-18T09:49:26Z</time>
      </trkpt>
      <trkpt lat="42.96178" lon="-0.81907">
        <ele>1338.111</ele>
        <time>2023-04-18T09:49:31Z</time>
      </trkpt>
      <trkpt lat="42.96174" lon="-0.81904">
        <ele>1339.569</ele>
        <time>2023-04-18T09:49:41Z</time>
      </trkpt>
      <trkpt lat="42.96169" lon="-0.81902">
        <ele>1340.09</ele>
        <time>2023-04-18T09:49:52Z</time>
      </trkpt>
      <trkpt lat="42.96172" lon="-0.81907">
        <ele>1341.066</ele>
        <time>2023-04-18T09:49:57Z</time>
      </trkpt>
      <trkpt lat="42.96172" lon="-0.81913">
        <ele>1341.692</ele>
        <time>2023-04-18T09:50:14Z</time>
      </trkpt>
      <trkpt lat="42.9617" lon="-0.81919">
        <ele>1342.113</ele>
        <time>2023-04-18T09:50:28Z</time>
      </trkpt>
      <trkpt lat="42.96167" lon="-0.81923">
        <ele>1344.164</ele>
        <time>2023-04-18T09:50:42Z</time>
      </trkpt>
      <trkpt lat="42.96166" lon="-0.8193">
        <ele>1346.553</ele>
        <time>2023-04-18T09:50:58Z</time>
      </trkpt>
      <trkpt lat="42.96162" lon="-0.81932">
        <ele>1348.104</ele>
        <time>2023-04-18T09:51:04Z</time>
      </trkpt>
      <trkpt lat="42.96158" lon="-0.81935">
        <ele>1348.914</ele>
        <time>2023-04-18T09:51:09Z</time>
      </trkpt>
      <trkpt lat="42.96155" lon="-0.81941">
        <ele>1349.409</ele>
        <time>2023-04-18T09:51:21Z</time>
      </trkpt>
      <trkpt lat="42.96151" lon="-0.81945">
        <ele>1350.526</ele>
        <time>2023-04-18T09:51:27Z</time>
      </trkpt>
      <trkpt lat="42.96147" lon="-0.8195">
        <ele>1352.038</ele>
        <time>2023-04-18T09:51:42Z</time>
      </trkpt>
      <trkpt lat="42.96142" lon="-0.81951">
        <ele>1353.557</ele>
        <time>2023-04-18T09:51:49Z</time>
      </trkpt>
      <trkpt lat="42.9614" lon="-0.81957">
        <ele>1355.275</ele>
        <time>2023-04-18T09:52:08Z</time>
      </trkpt>
      <trkpt lat="42.96136" lon="-0.8196">
        <ele>1356.776</ele>
        <time>2023-04-18T09:52:19Z</time>
      </trkpt>
      <trkpt lat="42.96131" lon="-0.81961">
        <ele>1358.572</ele>
        <time>2023-04-18T09:52:28Z</time>
      </trkpt>
      <trkpt lat="42.96136" lon="-0.81964">
        <ele>1360.618</ele>
        <time>2023-04-18T09:52:37Z</time>
      </trkpt>
      <trkpt lat="42.96131" lon="-0.81965">
        <ele>1362.249</ele>
        <time>2023-04-18T09:52:47Z</time>
      </trkpt>
      <trkpt lat="42.96128" lon="-0.81971">
        <ele>1363.43</ele>
        <time>2023-04-18T09:53:10Z</time>
      </trkpt>
      <trkpt lat="42.96125" lon="-0.81977">
        <ele>1364.531</ele>
        <time>2023-04-18T09:53:28Z</time>
      </trkpt>
      <trkpt lat="42.96122" lon="-0.81982">
        <ele>1366.461</ele>
        <time>2023-04-18T09:53:37Z</time>
      </trkpt>
      <trkpt lat="42.96119" lon="-0.81988">
        <ele>1368.307</ele>
        <time>2023-04-18T09:54:23Z</time>
      </trkpt>
      <trkpt lat="42.96117" lon="-0.81994">
        <ele>1369.709</ele>
        <time>2023-04-18T09:54:34Z</time>
      </trkpt>
      <trkpt lat="42.96118" lon="-0.81987">
        <ele>1372.074</ele>
        <time>2023-04-18T09:54:51Z</time>
      </trkpt>
      <trkpt lat="42.96118" lon="-0.81994">
        <ele>1374.086</ele>
        <time>2023-04-18T09:54:58Z</time>
      </trkpt>
      <trkpt lat="42.96118" lon="-0.82">
        <ele>1374.735</ele>
        <time>2023-04-18T09:55:14Z</time>
      </trkpt>
      <trkpt lat="42.96119" lon="-0.82006">
        <ele>1375.553</ele>
        <time>2023-04-18T09:55:29Z</time>
      </trkpt>
      <trkpt lat="42.96115" lon="-0.82008">
        <ele>1377.264</ele>
        <time>2023-04-18T09:55:43Z</time>
      </trkpt>
      <trkpt lat="42.9611" lon="-0.82009">
        <ele>1379.38</ele>
        <time>2023-04-18T09:56:00Z</time>
      </trkpt>
      <trkpt lat="42.96104" lon="-0.82011">
        <ele>1380.826</ele>
        <time>2023-04-18T09:56:04Z</time>
      </trkpt>
      <trkpt lat="42.961" lon="-0.82006">
        <ele>1382.977</ele>
        <time>2023-04-18T09:56:15Z</time>
      </trkpt>
      <trkpt lat="42.96096" lon="-0.82008">
        <ele>1384.368</ele>
        <time>2023-04-18T09:56:21Z</time>
      </trkpt>
      <trkpt lat="42.96094" lon="-0.82014">
        <ele>1384.482</ele>
        <time>2023-04-18T09:56:33Z</time>
      </trkpt>
      <trkpt lat="42.96089" lon="-0.82016">
        <ele>1384.743</ele>
        <time>2023-04-18T09:56:38Z</time>
      </trkpt>
      <trkpt lat="42.96086" lon="-0.82022">
        <ele>1385.617</ele>
        <time>2023-04-18T09:56:45Z</time>
      </trkpt>
      <trkpt lat="42.96085" lon="-0.82028">
        <ele>1386.209</ele>
        <time>2023-04-18T09:56:51Z</time>
      </trkpt>
      <trkpt lat="42.96085" lon="-0.82034">
        <ele>1386.899</ele>
        <time>2023-04-18T09:56:58Z</time>
      </trkpt>
      <trkpt lat="42.96087" lon="-0.8204">
        <ele>1387.741</ele>
        <time>2023-04-18T09:57:05Z</time>
      </trkpt>
      <trkpt lat="42.96087" lon="-0.82047">
        <ele>1388.51</ele>
        <time>2023-04-18T09:57:44Z</time>
      </trkpt>
      <trkpt lat="42.96083" lon="-0.82051">
        <ele>1389.078</ele>
        <time>2023-04-18T09:57:49Z</time>
      </trkpt>
      <trkpt lat="42.96078" lon="-0.82048">
        <ele>1389.259</ele>
        <time>2023-04-18T09:57:56Z</time>
      </trkpt>
      <trkpt lat="42.96073" lon="-0.82043">
        <ele>1389.425</ele>
        <time>2023-04-18T09:58:02Z</time>
      </trkpt>
      <trkpt lat="42.96071" lon="-0.82037">
        <ele>1389.721</ele>
        <time>2023-04-18T09:58:16Z</time>
      </trkpt>
      <trkpt lat="42.96066" lon="-0.82036">
        <ele>1390.312</ele>
        <time>2023-04-18T09:58:30Z</time>
      </trkpt>
      <trkpt lat="42.96063" lon="-0.8203">
        <ele>1391.173</ele>
        <time>2023-04-18T09:58:37Z</time>
      </trkpt>
      <trkpt lat="42.96064" lon="-0.82023">
        <ele>1392.647</ele>
        <time>2023-04-18T09:58:55Z</time>
      </trkpt>
      <trkpt lat="42.9606" lon="-0.8202">
        <ele>1394.429</ele>
        <time>2023-04-18T09:59:04Z</time>
      </trkpt>
      <trkpt lat="42.96061" lon="-0.82013">
        <ele>1395.121</ele>
        <time>2023-04-18T09:59:08Z</time>
      </trkpt>
      <trkpt lat="42.96057" lon="-0.82008">
        <ele>1395.809</ele>
        <time>2023-04-18T09:59:21Z</time>
      </trkpt>
      <trkpt lat="42.96061" lon="-0.82003">
        <ele>1396.735</ele>
        <time>2023-04-18T09:59:25Z</time>
      </trkpt>
      <trkpt lat="42.9606" lon="-0.81995">
        <ele>1397.687</ele>
        <time>2023-04-18T09:59:33Z</time>
      </trkpt>
      <trkpt lat="42.9606" lon="-0.81989">
        <ele>1398.766</ele>
        <time>2023-04-18T09:59:42Z</time>
      </trkpt>
      <trkpt lat="42.96061" lon="-0.81983">
        <ele>1399.674</ele>
        <time>2023-04-18T09:59:54Z</time>
      </trkpt>
      <trkpt lat="42.96058" lon="-0.81977">
        <ele>1401.165</ele>
        <time>2023-04-18T10:00:05Z</time>
      </trkpt>
      <trkpt lat="42.96058" lon="-0.8197">
        <ele>1402.961</ele>
        <time>2023-04-18T10:00:14Z</time>
      </trkpt>
      <trkpt lat="42.96058" lon="-0.81964">
        <ele>1404.777</ele>
        <time>2023-04-18T10:00:20Z</time>
      </trkpt>
      <trkpt lat="42.96058" lon="-0.81957">
        <ele>1406.228</ele>
        <time>2023-04-18T10:00:40Z</time>
      </trkpt>
      <trkpt lat="42.96054" lon="-0.81952">
        <ele>1407.299</ele>
        <time>2023-04-18T10:01:26Z</time>
      </trkpt>
      <trkpt lat="42.96057" lon="-0.81947">
        <ele>1408.294</ele>
        <time>2023-04-18T10:01:36Z</time>
      </trkpt>
      <trkpt lat="42.96056" lon="-0.81941">
        <ele>1409.957</ele>
        <time>2023-04-18T10:01:48Z</time>
      </trkpt>
      <trkpt lat="42.96057" lon="-0.81933">
        <ele>1411.522</ele>
        <time>2023-04-18T10:01:53Z</time>
      </trkpt>
      <trkpt lat="42.96056" lon="-0.81927">
        <ele>1413.209</ele>
        <time>2023-04-18T10:01:59Z</time>
      </trkpt>
      <trkpt lat="42.96057" lon="-0.81921">
        <ele>1414.57</ele>
        <time>2023-04-18T10:02:05Z</time>
      </trkpt>
      <trkpt lat="42.96056" lon="-0.81915">
        <ele>1415.192</ele>
        <time>2023-04-18T10:02:12Z</time>
      </trkpt>
      <trkpt lat="42.96057" lon="-0.81908">
        <ele>1415.651</ele>
        <time>2023-04-18T10:02:17Z</time>
      </trkpt>
      <trkpt lat="42.96056" lon="-0.81901">
        <ele>1416.479</ele>
        <time>2023-04-18T10:02:23Z</time>
      </trkpt>
      <trkpt lat="42.96057" lon="-0.81895">
        <ele>1417.47</ele>
        <time>2023-04-18T10:02:28Z</time>
      </trkpt>
      <trkpt lat="42.96059" lon="-0.81889">
        <ele>1418.076</ele>
        <time>2023-04-18T10:02:34Z</time>
      </trkpt>
      <trkpt lat="42.9606" lon="-0.81882">
        <ele>1418.462</ele>
        <time>2023-04-18T10:02:49Z</time>
      </trkpt>
      <trkpt lat="42.96065" lon="-0.81883">
        <ele>1418.913</ele>
        <time>2023-04-18T10:02:58Z</time>
      </trkpt>
      <trkpt lat="42.96064" lon="-0.81876">
        <ele>1420.374</ele>
        <time>2023-04-18T10:03:13Z</time>
      </trkpt>
      <trkpt lat="42.96066" lon="-0.81869">
        <ele>1421.719</ele>
        <time>2023-04-18T10:03:27Z</time>
      </trkpt>
      <trkpt lat="42.96068" lon="-0.81863">
        <ele>1423.109</ele>
        <time>2023-04-18T10:03:37Z</time>
      </trkpt>
      <trkpt lat="42.96069" lon="-0.81856">
        <ele>1425.219</ele>
        <time>2023-04-18T10:03:46Z</time>
      </trkpt>
      <trkpt lat="42.96072" lon="-0.8185">
        <ele>1426.909</ele>
        <time>2023-04-18T10:03:54Z</time>
      </trkpt>
      <trkpt lat="42.96074" lon="-0.81844">
        <ele>1428.332</ele>
        <time>2023-04-18T10:04:01Z</time>
      </trkpt>
      <trkpt lat="42.96074" lon="-0.81837">
        <ele>1429.494</ele>
        <time>2023-04-18T10:04:10Z</time>
      </trkpt>
      <trkpt lat="42.96079" lon="-0.81833">
        <ele>1430.123</ele>
        <time>2023-04-18T10:04:16Z</time>
      </trkpt>
      <trkpt lat="42.9608" lon="-0.81827">
        <ele>1431.161</ele>
        <time>2023-04-18T10:04:26Z</time>
      </trkpt>
      <trkpt lat="42.96084" lon="-0.81822">
        <ele>1431.882</ele>
        <time>2023-04-18T10:04:34Z</time>
      </trkpt>
      <trkpt lat="42.96085" lon="-0.81816">
        <ele>1433.028</ele>
        <time>2023-04-18T10:04:41Z</time>
      </trkpt>
      <trkpt lat="42.96088" lon="-0.81811">
        <ele>1434.934</ele>
        <time>2023-04-18T10:04:48Z</time>
      </trkpt>
      <trkpt lat="42.96091" lon="-0.81806">
        <ele>1436.235</ele>
        <time>2023-04-18T10:04:53Z</time>
      </trkpt>
      <trkpt lat="42.96094" lon="-0.81802">
        <ele>1437.196</ele>
        <time>2023-04-18T10:04:57Z</time>
      </trkpt>
      <trkpt lat="42.96098" lon="-0.81797">
        <ele>1437.891</ele>
        <time>2023-04-18T10:05:02Z</time>
      </trkpt>
      <trkpt lat="42.96101" lon="-0.81791">
        <ele>1438.081</ele>
        <time>2023-04-18T10:05:07Z</time>
      </trkpt>
      <trkpt lat="42.96105" lon="-0.81788">
        <ele>1438.219</ele>
        <time>2023-04-18T10:05:11Z</time>
      </trkpt>
      <trkpt lat="42.96108" lon="-0.81783">
        <ele>1438.409</ele>
        <time>2023-04-18T10:05:15Z</time>
      </trkpt>
      <trkpt lat="42.96111" lon="-0.81778">
        <ele>1438.56</ele>
        <time>2023-04-18T10:05:21Z</time>
      </trkpt>
      <trkpt lat="42.96116" lon="-0.81774">
        <ele>1438.712</ele>
        <time>2023-04-18T10:05:26Z</time>
      </trkpt>
      <trkpt lat="42.96121" lon="-0.81772">
        <ele>1439.231</ele>
        <time>2023-04-18T10:05:30Z</time>
      </trkpt>
      <trkpt lat="42.96126" lon="-0.8177">
        <ele>1439.729</ele>
        <time>2023-04-18T10:05:36Z</time>
      </trkpt>
      <trkpt lat="42.9613" lon="-0.81767">
        <ele>1439.92</ele>
        <time>2023-04-18T10:05:42Z</time>
      </trkpt>
      <trkpt lat="42.96131" lon="-0.81761">
        <ele>1440.566</ele>
        <time>2023-04-18T10:05:49Z</time>
      </trkpt>
      <trkpt lat="42.96136" lon="-0.81759">
        <ele>1441.872</ele>
        <time>2023-04-18T10:05:56Z</time>
      </trkpt>
      <trkpt lat="42.96141" lon="-0.81755">
        <ele>1443.213</ele>
        <time>2023-04-18T10:06:08Z</time>
      </trkpt>
      <trkpt lat="42.96138" lon="-0.81749">
        <ele>1444.284</ele>
        <time>2023-04-18T10:06:21Z</time>
      </trkpt>
      <trkpt lat="42.96142" lon="-0.81745">
        <ele>1445.747</ele>
        <time>2023-04-18T10:06:29Z</time>
      </trkpt>
      <trkpt lat="42.96146" lon="-0.81742">
        <ele>1448.029</ele>
        <time>2023-04-18T10:06:40Z</time>
      </trkpt>
      <trkpt lat="42.9615" lon="-0.8174">
        <ele>1449.821</ele>
        <time>2023-04-18T10:06:48Z</time>
      </trkpt>
      <trkpt lat="42.9615" lon="-0.81734">
        <ele>1451.109</ele>
        <time>2023-04-18T10:07:00Z</time>
      </trkpt>
      <trkpt lat="42.96149" lon="-0.81727">
        <ele>1452.325</ele>
        <time>2023-04-18T10:07:06Z</time>
      </trkpt>
      <trkpt lat="42.96153" lon="-0.81722">
        <ele>1453.577</ele>
        <time>2023-04-18T10:07:14Z</time>
      </trkpt>
      <trkpt lat="42.96158" lon="-0.81726">
        <ele>1454.656</ele>
        <time>2023-04-18T10:07:21Z</time>
      </trkpt>
      <trkpt lat="42.96163" lon="-0.81728">
        <ele>1454.664</ele>
        <time>2023-04-18T10:07:25Z</time>
      </trkpt>
      <trkpt lat="42.96167" lon="-0.81729">
        <ele>1454.635</ele>
        <time>2023-04-18T10:07:30Z</time>
      </trkpt>
      <trkpt lat="42.96171" lon="-0.81733">
        <ele>1453.521</ele>
        <time>2023-04-18T10:07:34Z</time>
      </trkpt>
      <trkpt lat="42.96173" lon="-0.81725">
        <ele>1452.957</ele>
        <time>2023-04-18T10:07:42Z</time>
      </trkpt>
      <trkpt lat="42.96175" lon="-0.81719">
        <ele>1452.988</ele>
        <time>2023-04-18T10:07:52Z</time>
      </trkpt>
      <trkpt lat="42.96179" lon="-0.81714">
        <ele>1452.919</ele>
        <time>2023-04-18T10:08:00Z</time>
      </trkpt>
      <trkpt lat="42.96176" lon="-0.81709">
        <ele>1454.716</ele>
        <time>2023-04-18T10:08:07Z</time>
      </trkpt>
      <trkpt lat="42.96178" lon="-0.81704">
        <ele>1456.776</ele>
        <time>2023-04-18T10:08:16Z</time>
      </trkpt>
      <trkpt lat="42.96181" lon="-0.81698">
        <ele>1457.713</ele>
        <time>2023-04-18T10:08:24Z</time>
      </trkpt>
      <trkpt lat="42.96184" lon="-0.81692">
        <ele>1458.409</ele>
        <time>2023-04-18T10:08:32Z</time>
      </trkpt>
      <trkpt lat="42.96188" lon="-0.81687">
        <ele>1459.412</ele>
        <time>2023-04-18T10:08:39Z</time>
      </trkpt>
      <trkpt lat="42.96191" lon="-0.81681">
        <ele>1461.244</ele>
        <time>2023-04-18T10:08:46Z</time>
      </trkpt>
      <trkpt lat="42.96194" lon="-0.81676">
        <ele>1462.793</ele>
        <time>2023-04-18T10:08:51Z</time>
      </trkpt>
      <trkpt lat="42.96195" lon="-0.8167">
        <ele>1463.071</ele>
        <time>2023-04-18T10:08:58Z</time>
      </trkpt>
      <trkpt lat="42.96198" lon="-0.81665">
        <ele>1463.332</ele>
        <time>2023-04-18T10:09:05Z</time>
      </trkpt>
      <trkpt lat="42.96199" lon="-0.81658">
        <ele>1463.478</ele>
        <time>2023-04-18T10:09:13Z</time>
      </trkpt>
      <trkpt lat="42.96201" lon="-0.81652">
        <ele>1463.574</ele>
        <time>2023-04-18T10:09:18Z</time>
      </trkpt>
      <trkpt lat="42.96205" lon="-0.81648">
        <ele>1463.645</ele>
        <time>2023-04-18T10:09:35Z</time>
      </trkpt>
      <trkpt lat="42.9621" lon="-0.81651">
        <ele>1463.816</ele>
        <time>2023-04-18T10:10:37Z</time>
      </trkpt>
      <trkpt lat="42.96206" lon="-0.81652">
        <ele>1463.759</ele>
        <time>2023-04-18T10:12:08Z</time>
      </trkpt>
      <trkpt lat="42.96201" lon="-0.8165">
        <ele>1463.503</ele>
        <time>2023-04-18T10:14:29Z</time>
      </trkpt>
      <trkpt lat="42.96199" lon="-0.81645">
        <ele>1463.623</ele>
        <time>2023-04-18T10:14:36Z</time>
      </trkpt>
      <trkpt lat="42.96199" lon="-0.81638">
        <ele>1463.809</ele>
        <time>2023-04-18T10:14:42Z</time>
      </trkpt>
      <trkpt lat="42.96195" lon="-0.81635">
        <ele>1463.976</ele>
        <time>2023-04-18T10:14:54Z</time>
      </trkpt>
      <trkpt lat="42.9619" lon="-0.81633">
        <ele>1463.928</ele>
        <time>2023-04-18T10:15:08Z</time>
      </trkpt>
      <trkpt lat="42.96189" lon="-0.81626">
        <ele>1465.647</ele>
        <time>2023-04-18T10:15:17Z</time>
      </trkpt>
      <trkpt lat="42.96187" lon="-0.8162">
        <ele>1468.345</ele>
        <time>2023-04-18T10:15:26Z</time>
      </trkpt>
      <trkpt lat="42.96186" lon="-0.81614">
        <ele>1470.166</ele>
        <time>2023-04-18T10:15:32Z</time>
      </trkpt>
      <trkpt lat="42.96184" lon="-0.81607">
        <ele>1471.432</ele>
        <time>2023-04-18T10:15:39Z</time>
      </trkpt>
      <trkpt lat="42.96183" lon="-0.81601">
        <ele>1472.358</ele>
        <time>2023-04-18T10:15:47Z</time>
      </trkpt>
      <trkpt lat="42.96181" lon="-0.81595">
        <ele>1472.899</ele>
        <time>2023-04-18T10:15:55Z</time>
      </trkpt>
      <trkpt lat="42.96181" lon="-0.81588">
        <ele>1473.71</ele>
        <time>2023-04-18T10:16:02Z</time>
      </trkpt>
      <trkpt lat="42.96178" lon="-0.81583">
        <ele>1474.529</ele>
        <time>2023-04-18T10:16:09Z</time>
      </trkpt>
      <trkpt lat="42.96173" lon="-0.81579">
        <ele>1475.3</ele>
        <time>2023-04-18T10:16:18Z</time>
      </trkpt>
      <trkpt lat="42.9617" lon="-0.81575">
        <ele>1476.32</ele>
        <time>2023-04-18T10:16:27Z</time>
      </trkpt>
      <trkpt lat="42.96169" lon="-0.81569">
        <ele>1477.009</ele>
        <time>2023-04-18T10:16:37Z</time>
      </trkpt>
      <trkpt lat="42.96164" lon="-0.81567">
        <ele>1478.023</ele>
        <time>2023-04-18T10:16:45Z</time>
      </trkpt>
      <trkpt lat="42.96162" lon="-0.81561">
        <ele>1479.435</ele>
        <time>2023-04-18T10:16:58Z</time>
      </trkpt>
      <trkpt lat="42.96162" lon="-0.81554">
        <ele>1480.334</ele>
        <time>2023-04-18T10:17:09Z</time>
      </trkpt>
      <trkpt lat="42.96158" lon="-0.81551">
        <ele>1481.532</ele>
        <time>2023-04-18T10:17:19Z</time>
      </trkpt>
      <trkpt lat="42.96154" lon="-0.81547">
        <ele>1483.373</ele>
        <time>2023-04-18T10:17:28Z</time>
      </trkpt>
      <trkpt lat="42.96151" lon="-0.81543">
        <ele>1485.089</ele>
        <time>2023-04-18T10:17:40Z</time>
      </trkpt>
      <trkpt lat="42.96147" lon="-0.81539">
        <ele>1486.345</ele>
        <time>2023-04-18T10:17:55Z</time>
      </trkpt>
      <trkpt lat="42.96143" lon="-0.81536">
        <ele>1487.596</ele>
        <time>2023-04-18T10:18:08Z</time>
      </trkpt>
      <trkpt lat="42.96146" lon="-0.8153">
        <ele>1489.317</ele>
        <time>2023-04-18T10:18:18Z</time>
      </trkpt>
      <trkpt lat="42.96148" lon="-0.81524">
        <ele>1490.948</ele>
        <time>2023-04-18T10:18:38Z</time>
      </trkpt>
      <trkpt lat="42.96148" lon="-0.81517">
        <ele>1492.161</ele>
        <time>2023-04-18T10:19:02Z</time>
      </trkpt>
      <trkpt lat="42.96152" lon="-0.81512">
        <ele>1493.817</ele>
        <time>2023-04-18T10:19:21Z</time>
      </trkpt>
      <trkpt lat="42.96155" lon="-0.81508">
        <ele>1496.209</ele>
        <time>2023-04-18T10:19:40Z</time>
      </trkpt>
      <trkpt lat="42.96156" lon="-0.81502">
        <ele>1498.745</ele>
        <time>2023-04-18T10:19:56Z</time>
      </trkpt>
      <trkpt lat="42.9616" lon="-0.81497">
        <ele>1500.967</ele>
        <time>2023-04-18T10:20:04Z</time>
      </trkpt>
      <trkpt lat="42.96161" lon="-0.81491">
        <ele>1503.166</ele>
        <time>2023-04-18T10:20:15Z</time>
      </trkpt>
      <trkpt lat="42.96164" lon="-0.81486">
        <ele>1505.054</ele>
        <time>2023-04-18T10:20:23Z</time>
      </trkpt>
      <trkpt lat="42.96165" lon="-0.8148">
        <ele>1506.655</ele>
        <time>2023-04-18T10:20:30Z</time>
      </trkpt>
      <trkpt lat="42.96167" lon="-0.81475">
        <ele>1508.491</ele>
        <time>2023-04-18T10:20:38Z</time>
      </trkpt>
      <trkpt lat="42.96169" lon="-0.81469">
        <ele>1509.997</ele>
        <time>2023-04-18T10:20:50Z</time>
      </trkpt>
      <trkpt lat="42.96171" lon="-0.81463">
        <ele>1511.258</ele>
        <time>2023-04-18T10:21:00Z</time>
      </trkpt>
      <trkpt lat="42.96175" lon="-0.81459">
        <ele>1512.839</ele>
        <time>2023-04-18T10:21:09Z</time>
      </trkpt>
      <trkpt lat="42.96178" lon="-0.81453">
        <ele>1514.823</ele>
        <time>2023-04-18T10:21:21Z</time>
      </trkpt>
      <trkpt lat="42.96178" lon="-0.81445">
        <ele>1516.283</ele>
        <time>2023-04-18T10:21:31Z</time>
      </trkpt>
      <trkpt lat="42.96182" lon="-0.8144">
        <ele>1517.511</ele>
        <time>2023-04-18T10:21:42Z</time>
      </trkpt>
      <trkpt lat="42.96185" lon="-0.81434">
        <ele>1518.609</ele>
        <time>2023-04-18T10:21:48Z</time>
      </trkpt>
      <trkpt lat="42.96184" lon="-0.81427">
        <ele>1518.833</ele>
        <time>2023-04-18T10:22:08Z</time>
      </trkpt>
      <trkpt lat="42.96182" lon="-0.81422">
        <ele>1519.095</ele>
        <time>2023-04-18T10:22:29Z</time>
      </trkpt>
      <trkpt lat="42.9618" lon="-0.81416">
        <ele>1519.434</ele>
        <time>2023-04-18T10:22:44Z</time>
      </trkpt>
      <trkpt lat="42.96178" lon="-0.8141">
        <ele>1520.342</ele>
        <time>2023-04-18T10:22:52Z</time>
      </trkpt>
      <trkpt lat="42.96173" lon="-0.8141">
        <ele>1521.433</ele>
        <time>2023-04-18T10:22:59Z</time>
      </trkpt>
      <trkpt lat="42.96169" lon="-0.81405">
        <ele>1521.519</ele>
        <time>2023-04-18T10:23:05Z</time>
      </trkpt>
      <trkpt lat="42.96167" lon="-0.81399">
        <ele>1521.765</ele>
        <time>2023-04-18T10:23:10Z</time>
      </trkpt>
      <trkpt lat="42.96165" lon="-0.81393">
        <ele>1521.836</ele>
        <time>2023-04-18T10:23:16Z</time>
      </trkpt>
      <trkpt lat="42.96164" lon="-0.81387">
        <ele>1521.857</ele>
        <time>2023-04-18T10:23:22Z</time>
      </trkpt>
      <trkpt lat="42.96162" lon="-0.81381">
        <ele>1521.914</ele>
        <time>2023-04-18T10:23:27Z</time>
      </trkpt>
      <trkpt lat="42.96161" lon="-0.81375">
        <ele>1522.154</ele>
        <time>2023-04-18T10:23:34Z</time>
      </trkpt>
      <trkpt lat="42.96159" lon="-0.81369">
        <ele>1522.309</ele>
        <time>2023-04-18T10:23:40Z</time>
      </trkpt>
      <trkpt lat="42.96157" lon="-0.81363">
        <ele>1522.609</ele>
        <time>2023-04-18T10:23:50Z</time>
      </trkpt>
      <trkpt lat="42.96153" lon="-0.81359">
        <ele>1522.962</ele>
        <time>2023-04-18T10:23:56Z</time>
      </trkpt>
      <trkpt lat="42.96149" lon="-0.81355">
        <ele>1523.854</ele>
        <time>2023-04-18T10:24:04Z</time>
      </trkpt>
      <trkpt lat="42.96144" lon="-0.81353">
        <ele>1524.913</ele>
        <time>2023-04-18T10:24:13Z</time>
      </trkpt>
      <trkpt lat="42.9614" lon="-0.81347">
        <ele>1526.031</ele>
        <time>2023-04-18T10:24:19Z</time>
      </trkpt>
      <trkpt lat="42.96138" lon="-0.81342">
        <ele>1527.432</ele>
        <time>2023-04-18T10:24:23Z</time>
      </trkpt>
      <trkpt lat="42.96136" lon="-0.81336">
        <ele>1528.178</ele>
        <time>2023-04-18T10:24:29Z</time>
      </trkpt>
      <trkpt lat="42.96134" lon="-0.8133">
        <ele>1528.114</ele>
        <time>2023-04-18T10:24:36Z</time>
      </trkpt>
      <trkpt lat="42.96132" lon="-0.81323">
        <ele>1528.325</ele>
        <time>2023-04-18T10:24:43Z</time>
      </trkpt>
      <trkpt lat="42.96129" lon="-0.81317">
        <ele>1528.786</ele>
        <time>2023-04-18T10:24:50Z</time>
      </trkpt>
      <trkpt lat="42.96127" lon="-0.81311">
        <ele>1529.114</ele>
        <time>2023-04-18T10:24:57Z</time>
      </trkpt>
      <trkpt lat="42.96128" lon="-0.81304">
        <ele>1529.654</ele>
        <time>2023-04-18T10:25:01Z</time>
      </trkpt>
      <trkpt lat="42.96125" lon="-0.81297">
        <ele>1530.209</ele>
        <time>2023-04-18T10:25:07Z</time>
      </trkpt>
      <trkpt lat="42.96124" lon="-0.81291">
        <ele>1530.409</ele>
        <time>2023-04-18T10:25:12Z</time>
      </trkpt>
      <trkpt lat="42.96123" lon="-0.81285">
        <ele>1530.442</ele>
        <time>2023-04-18T10:25:18Z</time>
      </trkpt>
      <trkpt lat="42.96122" lon="-0.81279">
        <ele>1530.464</ele>
        <time>2023-04-18T10:25:24Z</time>
      </trkpt>
      <trkpt lat="42.9612" lon="-0.81273">
        <ele>1530.233</ele>
        <time>2023-04-18T10:26:20Z</time>
      </trkpt>
      <trkpt lat="42.96116" lon="-0.81269">
        <ele>1530.071</ele>
        <time>2023-04-18T10:26:32Z</time>
      </trkpt>
      <trkpt lat="42.96113" lon="-0.81265">
        <ele>1529.692</ele>
        <time>2023-04-18T10:26:42Z</time>
      </trkpt>
      <trkpt lat="42.96108" lon="-0.81266">
        <ele>1529.028</ele>
        <time>2023-04-18T10:26:47Z</time>
      </trkpt>
      <trkpt lat="42.96105" lon="-0.81261">
        <ele>1528.094</ele>
        <time>2023-04-18T10:26:51Z</time>
      </trkpt>
      <trkpt lat="42.961" lon="-0.81259">
        <ele>1526.985</ele>
        <time>2023-04-18T10:26:59Z</time>
      </trkpt>
      <trkpt lat="42.96096" lon="-0.81255">
        <ele>1526.366</ele>
        <time>2023-04-18T10:27:09Z</time>
      </trkpt>
      <trkpt lat="42.96092" lon="-0.8125">
        <ele>1526.262</ele>
        <time>2023-04-18T10:27:18Z</time>
      </trkpt>
      <trkpt lat="42.96089" lon="-0.81245">
        <ele>1526.183</ele>
        <time>2023-04-18T10:27:24Z</time>
      </trkpt>
      <trkpt lat="42.96085" lon="-0.8124">
        <ele>1525.911</ele>
        <time>2023-04-18T10:27:35Z</time>
      </trkpt>
      <trkpt lat="42.96083" lon="-0.81235">
        <ele>1525.609</ele>
        <time>2023-04-18T10:27:40Z</time>
      </trkpt>
      <trkpt lat="42.96086" lon="-0.8123">
        <ele>1525.897</ele>
        <time>2023-04-18T10:31:23Z</time>
      </trkpt>
      <trkpt lat="42.96087" lon="-0.81232">
        <ele>1526.889</ele>
        <time>2023-04-18T10:33:20Z</time>
      </trkpt>
      <trkpt lat="42.96085" lon="-0.81131">
        <ele>1516.731</ele>
        <time>2023-04-18T11:25:01Z</time>
      </trkpt>
      <trkpt lat="42.96083" lon="-0.81124">
        <ele>1516.58</ele>
        <time>2023-04-18T11:25:12Z</time>
      </trkpt>
      <trkpt lat="42.96083" lon="-0.81117">
        <ele>1516.388</ele>
        <time>2023-04-18T11:25:18Z</time>
      </trkpt>
      <trkpt lat="42.96086" lon="-0.81111">
        <ele>1515.819</ele>
        <time>2023-04-18T11:25:24Z</time>
      </trkpt>
      <trkpt lat="42.96088" lon="-0.81105">
        <ele>1515.355</ele>
        <time>2023-04-18T11:25:29Z</time>
      </trkpt>
      <trkpt lat="42.96092" lon="-0.811">
        <ele>1514.871</ele>
        <time>2023-04-18T11:25:34Z</time>
      </trkpt>
      <trkpt lat="42.96096" lon="-0.81095">
        <ele>1514.362</ele>
        <time>2023-04-18T11:25:39Z</time>
      </trkpt>
      <trkpt lat="42.96099" lon="-0.8109">
        <ele>1514.313</ele>
        <time>2023-04-18T11:25:44Z</time>
      </trkpt>
      <trkpt lat="42.96102" lon="-0.81085">
        <ele>1514.335</ele>
        <time>2023-04-18T11:25:49Z</time>
      </trkpt>
      <trkpt lat="42.96107" lon="-0.8108">
        <ele>1514.486</ele>
        <time>2023-04-18T11:25:54Z</time>
      </trkpt>
      <trkpt lat="42.96111" lon="-0.81074">
        <ele>1514.414</ele>
        <time>2023-04-18T11:25:59Z</time>
      </trkpt>
      <trkpt lat="42.96114" lon="-0.81069">
        <ele>1514.409</ele>
        <time>2023-04-18T11:26:03Z</time>
      </trkpt>
      <trkpt lat="42.96117" lon="-0.81064">
        <ele>1514.554</ele>
        <time>2023-04-18T11:26:07Z</time>
      </trkpt>
      <trkpt lat="42.96121" lon="-0.8106">
        <ele>1514.526</ele>
        <time>2023-04-18T11:26:11Z</time>
      </trkpt>
      <trkpt lat="42.96123" lon="-0.81054">
        <ele>1516.445</ele>
        <time>2023-04-18T11:26:15Z</time>
      </trkpt>
      <trkpt lat="42.96126" lon="-0.81048">
        <ele>1518.623</ele>
        <time>2023-04-18T11:26:20Z</time>
      </trkpt>
      <trkpt lat="42.96129" lon="-0.81043">
        <ele>1518.844</ele>
        <time>2023-04-18T11:26:24Z</time>
      </trkpt>
      <trkpt lat="42.96132" lon="-0.81039">
        <ele>1518.87</ele>
        <time>2023-04-18T11:26:28Z</time>
      </trkpt>
      <trkpt lat="42.96135" lon="-0.81033">
        <ele>1518.886</ele>
        <time>2023-04-18T11:26:33Z</time>
      </trkpt>
      <trkpt lat="42.96139" lon="-0.81029">
        <ele>1519.077</ele>
        <time>2023-04-18T11:26:38Z</time>
      </trkpt>
      <trkpt lat="42.96143" lon="-0.81025">
        <ele>1519.258</ele>
        <time>2023-04-18T11:26:56Z</time>
      </trkpt>
      <trkpt lat="42.96146" lon="-0.81021">
        <ele>1520.942</ele>
        <time>2023-04-18T11:27:00Z</time>
      </trkpt>
      <trkpt lat="42.9615" lon="-0.81015">
        <ele>1522.622</ele>
        <time>2023-04-18T11:27:04Z</time>
      </trkpt>
      <trkpt lat="42.96153" lon="-0.8101">
        <ele>1522.714</ele>
        <time>2023-04-18T11:27:08Z</time>
      </trkpt>
      <trkpt lat="42.96156" lon="-0.81006">
        <ele>1522.809</ele>
        <time>2023-04-18T11:27:12Z</time>
      </trkpt>
      <trkpt lat="42.9616" lon="-0.81001">
        <ele>1523.815</ele>
        <time>2023-04-18T11:27:17Z</time>
      </trkpt>
      <trkpt lat="42.96165" lon="-0.80997">
        <ele>1524.867</ele>
        <time>2023-04-18T11:27:22Z</time>
      </trkpt>
      <trkpt lat="42.96168" lon="-0.80991">
        <ele>1525.386</ele>
        <time>2023-04-18T11:27:28Z</time>
      </trkpt>
      <trkpt lat="42.96171" lon="-0.80987">
        <ele>1526.024</ele>
        <time>2023-04-18T11:27:33Z</time>
      </trkpt>
      <trkpt lat="42.96173" lon="-0.8098">
        <ele>1526.765</ele>
        <time>2023-04-18T11:27:38Z</time>
      </trkpt>
      <trkpt lat="42.96175" lon="-0.80974">
        <ele>1527.741</ele>
        <time>2023-04-18T11:27:44Z</time>
      </trkpt>
      <trkpt lat="42.96178" lon="-0.80968">
        <ele>1529.247</ele>
        <time>2023-04-18T11:27:49Z</time>
      </trkpt>
      <trkpt lat="42.96181" lon="-0.80963">
        <ele>1530.678</ele>
        <time>2023-04-18T11:27:53Z</time>
      </trkpt>
      <trkpt lat="42.96184" lon="-0.80956">
        <ele>1531.499</ele>
        <time>2023-04-18T11:27:58Z</time>
      </trkpt>
      <trkpt lat="42.96188" lon="-0.80952">
        <ele>1532.147</ele>
        <time>2023-04-18T11:28:03Z</time>
      </trkpt>
      <trkpt lat="42.96192" lon="-0.80946">
        <ele>1532.729</ele>
        <time>2023-04-18T11:28:08Z</time>
      </trkpt>
      <trkpt lat="42.96197" lon="-0.80943">
        <ele>1533.521</ele>
        <time>2023-04-18T11:28:13Z</time>
      </trkpt>
      <trkpt lat="42.96202" lon="-0.80941">
        <ele>1534.409</ele>
        <time>2023-04-18T11:28:17Z</time>
      </trkpt>
      <trkpt lat="42.96206" lon="-0.80937">
        <ele>1534.745</ele>
        <time>2023-04-18T11:28:22Z</time>
      </trkpt>
      <trkpt lat="42.96211" lon="-0.80936">
        <ele>1535.077</ele>
        <time>2023-04-18T11:28:26Z</time>
      </trkpt>
      <trkpt lat="42.96216" lon="-0.80934">
        <ele>1535.336</ele>
        <time>2023-04-18T11:28:31Z</time>
      </trkpt>
      <trkpt lat="42.96219" lon="-0.80929">
        <ele>1535.834</ele>
        <time>2023-04-18T11:28:36Z</time>
      </trkpt>
      <trkpt lat="42.96224" lon="-0.80925">
        <ele>1536.345</ele>
        <time>2023-04-18T11:28:41Z</time>
      </trkpt>
      <trkpt lat="42.96228" lon="-0.80922">
        <ele>1536.781</ele>
        <time>2023-04-18T11:28:46Z</time>
      </trkpt>
      <trkpt lat="42.96231" lon="-0.80917">
        <ele>1537.257</ele>
        <time>2023-04-18T11:28:51Z</time>
      </trkpt>
      <trkpt lat="42.96235" lon="-0.80911">
        <ele>1537.768</ele>
        <time>2023-04-18T11:28:57Z</time>
      </trkpt>
      <trkpt lat="42.96239" lon="-0.80907">
        <ele>1538.059</ele>
        <time>2023-04-18T11:29:03Z</time>
      </trkpt>
      <trkpt lat="42.96243" lon="-0.80902">
        <ele>1538.475</ele>
        <time>2023-04-18T11:29:08Z</time>
      </trkpt>
      <trkpt lat="42.96246" lon="-0.80897">
        <ele>1538.928</ele>
        <time>2023-04-18T11:29:13Z</time>
      </trkpt>
      <trkpt lat="42.9625" lon="-0.80892">
        <ele>1539.62</ele>
        <time>2023-04-18T11:29:18Z</time>
      </trkpt>
      <trkpt lat="42.96253" lon="-0.80887">
        <ele>1540.409</ele>
        <time>2023-04-18T11:29:23Z</time>
      </trkpt>
      <trkpt lat="42.96255" lon="-0.80881">
        <ele>1541.268</ele>
        <time>2023-04-18T11:29:28Z</time>
      </trkpt>
      <trkpt lat="42.96258" lon="-0.80875">
        <ele>1541.97</ele>
        <time>2023-04-18T11:29:33Z</time>
      </trkpt>
      <trkpt lat="42.96261" lon="-0.80869">
        <ele>1542.549</ele>
        <time>2023-04-18T11:29:38Z</time>
      </trkpt>
      <trkpt lat="42.96264" lon="-0.80862">
        <ele>1543.237</ele>
        <time>2023-04-18T11:29:43Z</time>
      </trkpt>
      <trkpt lat="42.96267" lon="-0.80856">
        <ele>1543.998</ele>
        <time>2023-04-18T11:29:48Z</time>
      </trkpt>
      <trkpt lat="42.96268" lon="-0.8085">
        <ele>1544.394</ele>
        <time>2023-04-18T11:29:52Z</time>
      </trkpt>
      <trkpt lat="42.96271" lon="-0.80844">
        <ele>1544.46</ele>
        <time>2023-04-18T11:29:57Z</time>
      </trkpt>
      <trkpt lat="42.96274" lon="-0.80839">
        <ele>1544.551</ele>
        <time>2023-04-18T11:30:01Z</time>
      </trkpt>
      <trkpt lat="42.96277" lon="-0.80834">
        <ele>1544.582</ele>
        <time>2023-04-18T11:30:06Z</time>
      </trkpt>
      <trkpt lat="42.9628" lon="-0.80829">
        <ele>1544.511</ele>
        <time>2023-04-18T11:30:10Z</time>
      </trkpt>
      <trkpt lat="42.96284" lon="-0.80823">
        <ele>1544.421</ele>
        <time>2023-04-18T11:30:15Z</time>
      </trkpt>
      <trkpt lat="42.96287" lon="-0.80817">
        <ele>1544.003</ele>
        <time>2023-04-18T11:30:20Z</time>
      </trkpt>
      <trkpt lat="42.96292" lon="-0.80813">
        <ele>1543.409</ele>
        <time>2023-04-18T11:30:25Z</time>
      </trkpt>
      <trkpt lat="42.96296" lon="-0.80807">
        <ele>1542.632</ele>
        <time>2023-04-18T11:30:29Z</time>
      </trkpt>
      <trkpt lat="42.963" lon="-0.80807">
        <ele>1542.784</ele>
        <time>2023-04-18T11:30:32Z</time>
      </trkpt>
      <trkpt lat="42.96306" lon="-0.80804">
        <ele>1542.683</ele>
        <time>2023-04-18T11:30:36Z</time>
      </trkpt>
      <trkpt lat="42.96311" lon="-0.80803">
        <ele>1542.871</ele>
        <time>2023-04-18T11:30:40Z</time>
      </trkpt>
      <trkpt lat="42.96315" lon="-0.808">
        <ele>1542.912</ele>
        <time>2023-04-18T11:30:44Z</time>
      </trkpt>
      <trkpt lat="42.96318" lon="-0.80794">
        <ele>1543.118</ele>
        <time>2023-04-18T11:30:48Z</time>
      </trkpt>
      <trkpt lat="42.96321" lon="-0.80788">
        <ele>1543.494</ele>
        <time>2023-04-18T11:30:54Z</time>
      </trkpt>
      <trkpt lat="42.96324" lon="-0.80783">
        <ele>1543.785</ele>
        <time>2023-04-18T11:30:59Z</time>
      </trkpt>
      <trkpt lat="42.96327" lon="-0.80777">
        <ele>1543.836</ele>
        <time>2023-04-18T11:31:04Z</time>
      </trkpt>
      <trkpt lat="42.96331" lon="-0.80773">
        <ele>1544.199</ele>
        <time>2023-04-18T11:31:09Z</time>
      </trkpt>
      <trkpt lat="42.96334" lon="-0.80767">
        <ele>1544.407</ele>
        <time>2023-04-18T11:31:14Z</time>
      </trkpt>
      <trkpt lat="42.96338" lon="-0.80763">
        <ele>1544.427</ele>
        <time>2023-04-18T11:31:19Z</time>
      </trkpt>
      <trkpt lat="42.96341" lon="-0.80758">
        <ele>1544.409</ele>
        <time>2023-04-18T11:31:23Z</time>
      </trkpt>
      <trkpt lat="42.96345" lon="-0.80753">
        <ele>1544.31</ele>
        <time>2023-04-18T11:31:28Z</time>
      </trkpt>
      <trkpt lat="42.96347" lon="-0.80746">
        <ele>1544.042</ele>
        <time>2023-04-18T11:31:33Z</time>
      </trkpt>
      <trkpt lat="42.9635" lon="-0.80741">
        <ele>1543.621</ele>
        <time>2023-04-18T11:31:38Z</time>
      </trkpt>
      <trkpt lat="42.96352" lon="-0.80735">
        <ele>1543.289</ele>
        <time>2023-04-18T11:31:42Z</time>
      </trkpt>
      <trkpt lat="42.96354" lon="-0.80729">
        <ele>1542.82</ele>
        <time>2023-04-18T11:31:47Z</time>
      </trkpt>
      <trkpt lat="42.96353" lon="-0.80721">
        <ele>1542.726</ele>
        <time>2023-04-18T11:31:52Z</time>
      </trkpt>
      <trkpt lat="42.96352" lon="-0.80714">
        <ele>1542.722</ele>
        <time>2023-04-18T11:31:58Z</time>
      </trkpt>
      <trkpt lat="42.96353" lon="-0.80708">
        <ele>1542.783</ele>
        <time>2023-04-18T11:32:01Z</time>
      </trkpt>
      <trkpt lat="42.96354" lon="-0.80701">
        <ele>1543.164</ele>
        <time>2023-04-18T11:32:05Z</time>
      </trkpt>
      <trkpt lat="42.96355" lon="-0.80695">
        <ele>1543.624</ele>
        <time>2023-04-18T11:32:09Z</time>
      </trkpt>
      <trkpt lat="42.96357" lon="-0.80688">
        <ele>1543.904</ele>
        <time>2023-04-18T11:32:15Z</time>
      </trkpt>
      <trkpt lat="42.9636" lon="-0.80682">
        <ele>1543.914</ele>
        <time>2023-04-18T11:32:20Z</time>
      </trkpt>
      <trkpt lat="42.96364" lon="-0.80677">
        <ele>1543.909</ele>
        <time>2023-04-18T11:32:25Z</time>
      </trkpt>
      <trkpt lat="42.96369" lon="-0.80673">
        <ele>1544.033</ele>
        <time>2023-04-18T11:32:29Z</time>
      </trkpt>
      <trkpt lat="42.96373" lon="-0.8067">
        <ele>1544.145</ele>
        <time>2023-04-18T11:32:33Z</time>
      </trkpt>
      <trkpt lat="42.96377" lon="-0.80665">
        <ele>1544.234</ele>
        <time>2023-04-18T11:32:37Z</time>
      </trkpt>
      <trkpt lat="42.96381" lon="-0.80659">
        <ele>1544.412</ele>
        <time>2023-04-18T11:32:42Z</time>
      </trkpt>
      <trkpt lat="42.96384" lon="-0.80653">
        <ele>1544.923</ele>
        <time>2023-04-18T11:32:48Z</time>
      </trkpt>
      <trkpt lat="42.96386" lon="-0.80647">
        <ele>1545.329</ele>
        <time>2023-04-18T11:32:53Z</time>
      </trkpt>
      <trkpt lat="42.9639" lon="-0.80641">
        <ele>1546.795</ele>
        <time>2023-04-18T11:32:58Z</time>
      </trkpt>
      <trkpt lat="42.96395" lon="-0.80636">
        <ele>1547.566</ele>
        <time>2023-04-18T11:33:03Z</time>
      </trkpt>
      <trkpt lat="42.96399" lon="-0.80634">
        <ele>1548.087</ele>
        <time>2023-04-18T11:33:07Z</time>
      </trkpt>
      <trkpt lat="42.96404" lon="-0.8063">
        <ele>1548.864</ele>
        <time>2023-04-18T11:33:11Z</time>
      </trkpt>
      <trkpt lat="42.96409" lon="-0.80626">
        <ele>1549.106</ele>
        <time>2023-04-18T11:33:16Z</time>
      </trkpt>
      <trkpt lat="42.96414" lon="-0.80623">
        <ele>1549.216</ele>
        <time>2023-04-18T11:33:21Z</time>
      </trkpt>
      <trkpt lat="42.96419" lon="-0.8062">
        <ele>1549.309</ele>
        <time>2023-04-18T11:33:26Z</time>
      </trkpt>
      <trkpt lat="42.96423" lon="-0.80617">
        <ele>1549.337</ele>
        <time>2023-04-18T11:33:30Z</time>
      </trkpt>
      <trkpt lat="42.96428" lon="-0.80613">
        <ele>1549.419</ele>
        <time>2023-04-18T11:33:35Z</time>
      </trkpt>
      <trkpt lat="42.96433" lon="-0.8061">
        <ele>1549.598</ele>
        <time>2023-04-18T11:33:40Z</time>
      </trkpt>
      <trkpt lat="42.96437" lon="-0.80606">
        <ele>1549.766</ele>
        <time>2023-04-18T11:33:44Z</time>
      </trkpt>
      <trkpt lat="42.96441" lon="-0.80601">
        <ele>1550.097</ele>
        <time>2023-04-18T11:33:49Z</time>
      </trkpt>
      <trkpt lat="42.96444" lon="-0.80595">
        <ele>1550.483</ele>
        <time>2023-04-18T11:33:55Z</time>
      </trkpt>
      <trkpt lat="42.96446" lon="-0.80589">
        <ele>1550.899</ele>
        <time>2023-04-18T11:34:00Z</time>
      </trkpt>
      <trkpt lat="42.96447" lon="-0.80582">
        <ele>1551.37</ele>
        <time>2023-04-18T11:34:05Z</time>
      </trkpt>
      <trkpt lat="42.96445" lon="-0.80576">
        <ele>1551.621</ele>
        <time>2023-04-18T11:34:09Z</time>
      </trkpt>
      <trkpt lat="42.96445" lon="-0.8057">
        <ele>1551.629</ele>
        <time>2023-04-18T11:34:13Z</time>
      </trkpt>
      <trkpt lat="42.96446" lon="-0.80563">
        <ele>1551.6</ele>
        <time>2023-04-18T11:34:18Z</time>
      </trkpt>
      <trkpt lat="42.96446" lon="-0.80556">
        <ele>1551.52</ele>
        <time>2023-04-18T11:34:22Z</time>
      </trkpt>
      <trkpt lat="42.96446" lon="-0.80548">
        <ele>1551.409</ele>
        <time>2023-04-18T11:34:27Z</time>
      </trkpt>
      <trkpt lat="42.96448" lon="-0.80541">
        <ele>1551.293</ele>
        <time>2023-04-18T11:34:31Z</time>
      </trkpt>
      <trkpt lat="42.96448" lon="-0.80534">
        <ele>1551.145</ele>
        <time>2023-04-18T11:34:34Z</time>
      </trkpt>
      <trkpt lat="42.9645" lon="-0.80529">
        <ele>1551.074</ele>
        <time>2023-04-18T11:34:37Z</time>
      </trkpt>
      <trkpt lat="42.96452" lon="-0.80521">
        <ele>1546.792</ele>
        <time>2023-04-18T11:34:42Z</time>
      </trkpt>
      <trkpt lat="42.96454" lon="-0.80514">
        <ele>1542.553</ele>
        <time>2023-04-18T11:34:46Z</time>
      </trkpt>
      <trkpt lat="42.96459" lon="-0.8051">
        <ele>1542.239</ele>
        <time>2023-04-18T11:34:50Z</time>
      </trkpt>
      <trkpt lat="42.96462" lon="-0.80504">
        <ele>1541.625</ele>
        <time>2023-04-18T11:34:54Z</time>
      </trkpt>
      <trkpt lat="42.96468" lon="-0.80501">
        <ele>1541.446</ele>
        <time>2023-04-18T11:34:58Z</time>
      </trkpt>
      <trkpt lat="42.96473" lon="-0.80498">
        <ele>1541.167</ele>
        <time>2023-04-18T11:35:02Z</time>
      </trkpt>
      <trkpt lat="42.96477" lon="-0.80495">
        <ele>1540.772</ele>
        <time>2023-04-18T11:35:06Z</time>
      </trkpt>
      <trkpt lat="42.96482" lon="-0.80492">
        <ele>1540.713</ele>
        <time>2023-04-18T11:35:10Z</time>
      </trkpt>
      <trkpt lat="42.96485" lon="-0.80487">
        <ele>1540.714</ele>
        <time>2023-04-18T11:35:14Z</time>
      </trkpt>
      <trkpt lat="42.96488" lon="-0.80481">
        <ele>1540.709</ele>
        <time>2023-04-18T11:35:18Z</time>
      </trkpt>
      <trkpt lat="42.9649" lon="-0.80475">
        <ele>1540.838</ele>
        <time>2023-04-18T11:35:22Z</time>
      </trkpt>
      <trkpt lat="42.96491" lon="-0.80469">
        <ele>1541.38</ele>
        <time>2023-04-18T11:35:26Z</time>
      </trkpt>
      <trkpt lat="42.96491" lon="-0.80462">
        <ele>1541.919</ele>
        <time>2023-04-18T11:35:30Z</time>
      </trkpt>
      <trkpt lat="42.96491" lon="-0.80455">
        <ele>1542.427</ele>
        <time>2023-04-18T11:35:35Z</time>
      </trkpt>
      <trkpt lat="42.96492" lon="-0.80448">
        <ele>1543.078</ele>
        <time>2023-04-18T11:35:40Z</time>
      </trkpt>
      <trkpt lat="42.96493" lon="-0.80442">
        <ele>1543.724</ele>
        <time>2023-04-18T11:35:44Z</time>
      </trkpt>
      <trkpt lat="42.96493" lon="-0.80435">
        <ele>1544.67</ele>
        <time>2023-04-18T11:35:48Z</time>
      </trkpt>
      <trkpt lat="42.96494" lon="-0.80429">
        <ele>1545.541</ele>
        <time>2023-04-18T11:35:52Z</time>
      </trkpt>
      <trkpt lat="42.96495" lon="-0.80423">
        <ele>1546.122</ele>
        <time>2023-04-18T11:35:57Z</time>
      </trkpt>
      <trkpt lat="42.96497" lon="-0.80415">
        <ele>1546.684</ele>
        <time>2023-04-18T11:36:02Z</time>
      </trkpt>
      <trkpt lat="42.96497" lon="-0.80409">
        <ele>1547.307</ele>
        <time>2023-04-18T11:36:06Z</time>
      </trkpt>
      <trkpt lat="42.96499" lon="-0.80403">
        <ele>1547.917</ele>
        <time>2023-04-18T11:36:12Z</time>
      </trkpt>
      <trkpt lat="42.96499" lon="-0.80396">
        <ele>1548.309</ele>
        <time>2023-04-18T11:36:17Z</time>
      </trkpt>
      <trkpt lat="42.965" lon="-0.80389">
        <ele>1548.849</ele>
        <time>2023-04-18T11:36:23Z</time>
      </trkpt>
      <trkpt lat="42.96501" lon="-0.80381">
        <ele>1549.221</ele>
        <time>2023-04-18T11:36:28Z</time>
      </trkpt>
      <trkpt lat="42.96502" lon="-0.80373">
        <ele>1549.98</ele>
        <time>2023-04-18T11:36:33Z</time>
      </trkpt>
      <trkpt lat="42.96504" lon="-0.80367">
        <ele>1550.468</ele>
        <time>2023-04-18T11:36:38Z</time>
      </trkpt>
      <trkpt lat="42.96506" lon="-0.8036">
        <ele>1550.729</ele>
        <time>2023-04-18T11:36:44Z</time>
      </trkpt>
      <trkpt lat="42.96507" lon="-0.80353">
        <ele>1551.115</ele>
        <time>2023-04-18T11:36:49Z</time>
      </trkpt>
      <trkpt lat="42.96508" lon="-0.80347">
        <ele>1551.521</ele>
        <time>2023-04-18T11:36:53Z</time>
      </trkpt>
      <trkpt lat="42.9651" lon="-0.80339">
        <ele>1551.922</ele>
        <time>2023-04-18T11:36:57Z</time>
      </trkpt>
      <trkpt lat="42.96511" lon="-0.80334">
        <ele>1552.253</ele>
        <time>2023-04-18T11:37:02Z</time>
      </trkpt>
      <trkpt lat="42.96512" lon="-0.80327">
        <ele>1552.723</ele>
        <time>2023-04-18T11:37:07Z</time>
      </trkpt>
      <trkpt lat="42.96514" lon="-0.8032">
        <ele>1553.183</ele>
        <time>2023-04-18T11:37:12Z</time>
      </trkpt>
      <trkpt lat="42.96514" lon="-0.80313">
        <ele>1553.411</ele>
        <time>2023-04-18T11:37:16Z</time>
      </trkpt>
      <trkpt lat="42.96515" lon="-0.80307">
        <ele>1553.809</ele>
        <time>2023-04-18T11:37:20Z</time>
      </trkpt>
      <trkpt lat="42.96515" lon="-0.803">
        <ele>1553.843</ele>
        <time>2023-04-18T11:37:25Z</time>
      </trkpt>
      <trkpt lat="42.96513" lon="-0.80294">
        <ele>1553.855</ele>
        <time>2023-04-18T11:37:29Z</time>
      </trkpt>
      <trkpt lat="42.96511" lon="-0.80288">
        <ele>1553.434</ele>
        <time>2023-04-18T11:37:33Z</time>
      </trkpt>
      <trkpt lat="42.9651" lon="-0.80281">
        <ele>1552.982</ele>
        <time>2023-04-18T11:37:38Z</time>
      </trkpt>
      <trkpt lat="42.96509" lon="-0.80275">
        <ele>1552.953</ele>
        <time>2023-04-18T11:37:42Z</time>
      </trkpt>
      <trkpt lat="42.96511" lon="-0.80269">
        <ele>1552.999</ele>
        <time>2023-04-18T11:37:48Z</time>
      </trkpt>
      <trkpt lat="42.96512" lon="-0.80263">
        <ele>1553.235</ele>
        <time>2023-04-18T11:37:55Z</time>
      </trkpt>
      <trkpt lat="42.96513" lon="-0.80257">
        <ele>1553.756</ele>
        <time>2023-04-18T11:38:01Z</time>
      </trkpt>
      <trkpt lat="42.96514" lon="-0.8025">
        <ele>1555.037</ele>
        <time>2023-04-18T11:38:08Z</time>
      </trkpt>
      <trkpt lat="42.96517" lon="-0.80244">
        <ele>1556.442</ele>
        <time>2023-04-18T11:38:16Z</time>
      </trkpt>
      <trkpt lat="42.9652" lon="-0.80239">
        <ele>1557.722</ele>
        <time>2023-04-18T11:38:21Z</time>
      </trkpt>
      <trkpt lat="42.96524" lon="-0.80236">
        <ele>1559.014</ele>
        <time>2023-04-18T11:38:25Z</time>
      </trkpt>
      <trkpt lat="42.96528" lon="-0.80231">
        <ele>1559.809</ele>
        <time>2023-04-18T11:38:30Z</time>
      </trkpt>
      <trkpt lat="42.96532" lon="-0.80227">
        <ele>1560.155</ele>
        <time>2023-04-18T11:38:34Z</time>
      </trkpt>
      <trkpt lat="42.96536" lon="-0.80223">
        <ele>1560.287</ele>
        <time>2023-04-18T11:38:39Z</time>
      </trkpt>
      <trkpt lat="42.9654" lon="-0.80219">
        <ele>1560.486</ele>
        <time>2023-04-18T11:38:44Z</time>
      </trkpt>
      <trkpt lat="42.96545" lon="-0.80217">
        <ele>1560.724</ele>
        <time>2023-04-18T11:38:48Z</time>
      </trkpt>
      <trkpt lat="42.96547" lon="-0.80211">
        <ele>1560.825</ele>
        <time>2023-04-18T11:38:54Z</time>
      </trkpt>
      <trkpt lat="42.96549" lon="-0.80206">
        <ele>1561.051</ele>
        <time>2023-04-18T11:39:00Z</time>
      </trkpt>
      <trkpt lat="42.96554" lon="-0.80202">
        <ele>1561.567</ele>
        <time>2023-04-18T11:39:05Z</time>
      </trkpt>
      <trkpt lat="42.96558" lon="-0.802">
        <ele>1562.158</ele>
        <time>2023-04-18T11:39:10Z</time>
      </trkpt>
      <trkpt lat="42.96563" lon="-0.80199">
        <ele>1562.669</ele>
        <time>2023-04-18T11:39:14Z</time>
      </trkpt>
      <trkpt lat="42.96568" lon="-0.802">
        <ele>1563.287</ele>
        <time>2023-04-18T11:39:21Z</time>
      </trkpt>
      <trkpt lat="42.96573" lon="-0.80197">
        <ele>1563.842</ele>
        <time>2023-04-18T11:39:28Z</time>
      </trkpt>
      <trkpt lat="42.96576" lon="-0.80192">
        <ele>1564.526</ele>
        <time>2023-04-18T11:39:33Z</time>
      </trkpt>
      <trkpt lat="42.96581" lon="-0.80188">
        <ele>1565.409</ele>
        <time>2023-04-18T11:39:39Z</time>
      </trkpt>
      <trkpt lat="42.96585" lon="-0.80187">
        <ele>1566.059</ele>
        <time>2023-04-18T11:39:44Z</time>
      </trkpt>
      <trkpt lat="42.96588" lon="-0.80193">
        <ele>1566.441</ele>
        <time>2023-04-18T11:39:50Z</time>
      </trkpt>
      <trkpt lat="42.96586" lon="-0.80199">
        <ele>1567.24</ele>
        <time>2023-04-18T11:39:57Z</time>
      </trkpt>
      <trkpt lat="42.96591" lon="-0.802">
        <ele>1568.278</ele>
        <time>2023-04-18T11:40:03Z</time>
      </trkpt>
      <trkpt lat="42.96596" lon="-0.80197">
        <ele>1569.129</ele>
        <time>2023-04-18T11:40:11Z</time>
      </trkpt>
      <trkpt lat="42.96601" lon="-0.80196">
        <ele>1570.285</ele>
        <time>2023-04-18T11:40:18Z</time>
      </trkpt>
      <trkpt lat="42.96607" lon="-0.80195">
        <ele>1571.351</ele>
        <time>2023-04-18T11:40:25Z</time>
      </trkpt>
      <trkpt lat="42.96611" lon="-0.802">
        <ele>1572.522</ele>
        <time>2023-04-18T11:40:33Z</time>
      </trkpt>
      <trkpt lat="42.96615" lon="-0.80201">
        <ele>1573.853</ele>
        <time>2023-04-18T11:40:40Z</time>
      </trkpt>
      <trkpt lat="42.96621" lon="-0.80203">
        <ele>1575.425</ele>
        <time>2023-04-18T11:40:47Z</time>
      </trkpt>
      <trkpt lat="42.96625" lon="-0.80207">
        <ele>1576.526</ele>
        <time>2023-04-18T11:40:54Z</time>
      </trkpt>
      <trkpt lat="42.96628" lon="-0.80216">
        <ele>1577.808</ele>
        <time>2023-04-18T11:41:04Z</time>
      </trkpt>
      <trkpt lat="42.96628" lon="-0.80222">
        <ele>1579.109</ele>
        <time>2023-04-18T11:41:11Z</time>
      </trkpt>
      <trkpt lat="42.96633" lon="-0.80224">
        <ele>1580.683</ele>
        <time>2023-04-18T11:41:19Z</time>
      </trkpt>
      <trkpt lat="42.96638" lon="-0.80224">
        <ele>1581.735</ele>
        <time>2023-04-18T11:41:27Z</time>
      </trkpt>
      <trkpt lat="42.96643" lon="-0.80223">
        <ele>1582.464</ele>
        <time>2023-04-18T11:41:33Z</time>
      </trkpt>
      <trkpt lat="42.96646" lon="-0.80228">
        <ele>1583.872</ele>
        <time>2023-04-18T11:41:39Z</time>
      </trkpt>
      <trkpt lat="42.9665" lon="-0.80229">
        <ele>1584.773</ele>
        <time>2023-04-18T11:41:48Z</time>
      </trkpt>
      <trkpt lat="42.96655" lon="-0.80233">
        <ele>1585.689</ele>
        <time>2023-04-18T11:41:55Z</time>
      </trkpt>
      <trkpt lat="42.96659" lon="-0.80235">
        <ele>1586.925</ele>
        <time>2023-04-18T11:42:02Z</time>
      </trkpt>
      <trkpt lat="42.96661" lon="-0.8024">
        <ele>1588.286</ele>
        <time>2023-04-18T11:42:07Z</time>
      </trkpt>
      <trkpt lat="42.96666" lon="-0.80243">
        <ele>1589.237</ele>
        <time>2023-04-18T11:42:15Z</time>
      </trkpt>
      <trkpt lat="42.9667" lon="-0.80246">
        <ele>1590.134</ele>
        <time>2023-04-18T11:42:22Z</time>
      </trkpt>
      <trkpt lat="42.96675" lon="-0.80248">
        <ele>1591.155</ele>
        <time>2023-04-18T11:42:29Z</time>
      </trkpt>
      <trkpt lat="42.96679" lon="-0.8025">
        <ele>1592.41</ele>
        <time>2023-04-18T11:42:36Z</time>
      </trkpt>
      <trkpt lat="42.96684" lon="-0.80253">
        <ele>1593.409</ele>
        <time>2023-04-18T11:42:41Z</time>
      </trkpt>
      <trkpt lat="42.96688" lon="-0.80255">
        <ele>1594.054</ele>
        <time>2023-04-18T11:42:48Z</time>
      </trkpt>
      <trkpt lat="42.9669" lon="-0.80261">
        <ele>1594.896</ele>
        <time>2023-04-18T11:42:54Z</time>
      </trkpt>
      <trkpt lat="42.96693" lon="-0.80267">
        <ele>1595.615</ele>
        <time>2023-04-18T11:43:00Z</time>
      </trkpt>
      <trkpt lat="42.96697" lon="-0.80269">
        <ele>1596.293</ele>
        <time>2023-04-18T11:43:07Z</time>
      </trkpt>
      <trkpt lat="42.96699" lon="-0.80275">
        <ele>1596.874</ele>
        <time>2023-04-18T11:43:12Z</time>
      </trkpt>
      <trkpt lat="42.967" lon="-0.80281">
        <ele>1597.85</ele>
        <time>2023-04-18T11:43:17Z</time>
      </trkpt>
      <trkpt lat="42.96705" lon="-0.80283">
        <ele>1598.526</ele>
        <time>2023-04-18T11:43:24Z</time>
      </trkpt>
      <trkpt lat="42.96708" lon="-0.80288">
        <ele>1599.037</ele>
        <time>2023-04-18T11:43:31Z</time>
      </trkpt>
      <trkpt lat="42.96712" lon="-0.80293">
        <ele>1599.998</ele>
        <time>2023-04-18T11:43:40Z</time>
      </trkpt>
      <trkpt lat="42.96715" lon="-0.80298">
        <ele>1601.214</ele>
        <time>2023-04-18T11:43:47Z</time>
      </trkpt>
      <trkpt lat="42.96718" lon="-0.80303">
        <ele>1602.754</ele>
        <time>2023-04-18T11:43:55Z</time>
      </trkpt>
      <trkpt lat="42.9672" lon="-0.80309">
        <ele>1604.309</ele>
        <time>2023-04-18T11:44:02Z</time>
      </trkpt>
      <trkpt lat="42.96723" lon="-0.80315">
        <ele>1605.909</ele>
        <time>2023-04-18T11:44:09Z</time>
      </trkpt>
      <trkpt lat="42.96728" lon="-0.80315">
        <ele>1607.352</ele>
        <time>2023-04-18T11:44:16Z</time>
      </trkpt>
      <trkpt lat="42.96732" lon="-0.80318">
        <ele>1608.624</ele>
        <time>2023-04-18T11:44:22Z</time>
      </trkpt>
      <trkpt lat="42.96737" lon="-0.80321">
        <ele>1609.713</ele>
        <time>2023-04-18T11:44:28Z</time>
      </trkpt>
      <trkpt lat="42.96742" lon="-0.80321">
        <ele>1610.881</ele>
        <time>2023-04-18T11:44:33Z</time>
      </trkpt>
      <trkpt lat="42.96744" lon="-0.80328">
        <ele>1611.792</ele>
        <time>2023-04-18T11:44:39Z</time>
      </trkpt>
      <trkpt lat="42.96747" lon="-0.80333">
        <ele>1612.598</ele>
        <time>2023-04-18T11:44:45Z</time>
      </trkpt>
      <trkpt lat="42.96747" lon="-0.8034">
        <ele>1613.644</ele>
        <time>2023-04-18T11:44:50Z</time>
      </trkpt>
      <trkpt lat="42.96751" lon="-0.80346">
        <ele>1614.585</ele>
        <time>2023-04-18T11:44:56Z</time>
      </trkpt>
      <trkpt lat="42.96756" lon="-0.80345">
        <ele>1615.436</ele>
        <time>2023-04-18T11:45:02Z</time>
      </trkpt>
      <trkpt lat="42.9676" lon="-0.80348">
        <ele>1616.177</ele>
        <time>2023-04-18T11:45:07Z</time>
      </trkpt>
      <trkpt lat="42.96764" lon="-0.80352">
        <ele>1616.861</ele>
        <time>2023-04-18T11:45:12Z</time>
      </trkpt>
      <trkpt lat="42.96768" lon="-0.80355">
        <ele>1617.327</ele>
        <time>2023-04-18T11:45:17Z</time>
      </trkpt>
      <trkpt lat="42.96771" lon="-0.8036">
        <ele>1617.609</ele>
        <time>2023-04-18T11:45:22Z</time>
      </trkpt>
      <trkpt lat="42.96774" lon="-0.80367">
        <ele>1617.878</ele>
        <time>2023-04-18T11:45:32Z</time>
      </trkpt>
      <trkpt lat="42.96776" lon="-0.80372">
        <ele>1617.89</ele>
        <time>2023-04-18T11:46:35Z</time>
      </trkpt>
      <trkpt lat="42.96773" lon="-0.80376">
        <ele>1617.969</ele>
        <time>2023-04-18T11:48:07Z</time>
      </trkpt>
      <trkpt lat="42.96772" lon="-0.80384">
        <ele>1617.947</ele>
        <time>2023-04-18T11:48:12Z</time>
      </trkpt>
      <trkpt lat="42.96776" lon="-0.80388">
        <ele>1618.058</ele>
        <time>2023-04-18T11:48:15Z</time>
      </trkpt>
      <trkpt lat="42.96778" lon="-0.80394">
        <ele>1618.074</ele>
        <time>2023-04-18T11:48:20Z</time>
      </trkpt>
      <trkpt lat="42.96781" lon="-0.80399">
        <ele>1617.83</ele>
        <time>2023-04-18T11:48:24Z</time>
      </trkpt>
      <trkpt lat="42.96784" lon="-0.80405">
        <ele>1617.851</ele>
        <time>2023-04-18T11:48:27Z</time>
      </trkpt>
      <trkpt lat="42.96787" lon="-0.8041">
        <ele>1617.632</ele>
        <time>2023-04-18T11:48:31Z</time>
      </trkpt>
      <trkpt lat="42.9679" lon="-0.80416">
        <ele>1617.483</ele>
        <time>2023-04-18T11:48:35Z</time>
      </trkpt>
      <trkpt lat="42.96791" lon="-0.80423">
        <ele>1617.225</ele>
        <time>2023-04-18T11:48:39Z</time>
      </trkpt>
      <trkpt lat="42.96795" lon="-0.80428">
        <ele>1617.017</ele>
        <time>2023-04-18T11:48:43Z</time>
      </trkpt>
      <trkpt lat="42.96798" lon="-0.80435">
        <ele>1616.709</ele>
        <time>2023-04-18T11:48:47Z</time>
      </trkpt>
      <trkpt lat="42.968" lon="-0.80441">
        <ele>1616.439</ele>
        <time>2023-04-18T11:48:51Z</time>
      </trkpt>
      <trkpt lat="42.96803" lon="-0.80445">
        <ele>1616.121</ele>
        <time>2023-04-18T11:48:55Z</time>
      </trkpt>
      <trkpt lat="42.96807" lon="-0.80451">
        <ele>1616.08</ele>
        <time>2023-04-18T11:49:00Z</time>
      </trkpt>
      <trkpt lat="42.9681" lon="-0.80456">
        <ele>1615.868</ele>
        <time>2023-04-18T11:49:04Z</time>
      </trkpt>
      <trkpt lat="42.96812" lon="-0.80462">
        <ele>1615.349</ele>
        <time>2023-04-18T11:49:07Z</time>
      </trkpt>
      <trkpt lat="42.96815" lon="-0.80469">
        <ele>1614.845</ele>
        <time>2023-04-18T11:49:11Z</time>
      </trkpt>
      <trkpt lat="42.96818" lon="-0.80474">
        <ele>1614.521</ele>
        <time>2023-04-18T11:49:14Z</time>
      </trkpt>
      <trkpt lat="42.96821" lon="-0.8048">
        <ele>1614.282</ele>
        <time>2023-04-18T11:49:18Z</time>
      </trkpt>
      <trkpt lat="42.96824" lon="-0.80485">
        <ele>1613.973</ele>
        <time>2023-04-18T11:49:22Z</time>
      </trkpt>
      <trkpt lat="42.96827" lon="-0.80492">
        <ele>1613.797</ele>
        <time>2023-04-18T11:49:26Z</time>
      </trkpt>
      <trkpt lat="42.96831" lon="-0.80496">
        <ele>1613.323</ele>
        <time>2023-04-18T11:49:30Z</time>
      </trkpt>
      <trkpt lat="42.96835" lon="-0.805">
        <ele>1612.925</ele>
        <time>2023-04-18T11:49:34Z</time>
      </trkpt>
      <trkpt lat="42.96838" lon="-0.80506">
        <ele>1612.709</ele>
        <time>2023-04-18T11:49:39Z</time>
      </trkpt>
      <trkpt lat="42.9684" lon="-0.80511">
        <ele>1612.56</ele>
        <time>2023-04-18T11:50:58Z</time>
      </trkpt>
      <trkpt lat="42.96844" lon="-0.80515">
        <ele>1612.152</ele>
        <time>2023-04-18T11:51:04Z</time>
      </trkpt>
      <trkpt lat="42.96848" lon="-0.80519">
        <ele>1611.361</ele>
        <time>2023-04-18T11:51:08Z</time>
      </trkpt>
      <trkpt lat="42.96853" lon="-0.80521">
        <ele>1610.629</ele>
        <time>2023-04-18T11:51:12Z</time>
      </trkpt>
      <trkpt lat="42.96857" lon="-0.80525">
        <ele>1610.15</ele>
        <time>2023-04-18T11:51:16Z</time>
      </trkpt>
      <trkpt lat="42.96861" lon="-0.80528">
        <ele>1609.666</ele>
        <time>2023-04-18T11:51:20Z</time>
      </trkpt>
      <trkpt lat="42.96865" lon="-0.80531">
        <ele>1609.252</ele>
        <time>2023-04-18T11:51:25Z</time>
      </trkpt>
      <trkpt lat="42.96869" lon="-0.80535">
        <ele>1608.613</ele>
        <time>2023-04-18T11:51:29Z</time>
      </trkpt>
      <trkpt lat="42.96872" lon="-0.80541">
        <ele>1608.074</ele>
        <time>2023-04-18T11:51:33Z</time>
      </trkpt>
      <trkpt lat="42.96875" lon="-0.80547">
        <ele>1607.437</ele>
        <time>2023-04-18T11:51:37Z</time>
      </trkpt>
      <trkpt lat="42.96879" lon="-0.80551">
        <ele>1606.949</ele>
        <time>2023-04-18T11:51:41Z</time>
      </trkpt>
      <trkpt lat="42.96883" lon="-0.80555">
        <ele>1606.413</ele>
        <time>2023-04-18T11:51:45Z</time>
      </trkpt>
      <trkpt lat="42.96887" lon="-0.80559">
        <ele>1605.709</ele>
        <time>2023-04-18T11:51:49Z</time>
      </trkpt>
      <trkpt lat="42.9689" lon="-0.80564">
        <ele>1605.294</ele>
        <time>2023-04-18T11:51:53Z</time>
      </trkpt>
      <trkpt lat="42.96895" lon="-0.80566">
        <ele>1604.926</ele>
        <time>2023-04-18T11:51:57Z</time>
      </trkpt>
      <trkpt lat="42.96899" lon="-0.80571">
        <ele>1604.475</ele>
        <time>2023-04-18T11:52:02Z</time>
      </trkpt>
      <trkpt lat="42.96904" lon="-0.80574">
        <ele>1604.093</ele>
        <time>2023-04-18T11:52:07Z</time>
      </trkpt>
      <trkpt lat="42.96909" lon="-0.80576">
        <ele>1603.284</ele>
        <time>2023-04-18T11:52:12Z</time>
      </trkpt>
      <trkpt lat="42.96914" lon="-0.80574">
        <ele>1602.41</ele>
        <time>2023-04-18T11:52:17Z</time>
      </trkpt>
      <trkpt lat="42.96919" lon="-0.80573">
        <ele>1602.446</ele>
        <time>2023-04-18T11:52:21Z</time>
      </trkpt>
      <trkpt lat="42.96924" lon="-0.80571">
        <ele>1602.427</ele>
        <time>2023-04-18T11:52:25Z</time>
      </trkpt>
      <trkpt lat="42.96929" lon="-0.8057">
        <ele>1604.238</ele>
        <time>2023-04-18T11:52:29Z</time>
      </trkpt>
      <trkpt lat="42.96934" lon="-0.80567">
        <ele>1606.053</ele>
        <time>2023-04-18T11:52:34Z</time>
      </trkpt>
      <trkpt lat="42.96938" lon="-0.80565">
        <ele>1606.204</ele>
        <time>2023-04-18T11:52:40Z</time>
      </trkpt>
      <trkpt lat="42.96943" lon="-0.80565">
        <ele>1606.214</ele>
        <time>2023-04-18T11:52:45Z</time>
      </trkpt>
      <trkpt lat="42.96949" lon="-0.80563">
        <ele>1605.909</ele>
        <time>2023-04-18T11:52:49Z</time>
      </trkpt>
      <trkpt lat="42.96953" lon="-0.80562">
        <ele>1605.536</ele>
        <time>2023-04-18T11:52:53Z</time>
      </trkpt>
      <trkpt lat="42.96959" lon="-0.80561">
        <ele>1605.118</ele>
        <time>2023-04-18T11:52:58Z</time>
      </trkpt>
      <trkpt lat="42.96963" lon="-0.80559">
        <ele>1604.767</ele>
        <time>2023-04-18T11:53:02Z</time>
      </trkpt>
      <trkpt lat="42.96968" lon="-0.80555">
        <ele>1604.595</ele>
        <time>2023-04-18T11:53:07Z</time>
      </trkpt>
      <trkpt lat="42.96974" lon="-0.80552">
        <ele>1604.576</ele>
        <time>2023-04-18T11:53:12Z</time>
      </trkpt>
      <trkpt lat="42.96979" lon="-0.80551">
        <ele>1604.362</ele>
        <time>2023-04-18T11:53:17Z</time>
      </trkpt>
      <trkpt lat="42.96984" lon="-0.80548">
        <ele>1604.378</ele>
        <time>2023-04-18T11:53:21Z</time>
      </trkpt>
      <trkpt lat="42.96988" lon="-0.80546">
        <ele>1604.379</ele>
        <time>2023-04-18T11:53:25Z</time>
      </trkpt>
      <trkpt lat="42.96993" lon="-0.80544">
        <ele>1604.35</ele>
        <time>2023-04-18T11:53:29Z</time>
      </trkpt>
      <trkpt lat="42.96997" lon="-0.80543">
        <ele>1604.271</ele>
        <time>2023-04-18T11:53:33Z</time>
      </trkpt>
      <trkpt lat="42.97002" lon="-0.8054">
        <ele>1604.141</ele>
        <time>2023-04-18T11:53:37Z</time>
      </trkpt>
      <trkpt lat="42.97007" lon="-0.80537">
        <ele>1604.015</ele>
        <time>2023-04-18T11:53:42Z</time>
      </trkpt>
      <trkpt lat="42.97011" lon="-0.80534">
        <ele>1604.009</ele>
        <time>2023-04-18T11:53:46Z</time>
      </trkpt>
      <trkpt lat="42.97015" lon="-0.80531">
        <ele>1603.968</ele>
        <time>2023-04-18T11:53:50Z</time>
      </trkpt>
      <trkpt lat="42.9702" lon="-0.80527">
        <ele>1603.91</ele>
        <time>2023-04-18T11:53:54Z</time>
      </trkpt>
      <trkpt lat="42.97025" lon="-0.80525">
        <ele>1603.879</ele>
        <time>2023-04-18T11:53:59Z</time>
      </trkpt>
      <trkpt lat="42.97029" lon="-0.80522">
        <ele>1603.847</ele>
        <time>2023-04-18T11:54:03Z</time>
      </trkpt>
      <trkpt lat="42.97033" lon="-0.80519">
        <ele>1603.888</ele>
        <time>2023-04-18T11:54:07Z</time>
      </trkpt>
      <trkpt lat="42.97038" lon="-0.80517">
        <ele>1603.884</ele>
        <time>2023-04-18T11:54:12Z</time>
      </trkpt>
      <trkpt lat="42.97043" lon="-0.80516">
        <ele>1603.85</ele>
        <time>2023-04-18T11:54:16Z</time>
      </trkpt>
      <trkpt lat="42.97047" lon="-0.80512">
        <ele>1603.741</ele>
        <time>2023-04-18T11:54:20Z</time>
      </trkpt>
      <trkpt lat="42.97051" lon="-0.80508">
        <ele>1603.472</ele>
        <time>2023-04-18T11:54:25Z</time>
      </trkpt>
      <trkpt lat="42.97056" lon="-0.80505">
        <ele>1603.262</ele>
        <time>2023-04-18T11:54:30Z</time>
      </trkpt>
      <trkpt lat="42.97061" lon="-0.80504">
        <ele>1603.283</ele>
        <time>2023-04-18T11:54:34Z</time>
      </trkpt>
      <trkpt lat="42.97065" lon="-0.805">
        <ele>1603.011</ele>
        <time>2023-04-18T11:54:38Z</time>
      </trkpt>
      <trkpt lat="42.9707" lon="-0.80497">
        <ele>1602.709</ele>
        <time>2023-04-18T11:54:43Z</time>
      </trkpt>
      <trkpt lat="42.97075" lon="-0.80495">
        <ele>1602.367</ele>
        <time>2023-04-18T11:54:47Z</time>
      </trkpt>
      <trkpt lat="42.9708" lon="-0.80494">
        <ele>1602.079</ele>
        <time>2023-04-18T11:54:51Z</time>
      </trkpt>
      <trkpt lat="42.97086" lon="-0.80492">
        <ele>1601.338</ele>
        <time>2023-04-18T11:54:56Z</time>
      </trkpt>
      <trkpt lat="42.97091" lon="-0.8049">
        <ele>1601.256</ele>
        <time>2023-04-18T11:55:00Z</time>
      </trkpt>
      <trkpt lat="42.97096" lon="-0.80489">
        <ele>1601.077</ele>
        <time>2023-04-18T11:55:04Z</time>
      </trkpt>
      <trkpt lat="42.97101" lon="-0.80486">
        <ele>1600.733</ele>
        <time>2023-04-18T11:55:08Z</time>
      </trkpt>
      <trkpt lat="42.97106" lon="-0.80484">
        <ele>1600.489</ele>
        <time>2023-04-18T11:55:12Z</time>
      </trkpt>
      <trkpt lat="42.97111" lon="-0.80481">
        <ele>1600.25</ele>
        <time>2023-04-18T11:55:17Z</time>
      </trkpt>
      <trkpt lat="42.97115" lon="-0.80478">
        <ele>1600.191</ele>
        <time>2023-04-18T11:55:21Z</time>
      </trkpt>
      <trkpt lat="42.9712" lon="-0.80478">
        <ele>1600.029</ele>
        <time>2023-04-18T11:55:25Z</time>
      </trkpt>
      <trkpt lat="42.97124" lon="-0.80475">
        <ele>1599.9</ele>
        <time>2023-04-18T11:55:29Z</time>
      </trkpt>
      <trkpt lat="42.97128" lon="-0.80472">
        <ele>1599.72</ele>
        <time>2023-04-18T11:55:33Z</time>
      </trkpt>
      <trkpt lat="42.97133" lon="-0.80471">
        <ele>1599.509</ele>
        <time>2023-04-18T11:55:37Z</time>
      </trkpt>
      <trkpt lat="42.97137" lon="-0.80467">
        <ele>1599.453</ele>
        <time>2023-04-18T11:55:41Z</time>
      </trkpt>
      <trkpt lat="42.9714" lon="-0.80464">
        <ele>1599.335</ele>
        <time>2023-04-18T11:55:45Z</time>
      </trkpt>
      <trkpt lat="42.97144" lon="-0.8046">
        <ele>1599.154</ele>
        <time>2023-04-18T11:55:49Z</time>
      </trkpt>
      <trkpt lat="42.97149" lon="-0.80461">
        <ele>1598.952</ele>
        <time>2023-04-18T11:55:54Z</time>
      </trkpt>
      <trkpt lat="42.97154" lon="-0.80463">
        <ele>1598.773</ele>
        <time>2023-04-18T11:55:59Z</time>
      </trkpt>
      <trkpt lat="42.97159" lon="-0.80464">
        <ele>1598.479</ele>
        <time>2023-04-18T11:56:03Z</time>
      </trkpt>
      <trkpt lat="42.97163" lon="-0.80464">
        <ele>1597.835</ele>
        <time>2023-04-18T11:56:07Z</time>
      </trkpt>
      <trkpt lat="42.97167" lon="-0.8046">
        <ele>1596.886</ele>
        <time>2023-04-18T11:56:12Z</time>
      </trkpt>
      <trkpt lat="42.9717" lon="-0.80455">
        <ele>1595.937</ele>
        <time>2023-04-18T11:56:17Z</time>
      </trkpt>
      <trkpt lat="42.97173" lon="-0.80449">
        <ele>1595.443</ele>
        <time>2023-04-18T11:56:21Z</time>
      </trkpt>
      <trkpt lat="42.97176" lon="-0.80443">
        <ele>1595.164</ele>
        <time>2023-04-18T11:56:25Z</time>
      </trkpt>
      <trkpt lat="42.97178" lon="-0.80438">
        <ele>1595.11</ele>
        <time>2023-04-18T11:56:30Z</time>
      </trkpt>
      <trkpt lat="42.97181" lon="-0.80433">
        <ele>1595.009</ele>
        <time>2023-04-18T11:56:34Z</time>
      </trkpt>
      <trkpt lat="42.97183" lon="-0.80427">
        <ele>1595.075</ele>
        <time>2023-04-18T11:56:39Z</time>
      </trkpt>
      <trkpt lat="42.97187" lon="-0.80421">
        <ele>1595.067</ele>
        <time>2023-04-18T11:56:45Z</time>
      </trkpt>
      <trkpt lat="42.9719" lon="-0.80415">
        <ele>1595.186</ele>
        <time>2023-04-18T11:56:50Z</time>
      </trkpt>
      <trkpt lat="42.97193" lon="-0.80409">
        <ele>1595.164</ele>
        <time>2023-04-18T11:56:55Z</time>
      </trkpt>
      <trkpt lat="42.97196" lon="-0.80404">
        <ele>1595.145</ele>
        <time>2023-04-18T11:56:59Z</time>
      </trkpt>
      <trkpt lat="42.97198" lon="-0.80398">
        <ele>1595.231</ele>
        <time>2023-04-18T11:57:04Z</time>
      </trkpt>
      <trkpt lat="42.97202" lon="-0.80392">
        <ele>1595.467</ele>
        <time>2023-04-18T11:57:08Z</time>
      </trkpt>
      <trkpt lat="42.97204" lon="-0.80385">
        <ele>1595.588</ele>
        <time>2023-04-18T11:57:13Z</time>
      </trkpt>
      <trkpt lat="42.97206" lon="-0.8038">
        <ele>1595.559</ele>
        <time>2023-04-18T11:57:17Z</time>
      </trkpt>
      <trkpt lat="42.97209" lon="-0.80375">
        <ele>1595.681</ele>
        <time>2023-04-18T11:57:22Z</time>
      </trkpt>
      <trkpt lat="42.97213" lon="-0.8037">
        <ele>1595.661</ele>
        <time>2023-04-18T11:57:26Z</time>
      </trkpt>
      <trkpt lat="42.97217" lon="-0.80366">
        <ele>1595.617</ele>
        <time>2023-04-18T11:57:31Z</time>
      </trkpt>
      <trkpt lat="42.97219" lon="-0.80361">
        <ele>1595.609</ele>
        <time>2023-04-18T11:57:36Z</time>
      </trkpt>
      <trkpt lat="42.97222" lon="-0.80355">
        <ele>1595.279</ele>
        <time>2023-04-18T11:57:40Z</time>
      </trkpt>
      <trkpt lat="42.97225" lon="-0.8035">
        <ele>1594.831</ele>
        <time>2023-04-18T11:57:45Z</time>
      </trkpt>
      <trkpt lat="42.97229" lon="-0.80345">
        <ele>1594.72</ele>
        <time>2023-04-18T11:57:50Z</time>
      </trkpt>
      <trkpt lat="42.97232" lon="-0.8034">
        <ele>1594.528</ele>
        <time>2023-04-18T11:57:54Z</time>
      </trkpt>
      <trkpt lat="42.97235" lon="-0.80333">
        <ele>1594.289</ele>
        <time>2023-04-18T11:58:00Z</time>
      </trkpt>
      <trkpt lat="42.97238" lon="-0.80327">
        <ele>1594.035</ele>
        <time>2023-04-18T11:58:05Z</time>
      </trkpt>
      <trkpt lat="42.97241" lon="-0.80322">
        <ele>1593.991</ele>
        <time>2023-04-18T11:58:10Z</time>
      </trkpt>
      <trkpt lat="42.97243" lon="-0.80316">
        <ele>1593.852</ele>
        <time>2023-04-18T11:58:14Z</time>
      </trkpt>
      <trkpt lat="42.97246" lon="-0.80309">
        <ele>1593.793</ele>
        <time>2023-04-18T11:58:19Z</time>
      </trkpt>
      <trkpt lat="42.9725" lon="-0.80304">
        <ele>1593.592</ele>
        <time>2023-04-18T11:58:24Z</time>
      </trkpt>
      <trkpt lat="42.97253" lon="-0.80298">
        <ele>1593.273</ele>
        <time>2023-04-18T11:58:29Z</time>
      </trkpt>
      <trkpt lat="42.97255" lon="-0.80293">
        <ele>1592.92</ele>
        <time>2023-04-18T11:58:33Z</time>
      </trkpt>
      <trkpt lat="42.97257" lon="-0.80287">
        <ele>1592.709</ele>
        <time>2023-04-18T11:58:37Z</time>
      </trkpt>
      <trkpt lat="42.97259" lon="-0.80281">
        <ele>1592.57</ele>
        <time>2023-04-18T11:58:41Z</time>
      </trkpt>
      <trkpt lat="42.97259" lon="-0.80274">
        <ele>1592.522</ele>
        <time>2023-04-18T11:58:45Z</time>
      </trkpt>
      <trkpt lat="42.97261" lon="-0.80267">
        <ele>1592.451</ele>
        <time>2023-04-18T11:58:50Z</time>
      </trkpt>
      <trkpt lat="42.97263" lon="-0.8026">
        <ele>1592.469</ele>
        <time>2023-04-18T11:58:55Z</time>
      </trkpt>
      <trkpt lat="42.97265" lon="-0.80253">
        <ele>1592.45</ele>
        <time>2023-04-18T11:59:00Z</time>
      </trkpt>
      <trkpt lat="42.97267" lon="-0.80246">
        <ele>1592.466</ele>
        <time>2023-04-18T11:59:05Z</time>
      </trkpt>
      <trkpt lat="42.97268" lon="-0.80239">
        <ele>1592.472</ele>
        <time>2023-04-18T11:59:10Z</time>
      </trkpt>
      <trkpt lat="42.9727" lon="-0.80232">
        <ele>1591.973</ele>
        <time>2023-04-18T11:59:15Z</time>
      </trkpt>
      <trkpt lat="42.97272" lon="-0.80226">
        <ele>1591.974</ele>
        <time>2023-04-18T11:59:20Z</time>
      </trkpt>
      <trkpt lat="42.97275" lon="-0.80221">
        <ele>1591.752</ele>
        <time>2023-04-18T11:59:25Z</time>
      </trkpt>
      <trkpt lat="42.97277" lon="-0.80215">
        <ele>1591.153</ele>
        <time>2023-04-18T11:59:52Z</time>
      </trkpt>
      <trkpt lat="42.97282" lon="-0.80214">
        <ele>1590.308</ele>
        <time>2023-04-18T11:59:56Z</time>
      </trkpt>
      <trkpt lat="42.97286" lon="-0.80217">
        <ele>1589.809</ele>
        <time>2023-04-18T12:00:01Z</time>
      </trkpt>
      <trkpt lat="42.97291" lon="-0.80219">
        <ele>1589.526</ele>
        <time>2023-04-18T12:00:07Z</time>
      </trkpt>
      <trkpt lat="42.97296" lon="-0.8022">
        <ele>1588.848</ele>
        <time>2023-04-18T12:00:13Z</time>
      </trkpt>
      <trkpt lat="42.973" lon="-0.80218">
        <ele>1587.417</ele>
        <time>2023-04-18T12:00:19Z</time>
      </trkpt>
      <trkpt lat="42.97305" lon="-0.80218">
        <ele>1585.755</ele>
        <time>2023-04-18T12:00:26Z</time>
      </trkpt>
      <trkpt lat="42.9731" lon="-0.80216">
        <ele>1583.866</ele>
        <time>2023-04-18T12:00:34Z</time>
      </trkpt>
      <trkpt lat="42.97314" lon="-0.8022">
        <ele>1581.832</ele>
        <time>2023-04-18T12:00:41Z</time>
      </trkpt>
      <trkpt lat="42.97319" lon="-0.8022">
        <ele>1579.618</ele>
        <time>2023-04-18T12:00:49Z</time>
      </trkpt>
      <trkpt lat="42.97324" lon="-0.80222">
        <ele>1577.429</ele>
        <time>2023-04-18T12:00:56Z</time>
      </trkpt>
      <trkpt lat="42.97329" lon="-0.80224">
        <ele>1575.22</ele>
        <time>2023-04-18T12:01:07Z</time>
      </trkpt>
      <trkpt lat="42.97334" lon="-0.80226">
        <ele>1572.982</ele>
        <time>2023-04-18T12:01:15Z</time>
      </trkpt>
      <trkpt lat="42.97339" lon="-0.80224">
        <ele>1570.943</ele>
        <time>2023-04-18T12:01:22Z</time>
      </trkpt>
      <trkpt lat="42.97344" lon="-0.80223">
        <ele>1568.817</ele>
        <time>2023-04-18T12:01:31Z</time>
      </trkpt>
      <trkpt lat="42.97348" lon="-0.80222">
        <ele>1566.309</ele>
        <time>2023-04-18T12:01:38Z</time>
      </trkpt>
      <trkpt lat="42.97353" lon="-0.80222">
        <ele>1563.899</ele>
        <time>2023-04-18T12:01:46Z</time>
      </trkpt>
      <trkpt lat="42.97358" lon="-0.80224">
        <ele>1561.411</ele>
        <time>2023-04-18T12:01:52Z</time>
      </trkpt>
      <trkpt lat="42.97362" lon="-0.80225">
        <ele>1558.99</ele>
        <time>2023-04-18T12:01:59Z</time>
      </trkpt>
      <trkpt lat="42.97366" lon="-0.80221">
        <ele>1556.878</ele>
        <time>2023-04-18T12:02:08Z</time>
      </trkpt>
      <trkpt lat="42.9737" lon="-0.80224">
        <ele>1554.779</ele>
        <time>2023-04-18T12:02:18Z</time>
      </trkpt>
      <trkpt lat="42.97374" lon="-0.80227">
        <ele>1552.125</ele>
        <time>2023-04-18T12:02:26Z</time>
      </trkpt>
      <trkpt lat="42.97378" lon="-0.80231">
        <ele>1549.611</ele>
        <time>2023-04-18T12:02:33Z</time>
      </trkpt>
      <trkpt lat="42.97382" lon="-0.80233">
        <ele>1547.372</ele>
        <time>2023-04-18T12:02:41Z</time>
      </trkpt>
      <trkpt lat="42.97387" lon="-0.80232">
        <ele>1545.143</ele>
        <time>2023-04-18T12:02:48Z</time>
      </trkpt>
      <trkpt lat="42.97392" lon="-0.80231">
        <ele>1542.844</ele>
        <time>2023-04-18T12:02:55Z</time>
      </trkpt>
      <trkpt lat="42.97396" lon="-0.80228">
        <ele>1540.405</ele>
        <time>2023-04-18T12:03:02Z</time>
      </trkpt>
      <trkpt lat="42.974" lon="-0.80225">
        <ele>1538.215</ele>
        <time>2023-04-18T12:03:08Z</time>
      </trkpt>
      <trkpt lat="42.97405" lon="-0.80223">
        <ele>1536.109</ele>
        <time>2023-04-18T12:03:15Z</time>
      </trkpt>
      <trkpt lat="42.97409" lon="-0.80224">
        <ele>1534.125</ele>
        <time>2023-04-18T12:03:21Z</time>
      </trkpt>
      <trkpt lat="42.97414" lon="-0.80221">
        <ele>1532.017</ele>
        <time>2023-04-18T12:03:28Z</time>
      </trkpt>
      <trkpt lat="42.97419" lon="-0.8022">
        <ele>1530.056</ele>
        <time>2023-04-18T12:03:36Z</time>
      </trkpt>
      <trkpt lat="42.97424" lon="-0.8022">
        <ele>1528.234</ele>
        <time>2023-04-18T12:03:43Z</time>
      </trkpt>
      <trkpt lat="42.97429" lon="-0.80222">
        <ele>1526.155</ele>
        <time>2023-04-18T12:03:50Z</time>
      </trkpt>
      <trkpt lat="42.97435" lon="-0.80222">
        <ele>1523.991</ele>
        <time>2023-04-18T12:03:57Z</time>
      </trkpt>
      <trkpt lat="42.97439" lon="-0.8022">
        <ele>1521.717</ele>
        <time>2023-04-18T12:04:05Z</time>
      </trkpt>
      <trkpt lat="42.97444" lon="-0.8022">
        <ele>1519.458</ele>
        <time>2023-04-18T12:04:13Z</time>
      </trkpt>
      <trkpt lat="42.97449" lon="-0.80219">
        <ele>1516.959</ele>
        <time>2023-04-18T12:04:20Z</time>
      </trkpt>
      <trkpt lat="42.97453" lon="-0.80223">
        <ele>1514.269</ele>
        <time>2023-04-18T12:04:25Z</time>
      </trkpt>
      <trkpt lat="42.97457" lon="-0.80227">
        <ele>1511.604</ele>
        <time>2023-04-18T12:04:30Z</time>
      </trkpt>
      <trkpt lat="42.97461" lon="-0.80231">
        <ele>1509.724</ele>
        <time>2023-04-18T12:04:36Z</time>
      </trkpt>
      <trkpt lat="42.97466" lon="-0.80232">
        <ele>1508.109</ele>
        <time>2023-04-18T12:04:42Z</time>
      </trkpt>
      <trkpt lat="42.97471" lon="-0.80231">
        <ele>1506.097</ele>
        <time>2023-04-18T12:04:50Z</time>
      </trkpt>
      <trkpt lat="42.97476" lon="-0.80234">
        <ele>1503.819</ele>
        <time>2023-04-18T12:04:57Z</time>
      </trkpt>
      <trkpt lat="42.9748" lon="-0.80236">
        <ele>1501.498</ele>
        <time>2023-04-18T12:05:04Z</time>
      </trkpt>
      <trkpt lat="42.97485" lon="-0.8024">
        <ele>1499.196</ele>
        <time>2023-04-18T12:05:12Z</time>
      </trkpt>
      <trkpt lat="42.97488" lon="-0.80244">
        <ele>1496.637</ele>
        <time>2023-04-18T12:05:18Z</time>
      </trkpt>
      <trkpt lat="42.97492" lon="-0.80249">
        <ele>1493.833</ele>
        <time>2023-04-18T12:05:25Z</time>
      </trkpt>
      <trkpt lat="42.97496" lon="-0.80253">
        <ele>1491.439</ele>
        <time>2023-04-18T12:05:33Z</time>
      </trkpt>
      <trkpt lat="42.97499" lon="-0.80248">
        <ele>1489.21</ele>
        <time>2023-04-18T12:05:40Z</time>
      </trkpt>
      <trkpt lat="42.97504" lon="-0.80247">
        <ele>1486.511</ele>
        <time>2023-04-18T12:05:48Z</time>
      </trkpt>
      <trkpt lat="42.97508" lon="-0.80245">
        <ele>1484.078</ele>
        <time>2023-04-18T12:05:55Z</time>
      </trkpt>
      <trkpt lat="42.97512" lon="-0.80241">
        <ele>1481.833</ele>
        <time>2023-04-18T12:06:01Z</time>
      </trkpt>
      <trkpt lat="42.97516" lon="-0.80243">
        <ele>1479.226</ele>
        <time>2023-04-18T12:06:08Z</time>
      </trkpt>
      <trkpt lat="42.97521" lon="-0.80243">
        <ele>1477.109</ele>
        <time>2023-04-18T12:06:15Z</time>
      </trkpt>
      <trkpt lat="42.97525" lon="-0.8024">
        <ele>1475.338</ele>
        <time>2023-04-18T12:06:26Z</time>
      </trkpt>
      <trkpt lat="42.97529" lon="-0.80236">
        <ele>1473.41</ele>
        <time>2023-04-18T12:06:33Z</time>
      </trkpt>
      <trkpt lat="42.97534" lon="-0.80238">
        <ele>1471.719</ele>
        <time>2023-04-18T12:06:40Z</time>
      </trkpt>
      <trkpt lat="42.97539" lon="-0.80239">
        <ele>1469.817</ele>
        <time>2023-04-18T12:06:49Z</time>
      </trkpt>
      <trkpt lat="42.97544" lon="-0.80238">
        <ele>1467.668</ele>
        <time>2023-04-18T12:06:56Z</time>
      </trkpt>
      <trkpt lat="42.97549" lon="-0.80236">
        <ele>1465.294</ele>
        <time>2023-04-18T12:07:04Z</time>
      </trkpt>
      <trkpt lat="42.97554" lon="-0.80236">
        <ele>1462.83</ele>
        <time>2023-04-18T12:07:12Z</time>
      </trkpt>
      <trkpt lat="42.97558" lon="-0.80237">
        <ele>1460.441</ele>
        <time>2023-04-18T12:07:18Z</time>
      </trkpt>
      <trkpt lat="42.97563" lon="-0.80236">
        <ele>1458.172</ele>
        <time>2023-04-18T12:07:25Z</time>
      </trkpt>
      <trkpt lat="42.97568" lon="-0.80237">
        <ele>1455.849</ele>
        <time>2023-04-18T12:07:32Z</time>
      </trkpt>
      <trkpt lat="42.97573" lon="-0.80236">
        <ele>1451.202</ele>
        <time>2023-04-18T12:07:40Z</time>
      </trkpt>
      <trkpt lat="42.97576" lon="-0.80232">
        <ele>1446.622</ele>
        <time>2023-04-18T12:07:46Z</time>
      </trkpt>
      <trkpt lat="42.97581" lon="-0.80231">
        <ele>1443.909</ele>
        <time>2023-04-18T12:07:53Z</time>
      </trkpt>
      <trkpt lat="42.97585" lon="-0.80228">
        <ele>1441.635</ele>
        <time>2023-04-18T12:08:00Z</time>
      </trkpt>
      <trkpt lat="42.9759" lon="-0.80227">
        <ele>1439.847</ele>
        <time>2023-04-18T12:08:05Z</time>
      </trkpt>
      <trkpt lat="42.97594" lon="-0.80228">
        <ele>1437.676</ele>
        <time>2023-04-18T12:08:10Z</time>
      </trkpt>
      <trkpt lat="42.97599" lon="-0.80229">
        <ele>1435.894</ele>
        <time>2023-04-18T12:08:16Z</time>
      </trkpt>
      <trkpt lat="42.97603" lon="-0.80227">
        <ele>1434.555</ele>
        <time>2023-04-18T12:08:21Z</time>
      </trkpt>
      <trkpt lat="42.97607" lon="-0.80222">
        <ele>1433.231</ele>
        <time>2023-04-18T12:08:27Z</time>
      </trkpt>
      <trkpt lat="42.97611" lon="-0.80217">
        <ele>1431.967</ele>
        <time>2023-04-18T12:08:32Z</time>
      </trkpt>
      <trkpt lat="42.97611" lon="-0.80211">
        <ele>1430.688</ele>
        <time>2023-04-18T12:08:36Z</time>
      </trkpt>
      <trkpt lat="42.97613" lon="-0.80204">
        <ele>1429.359</ele>
        <time>2023-04-18T12:08:40Z</time>
      </trkpt>
      <trkpt lat="42.97616" lon="-0.80201">
        <ele>1428.484</ele>
        <time>2023-04-18T12:08:44Z</time>
      </trkpt>
      <trkpt lat="42.97621" lon="-0.80199">
        <ele>1427.807</ele>
        <time>2023-04-18T12:08:48Z</time>
      </trkpt>
      <trkpt lat="42.97619" lon="-0.80204">
        <ele>1427.117</ele>
        <time>2023-04-18T12:10:57Z</time>
      </trkpt>
      <trkpt lat="42.97624" lon="-0.80202">
        <ele>1426.509</ele>
        <time>2023-04-18T12:17:42Z</time>
      </trkpt>
      <trkpt lat="42.97629" lon="-0.80204">
        <ele>1425.999</ele>
        <time>2023-04-18T12:17:51Z</time>
      </trkpt>
      <trkpt lat="42.97633" lon="-0.80201">
        <ele>1425.251</ele>
        <time>2023-04-18T12:18:23Z</time>
      </trkpt>
      <trkpt lat="42.97638" lon="-0.80202">
        <ele>1424.18</ele>
        <time>2023-04-18T12:18:30Z</time>
      </trkpt>
      <trkpt lat="42.97642" lon="-0.80203">
        <ele>1422.668</ele>
        <time>2023-04-18T12:18:37Z</time>
      </trkpt>
      <trkpt lat="42.97647" lon="-0.80202">
        <ele>1420.469</ele>
        <time>2023-04-18T12:18:43Z</time>
      </trkpt>
      <trkpt lat="42.97652" lon="-0.80201">
        <ele>1417.895</ele>
        <time>2023-04-18T12:18:49Z</time>
      </trkpt>
      <trkpt lat="42.97656" lon="-0.80198">
        <ele>1415.871</ele>
        <time>2023-04-18T12:18:55Z</time>
      </trkpt>
      <trkpt lat="42.9766" lon="-0.80199">
        <ele>1414.182</ele>
        <time>2023-04-18T12:19:00Z</time>
      </trkpt>
      <trkpt lat="42.97665" lon="-0.80198">
        <ele>1412.023</ele>
        <time>2023-04-18T12:19:06Z</time>
      </trkpt>
      <trkpt lat="42.97671" lon="-0.80197">
        <ele>1410.444</ele>
        <time>2023-04-18T12:19:13Z</time>
      </trkpt>
      <trkpt lat="42.97675" lon="-0.80195">
        <ele>1408.805</ele>
        <time>2023-04-18T12:19:20Z</time>
      </trkpt>
      <trkpt lat="42.9768" lon="-0.80196">
        <ele>1406.615</ele>
        <time>2023-04-18T12:19:26Z</time>
      </trkpt>
      <trkpt lat="42.97685" lon="-0.80194">
        <ele>1404.609</ele>
        <time>2023-04-18T12:19:33Z</time>
      </trkpt>
      <trkpt lat="42.9769" lon="-0.80194">
        <ele>1402.555</ele>
        <time>2023-04-18T12:19:39Z</time>
      </trkpt>
      <trkpt lat="42.97695" lon="-0.80194">
        <ele>1400.347</ele>
        <time>2023-04-18T12:19:46Z</time>
      </trkpt>
      <trkpt lat="42.97699" lon="-0.8019">
        <ele>1398.156</ele>
        <time>2023-04-18T12:19:52Z</time>
      </trkpt>
      <trkpt lat="42.97704" lon="-0.8019">
        <ele>1395.794</ele>
        <time>2023-04-18T12:19:59Z</time>
      </trkpt>
      <trkpt lat="42.97709" lon="-0.80188">
        <ele>1393.775</ele>
        <time>2023-04-18T12:20:07Z</time>
      </trkpt>
      <trkpt lat="42.97714" lon="-0.80186">
        <ele>1391.871</ele>
        <time>2023-04-18T12:20:14Z</time>
      </trkpt>
      <trkpt lat="42.97718" lon="-0.80183">
        <ele>1389.147</ele>
        <time>2023-04-18T12:20:24Z</time>
      </trkpt>
      <trkpt lat="42.97722" lon="-0.80179">
        <ele>1386.348</ele>
        <time>2023-04-18T12:20:32Z</time>
      </trkpt>
      <trkpt lat="42.97722" lon="-0.80172">
        <ele>1383.439</ele>
        <time>2023-04-18T12:20:38Z</time>
      </trkpt>
      <trkpt lat="42.9772" lon="-0.80166">
        <ele>1380.357</ele>
        <time>2023-04-18T12:20:43Z</time>
      </trkpt>
      <trkpt lat="42.97718" lon="-0.8016">
        <ele>1378.1</ele>
        <time>2023-04-18T12:20:48Z</time>
      </trkpt>
      <trkpt lat="42.97716" lon="-0.80154">
        <ele>1376.42</ele>
        <time>2023-04-18T12:20:55Z</time>
      </trkpt>
      <trkpt lat="42.97713" lon="-0.80148">
        <ele>1375.609</ele>
        <time>2023-04-18T12:21:00Z</time>
      </trkpt>
      <trkpt lat="42.97714" lon="-0.80141">
        <ele>1374.736</ele>
        <time>2023-04-18T12:21:10Z</time>
      </trkpt>
      <trkpt lat="42.97711" lon="-0.80136">
        <ele>1373.388</ele>
        <time>2023-04-18T12:21:16Z</time>
      </trkpt>
      <trkpt lat="42.97706" lon="-0.80131">
        <ele>1371.557</ele>
        <time>2023-04-18T12:21:20Z</time>
      </trkpt>
      <trkpt lat="42.97705" lon="-0.80124">
        <ele>1369.985</ele>
        <time>2023-04-18T12:21:24Z</time>
      </trkpt>
      <trkpt lat="42.97705" lon="-0.80118">
        <ele>1369.426</ele>
        <time>2023-04-18T12:21:29Z</time>
      </trkpt>
      <trkpt lat="42.97706" lon="-0.8011">
        <ele>1368.942</ele>
        <time>2023-04-18T12:21:35Z</time>
      </trkpt>
      <trkpt lat="42.97708" lon="-0.80104">
        <ele>1368.018</ele>
        <time>2023-04-18T12:21:40Z</time>
      </trkpt>
      <trkpt lat="42.97711" lon="-0.80099">
        <ele>1366.739</ele>
        <time>2023-04-18T12:21:45Z</time>
      </trkpt>
      <trkpt lat="42.97715" lon="-0.80095">
        <ele>1365.17</ele>
        <time>2023-04-18T12:21:50Z</time>
      </trkpt>
      <trkpt lat="42.97718" lon="-0.8009">
        <ele>1363.816</ele>
        <time>2023-04-18T12:21:55Z</time>
      </trkpt>
      <trkpt lat="42.97722" lon="-0.80086">
        <ele>1362.476</ele>
        <time>2023-04-18T12:22:00Z</time>
      </trkpt>
      <trkpt lat="42.97725" lon="-0.8008">
        <ele>1361.013</ele>
        <time>2023-04-18T12:22:05Z</time>
      </trkpt>
      <trkpt lat="42.97726" lon="-0.80073">
        <ele>1359.909</ele>
        <time>2023-04-18T12:22:11Z</time>
      </trkpt>
      <trkpt lat="42.9773" lon="-0.80069">
        <ele>1358.742</ele>
        <time>2023-04-18T12:22:18Z</time>
      </trkpt>
      <trkpt lat="42.97734" lon="-0.80064">
        <ele>1357.564</ele>
        <time>2023-04-18T12:22:26Z</time>
      </trkpt>
      <trkpt lat="42.97739" lon="-0.80063">
        <ele>1356.193</ele>
        <time>2023-04-18T12:22:34Z</time>
      </trkpt>
      <trkpt lat="42.97743" lon="-0.80068">
        <ele>1353.931</ele>
        <time>2023-04-18T12:22:39Z</time>
      </trkpt>
      <trkpt lat="42.97745" lon="-0.80074">
        <ele>1351.932</ele>
        <time>2023-04-18T12:22:43Z</time>
      </trkpt>
      <trkpt lat="42.97749" lon="-0.80077">
        <ele>1350.888</ele>
        <time>2023-04-18T12:22:47Z</time>
      </trkpt>
      <trkpt lat="42.97753" lon="-0.80082">
        <ele>1349.854</ele>
        <time>2023-04-18T12:22:52Z</time>
      </trkpt>
      <trkpt lat="42.97757" lon="-0.80085">
        <ele>1348.915</ele>
        <time>2023-04-18T12:22:57Z</time>
      </trkpt>
      <trkpt lat="42.97759" lon="-0.80091">
        <ele>1348.016</ele>
        <time>2023-04-18T12:23:01Z</time>
      </trkpt>
      <trkpt lat="42.97763" lon="-0.80096">
        <ele>1346.953</ele>
        <time>2023-04-18T12:23:06Z</time>
      </trkpt>
      <trkpt lat="42.97765" lon="-0.80103">
        <ele>1345.804</ele>
        <time>2023-04-18T12:23:11Z</time>
      </trkpt>
      <trkpt lat="42.97768" lon="-0.80108">
        <ele>1344.914</ele>
        <time>2023-04-18T12:23:16Z</time>
      </trkpt>
      <trkpt lat="42.97771" lon="-0.80114">
        <ele>1344.009</ele>
        <time>2023-04-18T12:23:21Z</time>
      </trkpt>
      <trkpt lat="42.97776" lon="-0.80116">
        <ele>1343.016</ele>
        <time>2023-04-18T12:23:25Z</time>
      </trkpt>
      <trkpt lat="42.97781" lon="-0.80117">
        <ele>1342.028</ele>
        <time>2023-04-18T12:23:30Z</time>
      </trkpt>
      <trkpt lat="42.97785" lon="-0.80119">
        <ele>1341.137</ele>
        <time>2023-04-18T12:23:35Z</time>
      </trkpt>
      <trkpt lat="42.9779" lon="-0.8012">
        <ele>1340.215</ele>
        <time>2023-04-18T12:23:40Z</time>
      </trkpt>
      <trkpt lat="42.97794" lon="-0.80121">
        <ele>1339.266</ele>
        <time>2023-04-18T12:23:45Z</time>
      </trkpt>
      <trkpt lat="42.97799" lon="-0.80118">
        <ele>1338.312</ele>
        <time>2023-04-18T12:23:51Z</time>
      </trkpt>
      <trkpt lat="42.97799" lon="-0.80111">
        <ele>1337.128</ele>
        <time>2023-04-18T12:24:04Z</time>
      </trkpt>
      <trkpt lat="42.97804" lon="-0.80109">
        <ele>1335.739</ele>
        <time>2023-04-18T12:24:12Z</time>
      </trkpt>
      <trkpt lat="42.97808" lon="-0.80107">
        <ele>1334.84</ele>
        <time>2023-04-18T12:24:19Z</time>
      </trkpt>
      <trkpt lat="42.97813" lon="-0.80106">
        <ele>1334.134</ele>
        <time>2023-04-18T12:24:24Z</time>
      </trkpt>
      <trkpt lat="42.97818" lon="-0.80106">
        <ele>1332.855</ele>
        <time>2023-04-18T12:24:30Z</time>
      </trkpt>
      <trkpt lat="42.97823" lon="-0.80106">
        <ele>1331.61</ele>
        <time>2023-04-18T12:24:35Z</time>
      </trkpt>
      <trkpt lat="42.97828" lon="-0.80108">
        <ele>1330.409</ele>
        <time>2023-04-18T12:24:40Z</time>
      </trkpt>
      <trkpt lat="42.97833" lon="-0.8011">
        <ele>1329.154</ele>
        <time>2023-04-18T12:24:47Z</time>
      </trkpt>
      <trkpt lat="42.97837" lon="-0.80107">
        <ele>1328.096</ele>
        <time>2023-04-18T12:24:54Z</time>
      </trkpt>
      <trkpt lat="42.97839" lon="-0.80101">
        <ele>1326.675</ele>
        <time>2023-04-18T12:25:02Z</time>
      </trkpt>
      <trkpt lat="42.97844" lon="-0.80101">
        <ele>1324.953</ele>
        <time>2023-04-18T12:25:54Z</time>
      </trkpt>
      <trkpt lat="42.97848" lon="-0.80106">
        <ele>1323.254</ele>
        <time>2023-04-18T12:30:10Z</time>
      </trkpt>
      <trkpt lat="42.97844" lon="-0.80102">
        <ele>1321.94</ele>
        <time>2023-04-18T12:31:07Z</time>
      </trkpt>
      <trkpt lat="42.97847" lon="-0.80098">
        <ele>1321.466</ele>
        <time>2023-04-18T12:31:11Z</time>
      </trkpt>
      <trkpt lat="42.97851" lon="-0.80095">
        <ele>1321.217</ele>
        <time>2023-04-18T12:31:16Z</time>
      </trkpt>
      <trkpt lat="42.97856" lon="-0.80092">
        <ele>1320.838</ele>
        <time>2023-04-18T12:31:21Z</time>
      </trkpt>
      <trkpt lat="42.97862" lon="-0.80094">
        <ele>1319.981</ele>
        <time>2023-04-18T12:31:26Z</time>
      </trkpt>
      <trkpt lat="42.97867" lon="-0.80094">
        <ele>1319.061</ele>
        <time>2023-04-18T12:31:32Z</time>
      </trkpt>
      <trkpt lat="42.97872" lon="-0.80095">
        <ele>1318.117</ele>
        <time>2023-04-18T12:31:38Z</time>
      </trkpt>
      <trkpt lat="42.97876" lon="-0.80098">
        <ele>1316.709</ele>
        <time>2023-04-18T12:31:42Z</time>
      </trkpt>
      <trkpt lat="42.9788" lon="-0.80102">
        <ele>1315.149</ele>
        <time>2023-04-18T12:31:47Z</time>
      </trkpt>
      <trkpt lat="42.97884" lon="-0.80106">
        <ele>1313.731</ele>
        <time>2023-04-18T12:31:53Z</time>
      </trkpt>
      <trkpt lat="42.97887" lon="-0.80112">
        <ele>1312.36</ele>
        <time>2023-04-18T12:31:57Z</time>
      </trkpt>
      <trkpt lat="42.97891" lon="-0.80114">
        <ele>1311.158</ele>
        <time>2023-04-18T12:32:07Z</time>
      </trkpt>
      <trkpt lat="42.97895" lon="-0.80119">
        <ele>1309.989</ele>
        <time>2023-04-18T12:32:11Z</time>
      </trkpt>
      <trkpt lat="42.97898" lon="-0.80126">
        <ele>1307.875</ele>
        <time>2023-04-18T12:32:16Z</time>
      </trkpt>
      <trkpt lat="42.97899" lon="-0.80134">
        <ele>1305.921</ele>
        <time>2023-04-18T12:32:19Z</time>
      </trkpt>
      <trkpt lat="42.979" lon="-0.80142">
        <ele>1304.762</ele>
        <time>2023-04-18T12:32:22Z</time>
      </trkpt>
      <trkpt lat="42.97902" lon="-0.80148">
        <ele>1304.233</ele>
        <time>2023-04-18T12:32:25Z</time>
      </trkpt>
      <trkpt lat="42.97903" lon="-0.80154">
        <ele>1303.762</ele>
        <time>2023-04-18T12:32:29Z</time>
      </trkpt>
      <trkpt lat="42.97906" lon="-0.8016">
        <ele>1303.583</ele>
        <time>2023-04-18T12:32:32Z</time>
      </trkpt>
      <trkpt lat="42.97909" lon="-0.80163">
        <ele>1303.211</ele>
        <time>2023-04-18T12:32:35Z</time>
      </trkpt>
      <trkpt lat="42.97914" lon="-0.80168">
        <ele>1302.909</ele>
        <time>2023-04-18T12:32:39Z</time>
      </trkpt>
      <trkpt lat="42.97918" lon="-0.80173">
        <ele>1302.537</ele>
        <time>2023-04-18T12:32:43Z</time>
      </trkpt>
      <trkpt lat="42.97922" lon="-0.80177">
        <ele>1302.069</ele>
        <time>2023-04-18T12:32:47Z</time>
      </trkpt>
      <trkpt lat="42.97924" lon="-0.80182">
        <ele>1301.468</ele>
        <time>2023-04-18T12:32:51Z</time>
      </trkpt>
      <trkpt lat="42.97929" lon="-0.80187">
        <ele>1300.886</ele>
        <time>2023-04-18T12:32:55Z</time>
      </trkpt>
      <trkpt lat="42.97931" lon="-0.80193">
        <ele>1300.247</ele>
        <time>2023-04-18T12:32:58Z</time>
      </trkpt>
      <trkpt lat="42.97934" lon="-0.80197">
        <ele>1299.793</ele>
        <time>2023-04-18T12:33:02Z</time>
      </trkpt>
      <trkpt lat="42.97937" lon="-0.80202">
        <ele>1299.439</ele>
        <time>2023-04-18T12:33:06Z</time>
      </trkpt>
      <trkpt lat="42.97941" lon="-0.80207">
        <ele>1299.21</ele>
        <time>2023-04-18T12:33:11Z</time>
      </trkpt>
      <trkpt lat="42.97944" lon="-0.80214">
        <ele>1299.011</ele>
        <time>2023-04-18T12:33:16Z</time>
      </trkpt>
      <trkpt lat="42.97945" lon="-0.80222">
        <ele>1298.517</ele>
        <time>2023-04-18T12:33:23Z</time>
      </trkpt>
      <trkpt lat="42.97943" lon="-0.80228">
        <ele>1297.987</ele>
        <time>2023-04-18T12:33:27Z</time>
      </trkpt>
      <trkpt lat="42.97942" lon="-0.80235">
        <ele>1297.115</ele>
        <time>2023-04-18T12:33:32Z</time>
      </trkpt>
      <trkpt lat="42.97941" lon="-0.80241">
        <ele>1296.309</ele>
        <time>2023-04-18T12:33:37Z</time>
      </trkpt>
      <trkpt lat="42.97941" lon="-0.80248">
        <ele>1295.792</ele>
        <time>2023-04-18T12:33:43Z</time>
      </trkpt>
      <trkpt lat="42.97942" lon="-0.80256">
        <ele>1295.024</ele>
        <time>2023-04-18T12:33:48Z</time>
      </trkpt>
      <trkpt lat="42.97942" lon="-0.80264">
        <ele>1293.913</ele>
        <time>2023-04-18T12:33:53Z</time>
      </trkpt>
      <trkpt lat="42.97944" lon="-0.80271">
        <ele>1293.581</ele>
        <time>2023-04-18T12:33:57Z</time>
      </trkpt>
      <trkpt lat="42.97944" lon="-0.80278">
        <ele>1293.192</ele>
        <time>2023-04-18T12:34:03Z</time>
      </trkpt>
      <trkpt lat="42.97947" lon="-0.80282">
        <ele>1293.058</ele>
        <time>2023-04-18T12:34:08Z</time>
      </trkpt>
      <trkpt lat="42.97952" lon="-0.80284">
        <ele>1292.714</ele>
        <time>2023-04-18T12:34:14Z</time>
      </trkpt>
      <trkpt lat="42.97956" lon="-0.80287">
        <ele>1291.865</ele>
        <time>2023-04-18T12:34:21Z</time>
      </trkpt>
      <trkpt lat="42.9796" lon="-0.80292">
        <ele>1290.996</ele>
        <time>2023-04-18T12:34:25Z</time>
      </trkpt>
      <trkpt lat="42.97964" lon="-0.80297">
        <ele>1289.928</ele>
        <time>2023-04-18T12:34:30Z</time>
      </trkpt>
      <trkpt lat="42.97966" lon="-0.80302">
        <ele>1288.989</ele>
        <time>2023-04-18T12:34:33Z</time>
      </trkpt>
      <trkpt lat="42.9797" lon="-0.80307">
        <ele>1288.017</ele>
        <time>2023-04-18T12:34:36Z</time>
      </trkpt>
      <trkpt lat="42.97974" lon="-0.80313">
        <ele>1287.309</ele>
        <time>2023-04-18T12:34:40Z</time>
      </trkpt>
      <trkpt lat="42.97979" lon="-0.80316">
        <ele>1286.993</ele>
        <time>2023-04-18T12:34:43Z</time>
      </trkpt>
      <trkpt lat="42.97984" lon="-0.80319">
        <ele>1286.345</ele>
        <time>2023-04-18T12:34:47Z</time>
      </trkpt>
      <trkpt lat="42.97987" lon="-0.80325">
        <ele>1285.554</ele>
        <time>2023-04-18T12:34:51Z</time>
      </trkpt>
      <trkpt lat="42.97989" lon="-0.8033">
        <ele>1284.672</ele>
        <time>2023-04-18T12:34:55Z</time>
      </trkpt>
      <trkpt lat="42.97993" lon="-0.80336">
        <ele>1283.663</ele>
        <time>2023-04-18T12:35:00Z</time>
      </trkpt>
      <trkpt lat="42.97997" lon="-0.80339">
        <ele>1282.859</ele>
        <time>2023-04-18T12:35:05Z</time>
      </trkpt>
      <trkpt lat="42.97996" lon="-0.80346">
        <ele>1282.165</ele>
        <time>2023-04-18T12:35:33Z</time>
      </trkpt>
      <trkpt lat="42.97997" lon="-0.80353">
        <ele>1281.546</ele>
        <time>2023-04-18T12:35:39Z</time>
      </trkpt>
      <trkpt lat="42.97995" lon="-0.80359">
        <ele>1279.137</ele>
        <time>2023-04-18T12:35:43Z</time>
      </trkpt>
      <trkpt lat="42.97995" lon="-0.80365">
        <ele>1276.318</ele>
        <time>2023-04-18T12:35:48Z</time>
      </trkpt>
      <trkpt lat="42.97994" lon="-0.80373">
        <ele>1275.198</ele>
        <time>2023-04-18T12:35:55Z</time>
      </trkpt>
      <trkpt lat="42.97994" lon="-0.8038">
        <ele>1274.017</ele>
        <time>2023-04-18T12:36:08Z</time>
      </trkpt>
      <trkpt lat="42.97997" lon="-0.80387">
        <ele>1272.509</ele>
        <time>2023-04-18T12:36:12Z</time>
      </trkpt>
      <trkpt lat="42.98001" lon="-0.8039">
        <ele>1269.842</ele>
        <time>2023-04-18T12:36:19Z</time>
      </trkpt>
      <trkpt lat="42.98007" lon="-0.80392">
        <ele>1267.014</ele>
        <time>2023-04-18T12:36:35Z</time>
      </trkpt>
      <trkpt lat="42.98011" lon="-0.80396">
        <ele>1266.243</ele>
        <time>2023-04-18T12:36:40Z</time>
      </trkpt>
      <trkpt lat="42.98015" lon="-0.804">
        <ele>1263.541</ele>
        <time>2023-04-18T12:36:46Z</time>
      </trkpt>
      <trkpt lat="42.98016" lon="-0.80408">
        <ele>1260.992</ele>
        <time>2023-04-18T12:36:51Z</time>
      </trkpt>
      <trkpt lat="42.98016" lon="-0.80415">
        <ele>1259.338</ele>
        <time>2023-04-18T12:36:57Z</time>
      </trkpt>
      <trkpt lat="42.98017" lon="-0.80421">
        <ele>1257.724</ele>
        <time>2023-04-18T12:37:04Z</time>
      </trkpt>
      <trkpt lat="42.98023" lon="-0.80423">
        <ele>1256.355</ele>
        <time>2023-04-18T12:37:16Z</time>
      </trkpt>
      <trkpt lat="42.98025" lon="-0.80428">
        <ele>1254.756</ele>
        <time>2023-04-18T12:37:32Z</time>
      </trkpt>
      <trkpt lat="42.98029" lon="-0.80429">
        <ele>1252.379</ele>
        <time>2023-04-18T12:37:41Z</time>
      </trkpt>
      <trkpt lat="42.98033" lon="-0.80434">
        <ele>1250.605</ele>
        <time>2023-04-18T12:37:48Z</time>
      </trkpt>
      <trkpt lat="42.98035" lon="-0.80441">
        <ele>1249.325</ele>
        <time>2023-04-18T12:37:51Z</time>
      </trkpt>
      <trkpt lat="42.98038" lon="-0.80448">
        <ele>1247.409</ele>
        <time>2023-04-18T12:37:55Z</time>
      </trkpt>
      <trkpt lat="42.98035" lon="-0.80453">
        <ele>1246.268</ele>
        <time>2023-04-18T12:38:00Z</time>
      </trkpt>
      <trkpt lat="42.98034" lon="-0.8046">
        <ele>1245.58</ele>
        <time>2023-04-18T12:38:06Z</time>
      </trkpt>
      <trkpt lat="42.98031" lon="-0.80465">
        <ele>1244.539</ele>
        <time>2023-04-18T12:38:13Z</time>
      </trkpt>
      <trkpt lat="42.98027" lon="-0.80468">
        <ele>1243.367</ele>
        <time>2023-04-18T12:38:19Z</time>
      </trkpt>
      <trkpt lat="42.98023" lon="-0.80472">
        <ele>1242.188</ele>
        <time>2023-04-18T12:38:24Z</time>
      </trkpt>
      <trkpt lat="42.9802" lon="-0.80478">
        <ele>1240.844</ele>
        <time>2023-04-18T12:38:32Z</time>
      </trkpt>
      <trkpt lat="42.98015" lon="-0.80481">
        <ele>1239.51</ele>
        <time>2023-04-18T12:38:37Z</time>
      </trkpt>
      <trkpt lat="42.98011" lon="-0.80486">
        <ele>1238.141</ele>
        <time>2023-04-18T12:38:42Z</time>
      </trkpt>
      <trkpt lat="42.98008" lon="-0.80491">
        <ele>1236.812</ele>
        <time>2023-04-18T12:38:53Z</time>
      </trkpt>
      <trkpt lat="42.98008" lon="-0.80497">
        <ele>1235.821</ele>
        <time>2023-04-18T12:39:04Z</time>
      </trkpt>
      <trkpt lat="42.98008" lon="-0.80503">
        <ele>1234.041</ele>
        <time>2023-04-18T12:39:17Z</time>
      </trkpt>
      <trkpt lat="42.98014" lon="-0.80507">
        <ele>1231.105</ele>
        <time>2023-04-18T12:39:25Z</time>
      </trkpt>
      <trkpt lat="42.98017" lon="-0.80512">
        <ele>1227.709</ele>
        <time>2023-04-18T12:39:31Z</time>
      </trkpt>
      <trkpt lat="42.98016" lon="-0.80519">
        <ele>1224.943</ele>
        <time>2023-04-18T12:39:39Z</time>
      </trkpt>
      <trkpt lat="42.98018" lon="-0.80525">
        <ele>1223.415</ele>
        <time>2023-04-18T12:39:58Z</time>
      </trkpt>
      <trkpt lat="42.98023" lon="-0.80528">
        <ele>1221.834</ele>
        <time>2023-04-18T12:40:03Z</time>
      </trkpt>
      <trkpt lat="42.98028" lon="-0.8053">
        <ele>1218.412</ele>
        <time>2023-04-18T12:40:14Z</time>
      </trkpt>
      <trkpt lat="42.98032" lon="-0.80534">
        <ele>1215.433</ele>
        <time>2023-04-18T12:40:22Z</time>
      </trkpt>
      <trkpt lat="42.98036" lon="-0.80529">
        <ele>1213.749</ele>
        <time>2023-04-18T12:40:34Z</time>
      </trkpt>
      <trkpt lat="42.98039" lon="-0.80534">
        <ele>1211.795</ele>
        <time>2023-04-18T12:40:38Z</time>
      </trkpt>
      <trkpt lat="42.98044" lon="-0.80542">
        <ele>1208.946</ele>
        <time>2023-04-18T12:40:46Z</time>
      </trkpt>
      <trkpt lat="42.98049" lon="-0.80544">
        <ele>1207.827</ele>
        <time>2023-04-18T12:40:48Z</time>
      </trkpt>
      <trkpt lat="42.98048" lon="-0.80551">
        <ele>1205.067</ele>
        <time>2023-04-18T12:40:56Z</time>
      </trkpt>
      <trkpt lat="42.98047" lon="-0.80557">
        <ele>1204.881</ele>
        <time>2023-04-18T12:41:05Z</time>
      </trkpt>
      <trkpt lat="42.98047" lon="-0.80564">
        <ele>1204.719</ele>
        <time>2023-04-18T12:41:16Z</time>
      </trkpt>
      <trkpt lat="42.98047" lon="-0.80571">
        <ele>1203.809</ele>
        <time>2023-04-18T12:41:24Z</time>
      </trkpt>
      <trkpt lat="42.98043" lon="-0.80576">
        <ele>1201.717</ele>
        <time>2023-04-18T12:41:28Z</time>
      </trkpt>
      <trkpt lat="42.98041" lon="-0.80582">
        <ele>1199.479</ele>
        <time>2023-04-18T12:41:32Z</time>
      </trkpt>
      <trkpt lat="42.98038" lon="-0.80587">
        <ele>1197.898</ele>
        <time>2023-04-18T12:41:36Z</time>
      </trkpt>
      <trkpt lat="42.98034" lon="-0.8059">
        <ele>1197.026</ele>
        <time>2023-04-18T12:41:40Z</time>
      </trkpt>
      <trkpt lat="42.98031" lon="-0.80597">
        <ele>1196.357</ele>
        <time>2023-04-18T12:41:50Z</time>
      </trkpt>
      <trkpt lat="42.98027" lon="-0.80592">
        <ele>1195.823</ele>
        <time>2023-04-18T12:41:55Z</time>
      </trkpt>
      <trkpt lat="42.98031" lon="-0.80595">
        <ele>1194.539</ele>
        <time>2023-04-18T12:42:07Z</time>
      </trkpt>
      <trkpt lat="42.98036" lon="-0.80599">
        <ele>1193.08</ele>
        <time>2023-04-18T12:42:12Z</time>
      </trkpt>
      <trkpt lat="42.9804" lon="-0.80601">
        <ele>1191.451</ele>
        <time>2023-04-18T12:42:26Z</time>
      </trkpt>
      <trkpt lat="42.98045" lon="-0.80602">
        <ele>1189.697</ele>
        <time>2023-04-18T12:42:31Z</time>
      </trkpt>
      <trkpt lat="42.98049" lon="-0.80608">
        <ele>1187.623</ele>
        <time>2023-04-18T12:42:36Z</time>
      </trkpt>
      <trkpt lat="42.9805" lon="-0.80601">
        <ele>1185.525</ele>
        <time>2023-04-18T12:42:45Z</time>
      </trkpt>
      <trkpt lat="42.98054" lon="-0.80607">
        <ele>1183.909</ele>
        <time>2023-04-18T12:42:50Z</time>
      </trkpt>
      <trkpt lat="42.98058" lon="-0.80608">
        <ele>1182.41</ele>
        <time>2023-04-18T12:43:00Z</time>
      </trkpt>
      <trkpt lat="42.98062" lon="-0.80613">
        <ele>1181.392</ele>
        <time>2023-04-18T12:43:05Z</time>
      </trkpt>
      <trkpt lat="42.98067" lon="-0.80616">
        <ele>1179.921</ele>
        <time>2023-04-18T12:43:14Z</time>
      </trkpt>
      <trkpt lat="42.98067" lon="-0.80622">
        <ele>1178.549</ele>
        <time>2023-04-18T12:43:19Z</time>
      </trkpt>
      <trkpt lat="42.9807" lon="-0.80627">
        <ele>1176.91</ele>
        <time>2023-04-18T12:43:37Z</time>
      </trkpt>
      <trkpt lat="42.98065" lon="-0.80626">
        <ele>1175.446</ele>
        <time>2023-04-18T12:43:50Z</time>
      </trkpt>
      <trkpt lat="42.9807" lon="-0.80623">
        <ele>1173.172</ele>
        <time>2023-04-18T12:43:58Z</time>
      </trkpt>
      <trkpt lat="42.98074" lon="-0.80624">
        <ele>1170.923</ele>
        <time>2023-04-18T12:44:05Z</time>
      </trkpt>
      <trkpt lat="42.98079" lon="-0.80624">
        <ele>1169.654</ele>
        <time>2023-04-18T12:44:16Z</time>
      </trkpt>
      <trkpt lat="42.98085" lon="-0.80627">
        <ele>1168.032</ele>
        <time>2023-04-18T12:44:20Z</time>
      </trkpt>
      <trkpt lat="42.98089" lon="-0.80632">
        <ele>1166.392</ele>
        <time>2023-04-18T12:44:23Z</time>
      </trkpt>
      <trkpt lat="42.98092" lon="-0.80636">
        <ele>1164.811</ele>
        <time>2023-04-18T12:44:33Z</time>
      </trkpt>
      <trkpt lat="42.98097" lon="-0.80635">
        <ele>1163.409</ele>
        <time>2023-04-18T12:44:40Z</time>
      </trkpt>
      <trkpt lat="42.98095" lon="-0.80647">
        <ele>1159.944</ele>
        <time>2023-04-18T12:45:08Z</time>
      </trkpt>
      <trkpt lat="42.98091" lon="-0.80655">
        <ele>1159.486</ele>
        <time>2023-04-18T12:45:42Z</time>
      </trkpt>
      <trkpt lat="42.98093" lon="-0.80649">
        <ele>1158.975</ele>
        <time>2023-04-18T12:46:09Z</time>
      </trkpt>
      <trkpt lat="42.9809" lon="-0.80635">
        <ele>1158.863</ele>
        <time>2023-04-18T12:46:34Z</time>
      </trkpt>
      <trkpt lat="42.98093" lon="-0.80646">
        <ele>1158.894</ele>
        <time>2023-04-18T12:46:52Z</time>
      </trkpt>
      <trkpt lat="42.98096" lon="-0.80641">
        <ele>1158.93</ele>
        <time>2023-04-18T12:48:17Z</time>
      </trkpt>
      <trkpt lat="42.98096" lon="-0.80629">
        <ele>1158.956</ele>
        <time>2023-04-18T12:48:34Z</time>
      </trkpt>
      <trkpt lat="42.981" lon="-0.80627">
        <ele>1158.987</ele>
        <time>2023-04-18T12:49:08Z</time>
      </trkpt>
      <trkpt lat="42.98105" lon="-0.80629">
        <ele>1158.958</ele>
        <time>2023-04-18T12:49:27Z</time>
      </trkpt>
      <trkpt lat="42.98109" lon="-0.80633">
        <ele>1158.969</ele>
        <time>2023-04-18T12:49:30Z</time>
      </trkpt>
      <trkpt lat="42.98112" lon="-0.80643">
        <ele>1158.804</ele>
        <time>2023-04-18T12:49:44Z</time>
      </trkpt>
      <trkpt lat="42.98109" lon="-0.80638">
        <ele>1158.824</ele>
        <time>2023-04-18T12:49:59Z</time>
      </trkpt>
      <trkpt lat="42.98101" lon="-0.80641">
        <ele>1158.909</ele>
        <time>2023-04-18T12:50:25Z</time>
      </trkpt>
      <trkpt lat="42.98103" lon="-0.80628">
        <ele>1159.197</ele>
        <time>2023-04-18T12:50:48Z</time>
      </trkpt>
      <trkpt lat="42.98104" lon="-0.80622">
        <ele>1159.189</ele>
        <time>2023-04-18T12:50:58Z</time>
      </trkpt>
      <trkpt lat="42.98106" lon="-0.80616">
        <ele>1158.168</ele>
        <time>2023-04-18T12:51:04Z</time>
      </trkpt>
      <trkpt lat="42.9811" lon="-0.80615">
        <ele>1157.186</ele>
        <time>2023-04-18T12:51:09Z</time>
      </trkpt>
      <trkpt lat="42.98115" lon="-0.80616">
        <ele>1156.097</ele>
        <time>2023-04-18T12:51:15Z</time>
      </trkpt>
      <trkpt lat="42.9812" lon="-0.80615">
        <ele>1155.513</ele>
        <time>2023-04-18T12:51:20Z</time>
      </trkpt>
      <trkpt lat="42.98126" lon="-0.80613">
        <ele>1154.429</ele>
        <time>2023-04-18T12:51:24Z</time>
      </trkpt>
      <trkpt lat="42.98131" lon="-0.80614">
        <ele>1153.66</ele>
        <time>2023-04-18T12:51:27Z</time>
      </trkpt>
      <trkpt lat="42.98136" lon="-0.80611">
        <ele>1153.111</ele>
        <time>2023-04-18T12:51:31Z</time>
      </trkpt>
      <trkpt lat="42.98141" lon="-0.80612">
        <ele>1152.578</ele>
        <time>2023-04-18T12:51:35Z</time>
      </trkpt>
      <trkpt lat="42.98145" lon="-0.8061">
        <ele>1151.933</ele>
        <time>2023-04-18T12:51:39Z</time>
      </trkpt>
      <trkpt lat="42.98149" lon="-0.80606">
        <ele>1151.226</ele>
        <time>2023-04-18T12:51:43Z</time>
      </trkpt>
      <trkpt lat="42.98153" lon="-0.80602">
        <ele>1150.609</ele>
        <time>2023-04-18T12:51:48Z</time>
      </trkpt>
      <trkpt lat="42.98156" lon="-0.80597">
        <ele>1150.018</ele>
        <time>2023-04-18T12:51:54Z</time>
      </trkpt>
      <trkpt lat="42.98159" lon="-0.80592">
        <ele>1149.18</ele>
        <time>2023-04-18T12:51:59Z</time>
      </trkpt>
      <trkpt lat="42.98162" lon="-0.80585">
        <ele>1148.139</ele>
        <time>2023-04-18T12:52:04Z</time>
      </trkpt>
      <trkpt lat="42.98165" lon="-0.8058">
        <ele>1147.027</ele>
        <time>2023-04-18T12:52:07Z</time>
      </trkpt>
      <trkpt lat="42.98169" lon="-0.80576">
        <ele>1145.858</ele>
        <time>2023-04-18T12:52:12Z</time>
      </trkpt>
      <trkpt lat="42.98169" lon="-0.8057">
        <ele>1144.984</ele>
        <time>2023-04-18T12:52:15Z</time>
      </trkpt>
      <trkpt lat="42.98172" lon="-0.80564">
        <ele>1144.03</ele>
        <time>2023-04-18T12:52:20Z</time>
      </trkpt>
      <trkpt lat="42.98176" lon="-0.80559">
        <ele>1143.231</ele>
        <time>2023-04-18T12:52:29Z</time>
      </trkpt>
      <trkpt lat="42.98181" lon="-0.80554">
        <ele>1142.552</ele>
        <time>2023-04-18T12:52:36Z</time>
      </trkpt>
      <trkpt lat="42.98183" lon="-0.80547">
        <ele>1142.097</ele>
        <time>2023-04-18T12:52:41Z</time>
      </trkpt>
      <trkpt lat="42.98187" lon="-0.80546">
        <ele>1141.323</ele>
        <time>2023-04-18T12:52:45Z</time>
      </trkpt>
      <trkpt lat="42.98191" lon="-0.8054">
        <ele>1140.425</ele>
        <time>2023-04-18T12:52:50Z</time>
      </trkpt>
      <trkpt lat="42.98193" lon="-0.80534">
        <ele>1139.709</ele>
        <time>2023-04-18T12:52:55Z</time>
      </trkpt>
      <trkpt lat="42.98196" lon="-0.80529">
        <ele>1139.01</ele>
        <time>2023-04-18T12:53:00Z</time>
      </trkpt>
      <trkpt lat="42.98199" lon="-0.80523">
        <ele>1138.392</ele>
        <time>2023-04-18T12:53:05Z</time>
      </trkpt>
      <trkpt lat="42.98202" lon="-0.80517">
        <ele>1137.761</ele>
        <time>2023-04-18T12:53:09Z</time>
      </trkpt>
      <trkpt lat="42.98204" lon="-0.80511">
        <ele>1137.099</ele>
        <time>2023-04-18T12:53:13Z</time>
      </trkpt>
      <trkpt lat="42.98208" lon="-0.80506">
        <ele>1136.33</ele>
        <time>2023-04-18T12:53:18Z</time>
      </trkpt>
      <trkpt lat="42.98212" lon="-0.80501">
        <ele>1135.726</ele>
        <time>2023-04-18T12:53:25Z</time>
      </trkpt>
      <trkpt lat="42.98216" lon="-0.80498">
        <ele>1135.222</ele>
        <time>2023-04-18T12:53:34Z</time>
      </trkpt>
      <trkpt lat="42.9822" lon="-0.80495">
        <ele>1134.453</ele>
        <time>2023-04-18T12:53:38Z</time>
      </trkpt>
      <trkpt lat="42.98224" lon="-0.8049">
        <ele>1133.254</ele>
        <time>2023-04-18T12:53:45Z</time>
      </trkpt>
      <trkpt lat="42.98228" lon="-0.80486">
        <ele>1132.147</ele>
        <time>2023-04-18T12:53:49Z</time>
      </trkpt>
      <trkpt lat="42.98231" lon="-0.80481">
        <ele>1131.129</ele>
        <time>2023-04-18T12:53:53Z</time>
      </trkpt>
      <trkpt lat="42.98236" lon="-0.80481">
        <ele>1130.121</ele>
        <time>2023-04-18T12:53:57Z</time>
      </trkpt>
      <trkpt lat="42.98239" lon="-0.80476">
        <ele>1129.509</ele>
        <time>2023-04-18T12:54:01Z</time>
      </trkpt>
      <trkpt lat="42.98244" lon="-0.80473">
        <ele>1129.035</ele>
        <time>2023-04-18T12:54:06Z</time>
      </trkpt>
      <trkpt lat="42.98249" lon="-0.80473">
        <ele>1128.457</ele>
        <time>2023-04-18T12:54:11Z</time>
      </trkpt>
      <trkpt lat="42.98254" lon="-0.80469">
        <ele>1127.666</ele>
        <time>2023-04-18T12:54:16Z</time>
      </trkpt>
      <trkpt lat="42.98258" lon="-0.80465">
        <ele>1126.534</ele>
        <time>2023-04-18T12:54:20Z</time>
      </trkpt>
      <trkpt lat="42.98262" lon="-0.8046">
        <ele>1125.425</ele>
        <time>2023-04-18T12:54:24Z</time>
      </trkpt>
      <trkpt lat="42.98264" lon="-0.80455">
        <ele>1124.681</ele>
        <time>2023-04-18T12:54:33Z</time>
      </trkpt>
      <trkpt lat="42.98266" lon="-0.80449">
        <ele>1124.177</ele>
        <time>2023-04-18T12:54:38Z</time>
      </trkpt>
      <trkpt lat="42.98266" lon="-0.80442">
        <ele>1122.958</ele>
        <time>2023-04-18T12:54:42Z</time>
      </trkpt>
      <trkpt lat="42.98269" lon="-0.80436">
        <ele>1121.419</ele>
        <time>2023-04-18T12:54:47Z</time>
      </trkpt>
      <trkpt lat="42.98273" lon="-0.80435">
        <ele>1120.266</ele>
        <time>2023-04-18T12:54:52Z</time>
      </trkpt>
      <trkpt lat="42.98286" lon="-0.80436">
        <ele>1118.829</ele>
        <time>2023-04-18T12:55:10Z</time>
      </trkpt>
      <trkpt lat="42.98281" lon="-0.80438">
        <ele>1118.321</ele>
        <time>2023-04-18T12:55:47Z</time>
      </trkpt>
      <trkpt lat="42.98285" lon="-0.80433">
        <ele>1118.109</ele>
        <time>2023-04-18T12:56:03Z</time>
      </trkpt>
      <trkpt lat="42.9829" lon="-0.8043">
        <ele>1116.677</ele>
        <time>2023-04-18T12:56:08Z</time>
      </trkpt>
      <trkpt lat="42.98294" lon="-0.80426">
        <ele>1115.229</ele>
        <time>2023-04-18T12:56:13Z</time>
      </trkpt>
      <trkpt lat="42.983" lon="-0.80428">
        <ele>1114.048</ele>
        <time>2023-04-18T12:56:17Z</time>
      </trkpt>
      <trkpt lat="42.98304" lon="-0.80423">
        <ele>1113.166</ele>
        <time>2023-04-18T12:56:21Z</time>
      </trkpt>
      <trkpt lat="42.98308" lon="-0.80419">
        <ele>1112.687</ele>
        <time>2023-04-18T12:56:25Z</time>
      </trkpt>
      <trkpt lat="42.98312" lon="-0.80415">
        <ele>1111.913</ele>
        <time>2023-04-18T12:56:29Z</time>
      </trkpt>
      <trkpt lat="42.98316" lon="-0.80411">
        <ele>1111.339</ele>
        <time>2023-04-18T12:56:34Z</time>
      </trkpt>
      <trkpt lat="42.9832" lon="-0.80408">
        <ele>1110.61</ele>
        <time>2023-04-18T12:56:39Z</time>
      </trkpt>
      <trkpt lat="42.98323" lon="-0.80404">
        <ele>1109.751</ele>
        <time>2023-04-18T12:56:44Z</time>
      </trkpt>
      <trkpt lat="42.98328" lon="-0.80401">
        <ele>1108.741</ele>
        <time>2023-04-18T12:56:49Z</time>
      </trkpt>
      <trkpt lat="42.98331" lon="-0.80395">
        <ele>1107.681</ele>
        <time>2023-04-18T12:56:53Z</time>
      </trkpt>
      <trkpt lat="42.98334" lon="-0.8039">
        <ele>1107.009</ele>
        <time>2023-04-18T12:56:58Z</time>
      </trkpt>
      <trkpt lat="42.98336" lon="-0.80383">
        <ele>1106.809</ele>
        <time>2023-04-18T12:57:04Z</time>
      </trkpt>
      <trkpt lat="42.98339" lon="-0.80377">
        <ele>1106.225</ele>
        <time>2023-04-18T12:57:12Z</time>
      </trkpt>
      <trkpt lat="42.98337" lon="-0.80371">
        <ele>1105.227</ele>
        <time>2023-04-18T12:57:15Z</time>
      </trkpt>
      <trkpt lat="42.98338" lon="-0.80364">
        <ele>1103.976</ele>
        <time>2023-04-18T12:57:21Z</time>
      </trkpt>
      <trkpt lat="42.9834" lon="-0.80359">
        <ele>1103.064</ele>
        <time>2023-04-18T12:57:27Z</time>
      </trkpt>
      <trkpt lat="42.98342" lon="-0.80352">
        <ele>1102.345</ele>
        <time>2023-04-18T12:57:33Z</time>
      </trkpt>
      <trkpt lat="42.98342" lon="-0.80346">
        <ele>1101.491</ele>
        <time>2023-04-18T12:57:37Z</time>
      </trkpt>
      <trkpt lat="42.98345" lon="-0.8034">
        <ele>1100.537</ele>
        <time>2023-04-18T12:57:44Z</time>
      </trkpt>
      <trkpt lat="42.98347" lon="-0.80334">
        <ele>1099.698</ele>
        <time>2023-04-18T12:57:50Z</time>
      </trkpt>
      <trkpt lat="42.98347" lon="-0.80328">
        <ele>1098.669</ele>
        <time>2023-04-18T12:57:53Z</time>
      </trkpt>
      <trkpt lat="42.98349" lon="-0.80322">
        <ele>1097.594</ele>
        <time>2023-04-18T12:57:56Z</time>
      </trkpt>
      <trkpt lat="42.9835" lon="-0.80316">
        <ele>1096.857</ele>
        <time>2023-04-18T12:57:59Z</time>
      </trkpt>
      <trkpt lat="42.98353" lon="-0.80311">
        <ele>1096.322</ele>
        <time>2023-04-18T12:58:06Z</time>
      </trkpt>
      <trkpt lat="42.98354" lon="-0.80305">
        <ele>1095.809</ele>
        <time>2023-04-18T12:58:10Z</time>
      </trkpt>
      <trkpt lat="42.98358" lon="-0.803">
        <ele>1095.08</ele>
        <time>2023-04-18T12:58:14Z</time>
      </trkpt>
      <trkpt lat="42.9836" lon="-0.80292">
        <ele>1094.162</ele>
        <time>2023-04-18T12:58:18Z</time>
      </trkpt>
      <trkpt lat="42.98363" lon="-0.80286">
        <ele>1093.561</ele>
        <time>2023-04-18T12:58:23Z</time>
      </trkpt>
      <trkpt lat="42.98367" lon="-0.80282">
        <ele>1093.149</ele>
        <time>2023-04-18T12:58:28Z</time>
      </trkpt>
      <trkpt lat="42.9837" lon="-0.80277">
        <ele>1092.54</ele>
        <time>2023-04-18T12:58:32Z</time>
      </trkpt>
      <trkpt lat="42.98374" lon="-0.80271">
        <ele>1091.886</ele>
        <time>2023-04-18T12:58:37Z</time>
      </trkpt>
      <trkpt lat="42.9838" lon="-0.80266">
        <ele>1091.032</ele>
        <time>2023-04-18T12:58:42Z</time>
      </trkpt>
      <trkpt lat="42.98383" lon="-0.80262">
        <ele>1090.213</ele>
        <time>2023-04-18T12:58:47Z</time>
      </trkpt>
      <trkpt lat="42.98387" lon="-0.80257">
        <ele>1089.564</ele>
        <time>2023-04-18T12:58:51Z</time>
      </trkpt>
      <trkpt lat="42.98391" lon="-0.80253">
        <ele>1088.623</ele>
        <time>2023-04-18T12:58:55Z</time>
      </trkpt>
      <trkpt lat="42.98396" lon="-0.80249">
        <ele>1088.283</ele>
        <time>2023-04-18T12:59:03Z</time>
      </trkpt>
      <trkpt lat="42.98401" lon="-0.80247">
        <ele>1087.311</ele>
        <time>2023-04-18T12:59:08Z</time>
      </trkpt>
      <trkpt lat="42.98405" lon="-0.80244">
        <ele>1086.009</ele>
        <time>2023-04-18T12:59:12Z</time>
      </trkpt>
      <trkpt lat="42.98411" lon="-0.80245">
        <ele>1084.513</ele>
        <time>2023-04-18T12:59:15Z</time>
      </trkpt>
      <trkpt lat="42.98416" lon="-0.80249">
        <ele>1083.415</ele>
        <time>2023-04-18T12:59:18Z</time>
      </trkpt>
      <trkpt lat="42.98419" lon="-0.80255">
        <ele>1082.244</ele>
        <time>2023-04-18T12:59:22Z</time>
      </trkpt>
      <trkpt lat="42.98423" lon="-0.80259">
        <ele>1081.842</ele>
        <time>2023-04-18T12:59:25Z</time>
      </trkpt>
      <trkpt lat="42.98425" lon="-0.80266">
        <ele>1081.143</ele>
        <time>2023-04-18T12:59:28Z</time>
      </trkpt>
      <trkpt lat="42.98425" lon="-0.80272">
        <ele>1080.719</ele>
        <time>2023-04-18T12:59:32Z</time>
      </trkpt>
      <trkpt lat="42.98427" lon="-0.80278">
        <ele>1079.935</ele>
        <time>2023-04-18T12:59:37Z</time>
      </trkpt>
      <trkpt lat="42.98428" lon="-0.80286">
        <ele>1079.136</ele>
        <time>2023-04-18T12:59:43Z</time>
      </trkpt>
      <trkpt lat="42.98429" lon="-0.80293">
        <ele>1078.297</ele>
        <time>2023-04-18T12:59:46Z</time>
      </trkpt>
      <trkpt lat="42.98432" lon="-0.80298">
        <ele>1077.072</ele>
        <time>2023-04-18T12:59:49Z</time>
      </trkpt>
      <trkpt lat="42.98431" lon="-0.80305">
        <ele>1076.113</ele>
        <time>2023-04-18T12:59:52Z</time>
      </trkpt>
      <trkpt lat="42.98432" lon="-0.80311">
        <ele>1075.614</ele>
        <time>2023-04-18T12:59:56Z</time>
      </trkpt>
      <trkpt lat="42.98436" lon="-0.80315">
        <ele>1075.209</ele>
        <time>2023-04-18T13:00:00Z</time>
      </trkpt>
      <trkpt lat="42.98438" lon="-0.80322">
        <ele>1074.688</ele>
        <time>2023-04-18T13:00:04Z</time>
      </trkpt>
      <trkpt lat="42.98438" lon="-0.80329">
        <ele>1073.86</ele>
        <time>2023-04-18T13:00:08Z</time>
      </trkpt>
      <trkpt lat="42.98439" lon="-0.80336">
        <ele>1072.929</ele>
        <time>2023-04-18T13:00:13Z</time>
      </trkpt>
      <trkpt lat="42.98437" lon="-0.80342">
        <ele>1072.077</ele>
        <time>2023-04-18T13:00:16Z</time>
      </trkpt>
      <trkpt lat="42.98437" lon="-0.80348">
        <ele>1071.358</ele>
        <time>2023-04-18T13:00:20Z</time>
      </trkpt>
      <trkpt lat="42.98438" lon="-0.80355">
        <ele>1070.834</ele>
        <time>2023-04-18T13:00:25Z</time>
      </trkpt>
      <trkpt lat="42.98437" lon="-0.80361">
        <ele>1070.32</ele>
        <time>2023-04-18T13:00:28Z</time>
      </trkpt>
      <trkpt lat="42.98437" lon="-0.80369">
        <ele>1069.571</ele>
        <time>2023-04-18T13:00:32Z</time>
      </trkpt>
      <trkpt lat="42.98435" lon="-0.80375">
        <ele>1069.022</ele>
        <time>2023-04-18T13:00:35Z</time>
      </trkpt>
      <trkpt lat="42.98435" lon="-0.80381">
        <ele>1068.679</ele>
        <time>2023-04-18T13:00:39Z</time>
      </trkpt>
      <trkpt lat="42.98437" lon="-0.80388">
        <ele>1068.205</ele>
        <time>2023-04-18T13:00:44Z</time>
      </trkpt>
      <trkpt lat="42.98438" lon="-0.80396">
        <ele>1067.825</ele>
        <time>2023-04-18T13:00:48Z</time>
      </trkpt>
      <trkpt lat="42.98439" lon="-0.80402">
        <ele>1067.309</ele>
        <time>2023-04-18T13:00:52Z</time>
      </trkpt>
      <trkpt lat="42.98439" lon="-0.80409">
        <ele>1066.868</ele>
        <time>2023-04-18T13:00:57Z</time>
      </trkpt>
      <trkpt lat="42.98438" lon="-0.80416">
        <ele>1066.47</ele>
        <time>2023-04-18T13:01:03Z</time>
      </trkpt>
      <trkpt lat="42.98438" lon="-0.80424">
        <ele>1065.749</ele>
        <time>2023-04-18T13:01:08Z</time>
      </trkpt>
      <trkpt lat="42.98438" lon="-0.80431">
        <ele>1064.537</ele>
        <time>2023-04-18T13:01:13Z</time>
      </trkpt>
      <trkpt lat="42.98439" lon="-0.80438">
        <ele>1063.088</ele>
        <time>2023-04-18T13:01:19Z</time>
      </trkpt>
      <trkpt lat="42.98441" lon="-0.80445">
        <ele>1062.324</ele>
        <time>2023-04-18T13:01:24Z</time>
      </trkpt>
      <trkpt lat="42.98439" lon="-0.80452">
        <ele>1061.25</ele>
        <time>2023-04-18T13:01:28Z</time>
      </trkpt>
      <trkpt lat="42.98437" lon="-0.80458">
        <ele>1060.931</ele>
        <time>2023-04-18T13:01:32Z</time>
      </trkpt>
      <trkpt lat="42.98437" lon="-0.80465">
        <ele>1060.452</ele>
        <time>2023-04-18T13:01:37Z</time>
      </trkpt>
      <trkpt lat="42.98436" lon="-0.80472">
        <ele>1059.955</ele>
        <time>2023-04-18T13:01:41Z</time>
      </trkpt>
      <trkpt lat="42.98438" lon="-0.80479">
        <ele>1059.107</ele>
        <time>2023-04-18T13:01:46Z</time>
      </trkpt>
      <trkpt lat="42.98439" lon="-0.80486">
        <ele>1058.117</ele>
        <time>2023-04-18T13:01:50Z</time>
      </trkpt>
      <trkpt lat="42.9844" lon="-0.80492">
        <ele>1057.409</ele>
        <time>2023-04-18T13:01:54Z</time>
      </trkpt>
      <trkpt lat="42.98439" lon="-0.80498">
        <ele>1057.136</ele>
        <time>2023-04-18T13:01:58Z</time>
      </trkpt>
      <trkpt lat="42.98438" lon="-0.80504">
        <ele>1057.018</ele>
        <time>2023-04-18T13:02:02Z</time>
      </trkpt>
      <trkpt lat="42.98434" lon="-0.80512">
        <ele>1056.867</ele>
        <time>2023-04-18T13:02:07Z</time>
      </trkpt>
      <trkpt lat="42.98431" lon="-0.80516">
        <ele>1056.395</ele>
        <time>2023-04-18T13:02:10Z</time>
      </trkpt>
      <trkpt lat="42.98428" lon="-0.80522">
        <ele>1055.886</ele>
        <time>2023-04-18T13:02:16Z</time>
      </trkpt>
      <trkpt lat="42.98426" lon="-0.80528">
        <ele>1055.322</ele>
        <time>2023-04-18T13:02:21Z</time>
      </trkpt>
      <trkpt lat="42.98427" lon="-0.80535">
        <ele>1054.368</ele>
        <time>2023-04-18T13:02:26Z</time>
      </trkpt>
      <trkpt lat="42.98429" lon="-0.80541">
        <ele>1053.469</ele>
        <time>2023-04-18T13:02:31Z</time>
      </trkpt>
      <trkpt lat="42.98433" lon="-0.80545">
        <ele>1052.58</ele>
        <time>2023-04-18T13:02:35Z</time>
      </trkpt>
      <trkpt lat="42.9843" lon="-0.8054">
        <ele>1051.339</ele>
        <time>2023-04-18T13:02:48Z</time>
      </trkpt>
      <trkpt lat="42.98429" lon="-0.80534">
        <ele>1050.401</ele>
        <time>2023-04-18T13:02:55Z</time>
      </trkpt>
      <trkpt lat="42.98433" lon="-0.80532">
        <ele>1048.521</ele>
        <time>2023-04-18T13:03:02Z</time>
      </trkpt>
      <trkpt lat="42.98438" lon="-0.80535">
        <ele>1045.809</ele>
        <time>2023-04-18T13:03:06Z</time>
      </trkpt>
      <trkpt lat="42.98443" lon="-0.80534">
        <ele>1043.914</ele>
        <time>2023-04-18T13:03:13Z</time>
      </trkpt>
      <trkpt lat="42.98447" lon="-0.80537">
        <ele>1042.726</ele>
        <time>2023-04-18T13:03:21Z</time>
      </trkpt>
      <trkpt lat="42.98451" lon="-0.80538">
        <ele>1041.425</ele>
        <time>2023-04-18T13:03:31Z</time>
      </trkpt>
      <trkpt lat="42.98456" lon="-0.80543">
        <ele>1039.773</ele>
        <time>2023-04-18T13:03:38Z</time>
      </trkpt>
      <trkpt lat="42.98461" lon="-0.80544">
        <ele>1037.934</ele>
        <time>2023-04-18T13:03:48Z</time>
      </trkpt>
      <trkpt lat="42.98466" lon="-0.80546">
        <ele>1036.21</ele>
        <time>2023-04-18T13:03:52Z</time>
      </trkpt>
      <trkpt lat="42.98471" lon="-0.80548">
        <ele>1034.426</ele>
        <time>2023-04-18T13:03:56Z</time>
      </trkpt>
      <trkpt lat="42.98476" lon="-0.80545">
        <ele>1032.977</ele>
        <time>2023-04-18T13:04:00Z</time>
      </trkpt>
      <trkpt lat="42.98477" lon="-0.80538">
        <ele>1032.298</ele>
        <time>2023-04-18T13:04:08Z</time>
      </trkpt>
      <trkpt lat="42.98478" lon="-0.80531">
        <ele>1031.714</ele>
        <time>2023-04-18T13:04:16Z</time>
      </trkpt>
      <trkpt lat="42.98481" lon="-0.80527">
        <ele>1030.654</ele>
        <time>2023-04-18T13:04:22Z</time>
      </trkpt>
      <trkpt lat="42.98486" lon="-0.80523">
        <ele>1029.109</ele>
        <time>2023-04-18T13:04:26Z</time>
      </trkpt>
      <trkpt lat="42.9849" lon="-0.80519">
        <ele>1027.809</ele>
        <time>2023-04-18T13:04:32Z</time>
      </trkpt>
      <trkpt lat="42.98492" lon="-0.80514">
        <ele>1026.922</ele>
        <time>2023-04-18T13:04:39Z</time>
      </trkpt>
      <trkpt lat="42.98498" lon="-0.80513">
        <ele>1026.244</ele>
        <time>2023-04-18T13:04:47Z</time>
      </trkpt>
      <trkpt lat="42.98504" lon="-0.80512">
        <ele>1025.133</ele>
        <time>2023-04-18T13:04:53Z</time>
      </trkpt>
      <trkpt lat="42.98508" lon="-0.80516">
        <ele>1023.371</ele>
        <time>2023-04-18T13:04:58Z</time>
      </trkpt>
      <trkpt lat="42.98511" lon="-0.8052">
        <ele>1021.872</ele>
        <time>2023-04-18T13:05:01Z</time>
      </trkpt>
      <trkpt lat="42.98514" lon="-0.80526">
        <ele>1021.038</ele>
        <time>2023-04-18T13:05:05Z</time>
      </trkpt>
      <trkpt lat="42.98518" lon="-0.80532">
        <ele>1020.234</ele>
        <time>2023-04-18T13:05:10Z</time>
      </trkpt>
      <trkpt lat="42.98522" lon="-0.80536">
        <ele>1019.555</ele>
        <time>2023-04-18T13:05:14Z</time>
      </trkpt>
      <trkpt lat="42.98523" lon="-0.80542">
        <ele>1018.516</ele>
        <time>2023-04-18T13:05:19Z</time>
      </trkpt>
      <trkpt lat="42.98526" lon="-0.80547">
        <ele>1017.674</ele>
        <time>2023-04-18T13:05:25Z</time>
      </trkpt>
      <trkpt lat="42.98526" lon="-0.80554">
        <ele>1016.856</ele>
        <time>2023-04-18T13:05:30Z</time>
      </trkpt>
      <trkpt lat="42.98528" lon="-0.80561">
        <ele>1015.721</ele>
        <time>2023-04-18T13:05:36Z</time>
      </trkpt>
      <trkpt lat="42.98529" lon="-0.80567">
        <ele>1014.609</ele>
        <time>2023-04-18T13:05:41Z</time>
      </trkpt>
      <trkpt lat="42.98532" lon="-0.80572">
        <ele>1013.528</ele>
        <time>2023-04-18T13:05:45Z</time>
      </trkpt>
      <trkpt lat="42.98535" lon="-0.80577">
        <ele>1012.36</ele>
        <time>2023-04-18T13:05:52Z</time>
      </trkpt>
      <trkpt lat="42.98537" lon="-0.80582">
        <ele>1011.179</ele>
        <time>2023-04-18T13:05:57Z</time>
      </trkpt>
      <trkpt lat="42.98538" lon="-0.8059">
        <ele>1009.887</ele>
        <time>2023-04-18T13:06:04Z</time>
      </trkpt>
      <trkpt lat="42.9854" lon="-0.80596">
        <ele>1008.468</ele>
        <time>2023-04-18T13:06:08Z</time>
      </trkpt>
      <trkpt lat="42.98541" lon="-0.80604">
        <ele>1006.964</ele>
        <time>2023-04-18T13:06:13Z</time>
      </trkpt>
      <trkpt lat="42.98543" lon="-0.80611">
        <ele>1005.79</ele>
        <time>2023-04-18T13:06:19Z</time>
      </trkpt>
      <trkpt lat="42.98543" lon="-0.80617">
        <ele>1004.891</ele>
        <time>2023-04-18T13:06:23Z</time>
      </trkpt>
      <trkpt lat="42.98543" lon="-0.80625">
        <ele>1002.912</ele>
        <time>2023-04-18T13:06:27Z</time>
      </trkpt>
      <trkpt lat="42.98545" lon="-0.80632">
        <ele>1002.176</ele>
        <time>2023-04-18T13:06:30Z</time>
      </trkpt>
      <trkpt lat="42.98547" lon="-0.80639">
        <ele>1001.79</ele>
        <time>2023-04-18T13:06:34Z</time>
      </trkpt>
      <trkpt lat="42.98546" lon="-0.80646">
        <ele>1000.719</ele>
        <time>2023-04-18T13:06:39Z</time>
      </trkpt>
      <trkpt lat="42.98542" lon="-0.80643">
        <ele>999.809</ele>
        <time>2023-04-18T13:06:51Z</time>
      </trkpt>
      <trkpt lat="42.98545" lon="-0.80637">
        <ele>999.418</ele>
        <time>2023-04-18T13:07:06Z</time>
      </trkpt>
      <trkpt lat="42.9855" lon="-0.80637">
        <ele>997.99</ele>
        <time>2023-04-18T13:07:11Z</time>
      </trkpt>
      <trkpt lat="42.98555" lon="-0.80636">
        <ele>994.829</ele>
        <time>2023-04-18T13:07:14Z</time>
      </trkpt>
      <trkpt lat="42.98559" lon="-0.80633">
        <ele>992.387</ele>
        <time>2023-04-18T13:07:18Z</time>
      </trkpt>
      <trkpt lat="42.98561" lon="-0.80639">
        <ele>991.458</ele>
        <time>2023-04-18T13:07:45Z</time>
      </trkpt>
      <trkpt lat="42.9856" lon="-0.80633">
        <ele>990.794</ele>
        <time>2023-04-18T13:07:53Z</time>
      </trkpt>
      <trkpt lat="42.98553" lon="-0.80622">
        <ele>985.85</ele>
        <time>2023-04-18T13:08:35Z</time>
      </trkpt>
      <trkpt lat="42.98557" lon="-0.80627">
        <ele>985.891</ele>
        <time>2023-04-18T13:08:40Z</time>
      </trkpt>
      <trkpt lat="42.98558" lon="-0.80635">
        <ele>985.842</ele>
        <time>2023-04-18T13:08:52Z</time>
      </trkpt>
      <trkpt lat="42.98562" lon="-0.80638">
        <ele>985.995</ele>
        <time>2023-04-18T13:08:56Z</time>
      </trkpt>
      <trkpt lat="42.98566" lon="-0.80643">
        <ele>985.949</ele>
        <time>2023-04-18T13:09:04Z</time>
      </trkpt>
      <trkpt lat="42.98569" lon="-0.80647">
        <ele>985.923</ele>
        <time>2023-04-18T13:09:19Z</time>
      </trkpt>
      <trkpt lat="42.98573" lon="-0.80642">
        <ele>986.009</ele>
        <time>2023-04-18T13:09:31Z</time>
      </trkpt>
      <trkpt lat="42.9857" lon="-0.80647">
        <ele>986.11</ele>
        <time>2023-04-18T13:09:40Z</time>
      </trkpt>
      <trkpt lat="42.98566" lon="-0.80651">
        <ele>986.152</ele>
        <time>2023-04-18T13:09:44Z</time>
      </trkpt>
      <trkpt lat="42.98563" lon="-0.80657">
        <ele>986.761</ele>
        <time>2023-04-18T13:09:50Z</time>
      </trkpt>
      <trkpt lat="42.98559" lon="-0.80661">
        <ele>987.679</ele>
        <time>2023-04-18T13:09:55Z</time>
      </trkpt>
      <trkpt lat="42.98555" lon="-0.80665">
        <ele>988.09</ele>
        <time>2023-04-18T13:09:59Z</time>
      </trkpt>
      <trkpt lat="42.98553" lon="-0.80672">
        <ele>988.096</ele>
        <time>2023-04-18T13:10:05Z</time>
      </trkpt>
      <trkpt lat="42.98557" lon="-0.8067">
        <ele>988.052</ele>
        <time>2023-04-18T13:10:42Z</time>
      </trkpt>
      <trkpt lat="42.98562" lon="-0.80671">
        <ele>987.623</ele>
        <time>2023-04-18T13:10:52Z</time>
      </trkpt>
      <trkpt lat="42.98565" lon="-0.80666">
        <ele>983.224</ele>
        <time>2023-04-18T13:11:11Z</time>
      </trkpt>
      <trkpt lat="42.9857" lon="-0.80667">
        <ele>978.235</ele>
        <time>2023-04-18T13:11:30Z</time>
      </trkpt>
      <trkpt lat="42.98575" lon="-0.80667">
        <ele>976.686</ele>
        <time>2023-04-18T13:11:33Z</time>
      </trkpt>
      <trkpt lat="42.9858" lon="-0.8067">
        <ele>975.114</ele>
        <time>2023-04-18T13:11:50Z</time>
      </trkpt>
      <trkpt lat="42.98584" lon="-0.80666">
        <ele>973.709</ele>
        <time>2023-04-18T13:12:01Z</time>
      </trkpt>
      <trkpt lat="42.98589" lon="-0.80668">
        <ele>971.464</ele>
        <time>2023-04-18T13:12:07Z</time>
      </trkpt>
      <trkpt lat="42.98592" lon="-0.80673">
        <ele>968.516</ele>
        <time>2023-04-18T13:12:10Z</time>
      </trkpt>
      <trkpt lat="42.98595" lon="-0.80668">
        <ele>966.925</ele>
        <time>2023-04-18T13:12:20Z</time>
      </trkpt>
      <trkpt lat="42.98601" lon="-0.80669">
        <ele>965.733</ele>
        <time>2023-04-18T13:12:27Z</time>
      </trkpt>
      <trkpt lat="42.98606" lon="-0.80672">
        <ele>964.624</ele>
        <time>2023-04-18T13:12:39Z</time>
      </trkpt>
      <trkpt lat="42.9861" lon="-0.80677">
        <ele>963.43</ele>
        <time>2023-04-18T13:12:44Z</time>
      </trkpt>
      <trkpt lat="42.98613" lon="-0.80682">
        <ele>961.026</ele>
        <time>2023-04-18T13:12:50Z</time>
      </trkpt>
      <trkpt lat="42.98615" lon="-0.80687">
        <ele>958.697</ele>
        <time>2023-04-18T13:12:59Z</time>
      </trkpt>
      <trkpt lat="42.98619" lon="-0.80691">
        <ele>957.258</ele>
        <time>2023-04-18T13:13:05Z</time>
      </trkpt>
      <trkpt lat="42.98623" lon="-0.80696">
        <ele>955.387</ele>
        <time>2023-04-18T13:13:11Z</time>
      </trkpt>
      <trkpt lat="42.9863" lon="-0.80708">
        <ele>952.542</ele>
        <time>2023-04-18T13:13:27Z</time>
      </trkpt>
      <trkpt lat="42.98626" lon="-0.80709">
        <ele>950.826</ele>
        <time>2023-04-18T13:13:44Z</time>
      </trkpt>
      <trkpt lat="42.98629" lon="-0.80715">
        <ele>950.709</ele>
        <time>2023-04-18T13:13:55Z</time>
      </trkpt>
      <trkpt lat="42.9863" lon="-0.80721">
        <ele>948.689</ele>
        <time>2023-04-18T13:14:03Z</time>
      </trkpt>
      <trkpt lat="42.98634" lon="-0.80726">
        <ele>946.121</ele>
        <time>2023-04-18T13:14:21Z</time>
      </trkpt>
      <trkpt lat="42.98638" lon="-0.80732">
        <ele>945.33</ele>
        <time>2023-04-18T13:14:30Z</time>
      </trkpt>
      <trkpt lat="42.98641" lon="-0.80736">
        <ele>942.358</ele>
        <time>2023-04-18T13:14:39Z</time>
      </trkpt>
      <trkpt lat="42.98643" lon="-0.80741">
        <ele>939.119</ele>
        <time>2023-04-18T13:14:46Z</time>
      </trkpt>
      <trkpt lat="42.98646" lon="-0.80747">
        <ele>937.195</ele>
        <time>2023-04-18T13:14:58Z</time>
      </trkpt>
      <trkpt lat="42.9865" lon="-0.80743">
        <ele>935.361</ele>
        <time>2023-04-18T13:15:10Z</time>
      </trkpt>
      <trkpt lat="42.98656" lon="-0.80742">
        <ele>933.282</ele>
        <time>2023-04-18T13:15:25Z</time>
      </trkpt>
      <trkpt lat="42.98661" lon="-0.80743">
        <ele>931.193</ele>
        <time>2023-04-18T13:15:32Z</time>
      </trkpt>
      <trkpt lat="42.98665" lon="-0.80746">
        <ele>928.913</ele>
        <time>2023-04-18T13:15:37Z</time>
      </trkpt>
      <trkpt lat="42.9867" lon="-0.8075">
        <ele>926.843</ele>
        <time>2023-04-18T13:15:40Z</time>
      </trkpt>
      <trkpt lat="42.98664" lon="-0.80749">
        <ele>925.507</ele>
        <time>2023-04-18T13:16:05Z</time>
      </trkpt>
      <trkpt lat="42.98672" lon="-0.80748">
        <ele>924.109</ele>
        <time>2023-04-18T13:16:10Z</time>
      </trkpt>
      <trkpt lat="42.98678" lon="-0.80751">
        <ele>920.152</ele>
        <time>2023-04-18T13:16:13Z</time>
      </trkpt>
      <trkpt lat="42.98682" lon="-0.80754">
        <ele>918.834</ele>
        <time>2023-04-18T13:16:18Z</time>
      </trkpt>
      <trkpt lat="42.98686" lon="-0.80762">
        <ele>918.213</ele>
        <time>2023-04-18T13:16:22Z</time>
      </trkpt>
      <trkpt lat="42.98689" lon="-0.80767">
        <ele>917.381</ele>
        <time>2023-04-18T13:16:25Z</time>
      </trkpt>
      <trkpt lat="42.98692" lon="-0.80773">
        <ele>917.042</ele>
        <time>2023-04-18T13:16:29Z</time>
      </trkpt>
      <trkpt lat="42.98691" lon="-0.80782">
        <ele>916.448</ele>
        <time>2023-04-18T13:16:33Z</time>
      </trkpt>
      <trkpt lat="42.98689" lon="-0.80788">
        <ele>916.064</ele>
        <time>2023-04-18T13:16:38Z</time>
      </trkpt>
      <trkpt lat="42.98686" lon="-0.80793">
        <ele>915.755</ele>
        <time>2023-04-18T13:16:42Z</time>
      </trkpt>
      <trkpt lat="42.98684" lon="-0.80799">
        <ele>915.276</ele>
        <time>2023-04-18T13:16:47Z</time>
      </trkpt>
      <trkpt lat="42.98682" lon="-0.80804">
        <ele>914.719</ele>
        <time>2023-04-18T13:16:51Z</time>
      </trkpt>
      <trkpt lat="42.98686" lon="-0.80806">
        <ele>914.009</ele>
        <time>2023-04-18T13:16:59Z</time>
      </trkpt>
      <trkpt lat="42.9869" lon="-0.80801">
        <ele>913.119</ele>
        <time>2023-04-18T13:17:06Z</time>
      </trkpt>
      <trkpt lat="42.98694" lon="-0.80797">
        <ele>911.809</ele>
        <time>2023-04-18T13:17:14Z</time>
      </trkpt>
      <trkpt lat="42.98696" lon="-0.80791">
        <ele>910.362</ele>
        <time>2023-04-18T13:17:24Z</time>
      </trkpt>
      <trkpt lat="42.98698" lon="-0.80784">
        <ele>909.264</ele>
        <time>2023-04-18T13:17:31Z</time>
      </trkpt>
      <trkpt lat="42.98698" lon="-0.80777">
        <ele>908.313</ele>
        <time>2023-04-18T13:17:40Z</time>
      </trkpt>
      <trkpt lat="42.98699" lon="-0.8077">
        <ele>907.351</ele>
        <time>2023-04-18T13:17:44Z</time>
      </trkpt>
      <trkpt lat="42.987" lon="-0.80763">
        <ele>905.992</ele>
        <time>2023-04-18T13:17:50Z</time>
      </trkpt>
      <trkpt lat="42.98699" lon="-0.80756">
        <ele>904.778</ele>
        <time>2023-04-18T13:17:53Z</time>
      </trkpt>
      <trkpt lat="42.98702" lon="-0.8075">
        <ele>903.994</ele>
        <time>2023-04-18T13:17:57Z</time>
      </trkpt>
      <trkpt lat="42.98706" lon="-0.80744">
        <ele>902.965</ele>
        <time>2023-04-18T13:18:02Z</time>
      </trkpt>
      <trkpt lat="42.9871" lon="-0.8074">
        <ele>902.666</ele>
        <time>2023-04-18T13:18:07Z</time>
      </trkpt>
      <trkpt lat="42.98713" lon="-0.80735">
        <ele>902.043</ele>
        <time>2023-04-18T13:18:12Z</time>
      </trkpt>
      <trkpt lat="42.98716" lon="-0.80731">
        <ele>901.464</ele>
        <time>2023-04-18T13:18:17Z</time>
      </trkpt>
      <trkpt lat="42.98714" lon="-0.80725">
        <ele>900.41</ele>
        <time>2023-04-18T13:18:24Z</time>
      </trkpt>
      <trkpt lat="42.98714" lon="-0.80719">
        <ele>899.309</ele>
        <time>2023-04-18T13:18:29Z</time>
      </trkpt>
      <trkpt lat="42.98715" lon="-0.80713">
        <ele>898.265</ele>
        <time>2023-04-18T13:18:37Z</time>
      </trkpt>
      <trkpt lat="42.98717" lon="-0.80707">
        <ele>897.157</ele>
        <time>2023-04-18T13:18:40Z</time>
      </trkpt>
      <trkpt lat="42.98719" lon="-0.80701">
        <ele>896.166</ele>
        <time>2023-04-18T13:18:46Z</time>
      </trkpt>
      <trkpt lat="42.9872" lon="-0.80695">
        <ele>895.244</ele>
        <time>2023-04-18T13:18:49Z</time>
      </trkpt>
      <trkpt lat="42.98722" lon="-0.80687">
        <ele>894.295</ele>
        <time>2023-04-18T13:18:53Z</time>
      </trkpt>
      <trkpt lat="42.98723" lon="-0.8068">
        <ele>893.191</ele>
        <time>2023-04-18T13:18:59Z</time>
      </trkpt>
      <trkpt lat="42.98725" lon="-0.80674">
        <ele>892.527</ele>
        <time>2023-04-18T13:19:03Z</time>
      </trkpt>
      <trkpt lat="42.98728" lon="-0.80668">
        <ele>892.078</ele>
        <time>2023-04-18T13:19:09Z</time>
      </trkpt>
      <trkpt lat="42.98731" lon="-0.80662">
        <ele>891.349</ele>
        <time>2023-04-18T13:19:14Z</time>
      </trkpt>
      <trkpt lat="42.98732" lon="-0.80653">
        <ele>890.675</ele>
        <time>2023-04-18T13:19:18Z</time>
      </trkpt>
      <trkpt lat="42.98734" lon="-0.80647">
        <ele>889.928</ele>
        <time>2023-04-18T13:19:22Z</time>
      </trkpt>
      <trkpt lat="42.98737" lon="-0.8064">
        <ele>889.02</ele>
        <time>2023-04-18T13:19:27Z</time>
      </trkpt>
      <trkpt lat="42.98741" lon="-0.80637">
        <ele>888.209</ele>
        <time>2023-04-18T13:19:30Z</time>
      </trkpt>
      <trkpt lat="42.9874" lon="-0.80629">
        <ele>887.568</ele>
        <time>2023-04-18T13:19:34Z</time>
      </trkpt>
      <trkpt lat="42.9874" lon="-0.80622">
        <ele>887.31</ele>
        <time>2023-04-18T13:19:37Z</time>
      </trkpt>
      <trkpt lat="42.98742" lon="-0.80615">
        <ele>886.939</ele>
        <time>2023-04-18T13:19:42Z</time>
      </trkpt>
      <trkpt lat="42.98743" lon="-0.80608">
        <ele>886.487</ele>
        <time>2023-04-18T13:19:48Z</time>
      </trkpt>
      <trkpt lat="42.98743" lon="-0.806">
        <ele>885.548</ele>
        <time>2023-04-18T13:19:53Z</time>
      </trkpt>
      <trkpt lat="42.98745" lon="-0.80593">
        <ele>885.154</ele>
        <time>2023-04-18T13:19:57Z</time>
      </trkpt>
      <trkpt lat="42.98747" lon="-0.80587">
        <ele>884.63</ele>
        <time>2023-04-18T13:20:01Z</time>
      </trkpt>
      <trkpt lat="42.98749" lon="-0.8058">
        <ele>884.591</ele>
        <time>2023-04-18T13:20:06Z</time>
      </trkpt>
      <trkpt lat="42.9875" lon="-0.80574">
        <ele>884.382</ele>
        <time>2023-04-18T13:20:11Z</time>
      </trkpt>
      <trkpt lat="42.98752" lon="-0.80568">
        <ele>883.854</ele>
        <time>2023-04-18T13:20:15Z</time>
      </trkpt>
      <trkpt lat="42.98751" lon="-0.8056">
        <ele>883.356</ele>
        <time>2023-04-18T13:20:20Z</time>
      </trkpt>
      <trkpt lat="42.98751" lon="-0.80553">
        <ele>883.011</ele>
        <time>2023-04-18T13:20:25Z</time>
      </trkpt>
      <trkpt lat="42.98751" lon="-0.80547">
        <ele>882.409</ele>
        <time>2023-04-18T13:20:29Z</time>
      </trkpt>
      <trkpt lat="42.98753" lon="-0.8054">
        <ele>881.676</ele>
        <time>2023-04-18T13:20:33Z</time>
      </trkpt>
      <trkpt lat="42.98754" lon="-0.80534">
        <ele>880.938</ele>
        <time>2023-04-18T13:20:38Z</time>
      </trkpt>
      <trkpt lat="42.98755" lon="-0.80527">
        <ele>880.437</ele>
        <time>2023-04-18T13:20:43Z</time>
      </trkpt>
      <trkpt lat="42.98752" lon="-0.80523">
        <ele>879.775</ele>
        <time>2023-04-18T13:20:48Z</time>
      </trkpt>
      <trkpt lat="42.9875" lon="-0.80515">
        <ele>879.166</ele>
        <time>2023-04-18T13:20:52Z</time>
      </trkpt>
      <trkpt lat="42.9875" lon="-0.80509">
        <ele>878.462</ele>
        <time>2023-04-18T13:20:56Z</time>
      </trkpt>
      <trkpt lat="42.9875" lon="-0.80501">
        <ele>877.588</ele>
        <time>2023-04-18T13:21:00Z</time>
      </trkpt>
      <trkpt lat="42.98751" lon="-0.80494">
        <ele>877.029</ele>
        <time>2023-04-18T13:21:04Z</time>
      </trkpt>
      <trkpt lat="42.9875" lon="-0.80488">
        <ele>876.41</ele>
        <time>2023-04-18T13:21:08Z</time>
      </trkpt>
      <trkpt lat="42.98749" lon="-0.80481">
        <ele>875.747</ele>
        <time>2023-04-18T13:21:14Z</time>
      </trkpt>
      <trkpt lat="42.98749" lon="-0.80475">
        <ele>875.129</ele>
        <time>2023-04-18T13:21:17Z</time>
      </trkpt>
      <trkpt lat="42.98752" lon="-0.80469">
        <ele>874.321</ele>
        <time>2023-04-18T13:21:21Z</time>
      </trkpt>
      <trkpt lat="42.9875" lon="-0.80463">
        <ele>873.509</ele>
        <time>2023-04-18T13:21:25Z</time>
      </trkpt>
      <trkpt lat="42.98748" lon="-0.80457">
        <ele>872.925</ele>
        <time>2023-04-18T13:21:28Z</time>
      </trkpt>
      <trkpt lat="42.98747" lon="-0.80451">
        <ele>872.247</ele>
        <time>2023-04-18T13:21:31Z</time>
      </trkpt>
      <trkpt lat="42.98748" lon="-0.80445">
        <ele>871.646</ele>
        <time>2023-04-18T13:21:34Z</time>
      </trkpt>
      <trkpt lat="42.98746" lon="-0.80439">
        <ele>871.274</ele>
        <time>2023-04-18T13:21:38Z</time>
      </trkpt>
      <trkpt lat="42.98747" lon="-0.80433">
        <ele>870.825</ele>
        <time>2023-04-18T13:21:42Z</time>
      </trkpt>
      <trkpt lat="42.98747" lon="-0.80427">
        <ele>870.481</ele>
        <time>2023-04-18T13:21:46Z</time>
      </trkpt>
      <trkpt lat="42.98745" lon="-0.80419">
        <ele>870.037</ele>
        <time>2023-04-18T13:21:51Z</time>
      </trkpt>
      <trkpt lat="42.98746" lon="-0.80412">
        <ele>869.688</ele>
        <time>2023-04-18T13:21:55Z</time>
      </trkpt>
      <trkpt lat="42.98751" lon="-0.80406">
        <ele>868.869</ele>
        <time>2023-04-18T13:21:59Z</time>
      </trkpt>
      <trkpt lat="42.98755" lon="-0.80403">
        <ele>868.378</ele>
        <time>2023-04-18T13:22:02Z</time>
      </trkpt>
      <trkpt lat="42.98761" lon="-0.80407">
        <ele>867.833</ele>
        <time>2023-04-18T13:22:05Z</time>
      </trkpt>
      <trkpt lat="42.98764" lon="-0.80412">
        <ele>867.326</ele>
        <time>2023-04-18T13:22:08Z</time>
      </trkpt>
      <trkpt lat="42.98766" lon="-0.80419">
        <ele>866.809</ele>
        <time>2023-04-18T13:22:12Z</time>
      </trkpt>
      <trkpt lat="42.98769" lon="-0.80425">
        <ele>866.688</ele>
        <time>2023-04-18T13:22:15Z</time>
      </trkpt>
      <trkpt lat="42.98771" lon="-0.80432">
        <ele>865.83</ele>
        <time>2023-04-18T13:22:19Z</time>
      </trkpt>
      <trkpt lat="42.98773" lon="-0.80438">
        <ele>865.799</ele>
        <time>2023-04-18T13:22:22Z</time>
      </trkpt>
      <trkpt lat="42.98775" lon="-0.80443">
        <ele>865.287</ele>
        <time>2023-04-18T13:22:26Z</time>
      </trkpt>
      <trkpt lat="42.98777" lon="-0.80451">
        <ele>864.558</ele>
        <time>2023-04-18T13:22:30Z</time>
      </trkpt>
      <trkpt lat="42.9878" lon="-0.80457">
        <ele>864.074</ele>
        <time>2023-04-18T13:22:34Z</time>
      </trkpt>
      <trkpt lat="42.98782" lon="-0.80463">
        <ele>863.63</ele>
        <time>2023-04-18T13:22:38Z</time>
      </trkpt>
      <trkpt lat="42.98783" lon="-0.80471">
        <ele>863.191</ele>
        <time>2023-04-18T13:22:43Z</time>
      </trkpt>
      <trkpt lat="42.98783" lon="-0.80477">
        <ele>862.562</ele>
        <time>2023-04-18T13:22:47Z</time>
      </trkpt>
      <trkpt lat="42.98786" lon="-0.80482">
        <ele>861.865</ele>
        <time>2023-04-18T13:22:51Z</time>
      </trkpt>
      <trkpt lat="42.98787" lon="-0.80489">
        <ele>861.068</ele>
        <time>2023-04-18T13:22:55Z</time>
      </trkpt>
      <trkpt lat="42.98789" lon="-0.80495">
        <ele>860.414</ele>
        <time>2023-04-18T13:22:59Z</time>
      </trkpt>
      <trkpt lat="42.98791" lon="-0.80501">
        <ele>860.009</ele>
        <time>2023-04-18T13:23:03Z</time>
      </trkpt>
      <trkpt lat="42.98794" lon="-0.80507">
        <ele>859.427</ele>
        <time>2023-04-18T13:23:07Z</time>
      </trkpt>
      <trkpt lat="42.98794" lon="-0.80514">
        <ele>858.739</ele>
        <time>2023-04-18T13:23:11Z</time>
      </trkpt>
      <trkpt lat="42.98798" lon="-0.80519">
        <ele>858.078</ele>
        <time>2023-04-18T13:23:15Z</time>
      </trkpt>
      <trkpt lat="42.988" lon="-0.80525">
        <ele>857.426</ele>
        <time>2023-04-18T13:23:19Z</time>
      </trkpt>
      <trkpt lat="42.98802" lon="-0.80532">
        <ele>857.017</ele>
        <time>2023-04-18T13:23:23Z</time>
      </trkpt>
      <trkpt lat="42.98803" lon="-0.80539">
        <ele>856.723</ele>
        <time>2023-04-18T13:23:27Z</time>
      </trkpt>
      <trkpt lat="42.98805" lon="-0.80545">
        <ele>853.249</ele>
        <time>2023-04-18T13:23:31Z</time>
      </trkpt>
      <trkpt lat="42.98805" lon="-0.80552">
        <ele>849.74</ele>
        <time>2023-04-18T13:23:34Z</time>
      </trkpt>
      <trkpt lat="42.98806" lon="-0.80557">
        <ele>849.241</ele>
        <time>2023-04-18T13:23:37Z</time>
      </trkpt>
      <trkpt lat="42.98809" lon="-0.80564">
        <ele>848.669</ele>
        <time>2023-04-18T13:23:41Z</time>
      </trkpt>
      <trkpt lat="42.9881" lon="-0.80572">
        <ele>848.104</ele>
        <time>2023-04-18T13:23:45Z</time>
      </trkpt>
      <trkpt lat="42.98812" lon="-0.80578">
        <ele>847.624</ele>
        <time>2023-04-18T13:23:49Z</time>
      </trkpt>
      <trkpt lat="42.98814" lon="-0.80584">
        <ele>847.009</ele>
        <time>2023-04-18T13:23:53Z</time>
      </trkpt>
      <trkpt lat="42.98818" lon="-0.8059">
        <ele>846.577</ele>
        <time>2023-04-18T13:23:57Z</time>
      </trkpt>
      <trkpt lat="42.98819" lon="-0.80596">
        <ele>846.079</ele>
        <time>2023-04-18T13:24:01Z</time>
      </trkpt>
      <trkpt lat="42.98821" lon="-0.80603">
        <ele>845.428</ele>
        <time>2023-04-18T13:24:06Z</time>
      </trkpt>
      <trkpt lat="42.98821" lon="-0.8061">
        <ele>844.926</ele>
        <time>2023-04-18T13:24:09Z</time>
      </trkpt>
      <trkpt lat="42.9882" lon="-0.80616">
        <ele>844.487</ele>
        <time>2023-04-18T13:24:12Z</time>
      </trkpt>
      <trkpt lat="42.98816" lon="-0.80621">
        <ele>843.953</ele>
        <time>2023-04-18T13:24:16Z</time>
      </trkpt>
      <trkpt lat="42.98814" lon="-0.80627">
        <ele>843.459</ele>
        <time>2023-04-18T13:24:19Z</time>
      </trkpt>
      <trkpt lat="42.98812" lon="-0.80634">
        <ele>842.77</ele>
        <time>2023-04-18T13:24:23Z</time>
      </trkpt>
      <trkpt lat="42.98811" lon="-0.80641">
        <ele>842.321</ele>
        <time>2023-04-18T13:24:28Z</time>
      </trkpt>
      <trkpt lat="42.98812" lon="-0.80648">
        <ele>841.993</ele>
        <time>2023-04-18T13:24:32Z</time>
      </trkpt>
      <trkpt lat="42.98814" lon="-0.80655">
        <ele>841.265</ele>
        <time>2023-04-18T13:24:36Z</time>
      </trkpt>
      <trkpt lat="42.98815" lon="-0.80662">
        <ele>840.621</ele>
        <time>2023-04-18T13:24:41Z</time>
      </trkpt>
      <trkpt lat="42.98819" lon="-0.80667">
        <ele>840.109</ele>
        <time>2023-04-18T13:24:45Z</time>
      </trkpt>
      <trkpt lat="42.98822" lon="-0.80671">
        <ele>839.54</ele>
        <time>2023-04-18T13:24:52Z</time>
      </trkpt>
      <trkpt lat="42.98826" lon="-0.80676">
        <ele>839.122</ele>
        <time>2023-04-18T13:24:57Z</time>
      </trkpt>
      <trkpt lat="42.9883" lon="-0.8068">
        <ele>838.791</ele>
        <time>2023-04-18T13:25:02Z</time>
      </trkpt>
      <trkpt lat="42.98833" lon="-0.80687">
        <ele>838.099</ele>
        <time>2023-04-18T13:25:08Z</time>
      </trkpt>
      <trkpt lat="42.98836" lon="-0.80693">
        <ele>837.51</ele>
        <time>2023-04-18T13:25:13Z</time>
      </trkpt>
      <trkpt lat="42.98841" lon="-0.80697">
        <ele>836.816</ele>
        <time>2023-04-18T13:25:16Z</time>
      </trkpt>
      <trkpt lat="42.98844" lon="-0.80702">
        <ele>836.482</ele>
        <time>2023-04-18T13:25:19Z</time>
      </trkpt>
      <trkpt lat="42.98847" lon="-0.80709">
        <ele>835.523</ele>
        <time>2023-04-18T13:25:23Z</time>
      </trkpt>
      <trkpt lat="42.98847" lon="-0.80717">
        <ele>835.044</ele>
        <time>2023-04-18T13:25:28Z</time>
      </trkpt>
      <trkpt lat="42.9885" lon="-0.80724">
        <ele>834.547</ele>
        <time>2023-04-18T13:25:32Z</time>
      </trkpt>
      <trkpt lat="42.98853" lon="-0.80729">
        <ele>834.229</ele>
        <time>2023-04-18T13:25:35Z</time>
      </trkpt>
      <trkpt lat="42.98854" lon="-0.80735">
        <ele>833.421</ele>
        <time>2023-04-18T13:25:39Z</time>
      </trkpt>
      <trkpt lat="42.98858" lon="-0.8074">
        <ele>832.609</ele>
        <time>2023-04-18T13:25:43Z</time>
      </trkpt>
      <trkpt lat="42.98861" lon="-0.80744">
        <ele>832.265</ele>
        <time>2023-04-18T13:25:48Z</time>
      </trkpt>
      <trkpt lat="42.98866" lon="-0.80742">
        <ele>831.737</ele>
        <time>2023-04-18T13:26:04Z</time>
      </trkpt>
      <trkpt lat="42.98869" lon="-0.80747">
        <ele>830.946</ele>
        <time>2023-04-18T13:26:10Z</time>
      </trkpt>
      <trkpt lat="42.98872" lon="-0.80753">
        <ele>830.214</ele>
        <time>2023-04-18T13:26:15Z</time>
      </trkpt>
      <trkpt lat="42.98877" lon="-0.80756">
        <ele>829.865</ele>
        <time>2023-04-18T13:26:19Z</time>
      </trkpt>
      <trkpt lat="42.98879" lon="-0.80762">
        <ele>829.411</ele>
        <time>2023-04-18T13:26:24Z</time>
      </trkpt>
      <trkpt lat="42.98882" lon="-0.80769">
        <ele>828.377</ele>
        <time>2023-04-18T13:26:29Z</time>
      </trkpt>
      <trkpt lat="42.98885" lon="-0.80774">
        <ele>827.228</ele>
        <time>2023-04-18T13:26:32Z</time>
      </trkpt>
      <trkpt lat="42.98887" lon="-0.8078">
        <ele>826.229</ele>
        <time>2023-04-18T13:26:36Z</time>
      </trkpt>
      <trkpt lat="42.98891" lon="-0.80786">
        <ele>825.117</ele>
        <time>2023-04-18T13:26:40Z</time>
      </trkpt>
      <trkpt lat="42.98893" lon="-0.80793">
        <ele>824.087</ele>
        <time>2023-04-18T13:26:44Z</time>
      </trkpt>
      <trkpt lat="42.98896" lon="-0.80798">
        <ele>823.015</ele>
        <time>2023-04-18T13:26:50Z</time>
      </trkpt>
      <trkpt lat="42.989" lon="-0.80804">
        <ele>822.209</ele>
        <time>2023-04-18T13:26:55Z</time>
      </trkpt>
      <trkpt lat="42.98903" lon="-0.80809">
        <ele>820.942</ele>
        <time>2023-04-18T13:27:00Z</time>
      </trkpt>
      <trkpt lat="42.98906" lon="-0.80816">
        <ele>819.594</ele>
        <time>2023-04-18T13:27:05Z</time>
      </trkpt>
      <trkpt lat="42.9891" lon="-0.80822">
        <ele>817.633</ele>
        <time>2023-04-18T13:27:10Z</time>
      </trkpt>
      <trkpt lat="42.98914" lon="-0.80827">
        <ele>816.031</ele>
        <time>2023-04-18T13:27:14Z</time>
      </trkpt>
      <trkpt lat="42.98915" lon="-0.80834">
        <ele>814.912</ele>
        <time>2023-04-18T13:27:18Z</time>
      </trkpt>
      <trkpt lat="42.98919" lon="-0.80838">
        <ele>813.978</ele>
        <time>2023-04-18T13:27:22Z</time>
      </trkpt>
      <trkpt lat="42.9892" lon="-0.80844">
        <ele>813.564</ele>
        <time>2023-04-18T13:27:27Z</time>
      </trkpt>
      <trkpt lat="42.98922" lon="-0.8085">
        <ele>812.595</ele>
        <time>2023-04-18T13:27:32Z</time>
      </trkpt>
      <trkpt lat="42.98925" lon="-0.80855">
        <ele>811.386</ele>
        <time>2023-04-18T13:27:40Z</time>
      </trkpt>
      <trkpt lat="42.98929" lon="-0.8086">
        <ele>810.136</ele>
        <time>2023-04-18T13:27:49Z</time>
      </trkpt>
      <trkpt lat="42.98929" lon="-0.80867">
        <ele>808.417</ele>
        <time>2023-04-18T13:27:56Z</time>
      </trkpt>
      <trkpt lat="42.98932" lon="-0.80872">
        <ele>806.018</ele>
        <time>2023-04-18T13:28:01Z</time>
      </trkpt>
      <trkpt lat="42.98936" lon="-0.80877">
        <ele>803.909</ele>
        <time>2023-04-18T13:28:07Z</time>
      </trkpt>
      <trkpt lat="42.98939" lon="-0.80883">
        <ele>802.484</ele>
        <time>2023-04-18T13:28:13Z</time>
      </trkpt>
      <trkpt lat="42.98941" lon="-0.80888">
        <ele>800.986</ele>
        <time>2023-04-18T13:28:17Z</time>
      </trkpt>
      <trkpt lat="42.98945" lon="-0.80892">
        <ele>799.235</ele>
        <time>2023-04-18T13:28:23Z</time>
      </trkpt>
      <trkpt lat="42.98948" lon="-0.80897">
        <ele>797.913</ele>
        <time>2023-04-18T13:28:29Z</time>
      </trkpt>
      <trkpt lat="42.98951" lon="-0.80904">
        <ele>796.744</ele>
        <time>2023-04-18T13:28:36Z</time>
      </trkpt>
      <trkpt lat="42.98955" lon="-0.8091">
        <ele>795.15</ele>
        <time>2023-04-18T13:28:40Z</time>
      </trkpt>
      <trkpt lat="42.98959" lon="-0.80914">
        <ele>793.256</ele>
        <time>2023-04-18T13:28:44Z</time>
      </trkpt>
      <trkpt lat="42.98962" lon="-0.8092">
        <ele>791.487</ele>
        <time>2023-04-18T13:28:49Z</time>
      </trkpt>
      <trkpt lat="42.98963" lon="-0.80926">
        <ele>790.378</ele>
        <time>2023-04-18T13:29:02Z</time>
      </trkpt>
      <trkpt lat="42.98965" lon="-0.80931">
        <ele>789.162</ele>
        <time>2023-04-18T13:29:06Z</time>
      </trkpt>
      <trkpt lat="42.98968" lon="-0.80936">
        <ele>786.783</ele>
        <time>2023-04-18T13:29:13Z</time>
      </trkpt>
      <trkpt lat="42.98973" lon="-0.80941">
        <ele>784.311</ele>
        <time>2023-04-18T13:29:20Z</time>
      </trkpt>
      <trkpt lat="42.98976" lon="-0.80946">
        <ele>782.409</ele>
        <time>2023-04-18T13:29:27Z</time>
      </trkpt>
      <trkpt lat="42.9898" lon="-0.80952">
        <ele>780.347</ele>
        <time>2023-04-18T13:29:34Z</time>
      </trkpt>
      <trkpt lat="42.98983" lon="-0.80957">
        <ele>778.419</ele>
        <time>2023-04-18T13:29:41Z</time>
      </trkpt>
      <trkpt lat="42.98985" lon="-0.80963">
        <ele>776.548</ele>
        <time>2023-04-18T13:29:45Z</time>
      </trkpt>
      <trkpt lat="42.98988" lon="-0.80968">
        <ele>774.696</ele>
        <time>2023-04-18T13:29:50Z</time>
      </trkpt>
      <trkpt lat="42.9899" lon="-0.80974">
        <ele>773.067</ele>
        <time>2023-04-18T13:29:55Z</time>
      </trkpt>
      <trkpt lat="42.98993" lon="-0.80979">
        <ele>771.663</ele>
        <time>2023-04-18T13:30:00Z</time>
      </trkpt>
      <trkpt lat="42.98995" lon="-0.80985">
        <ele>770.269</ele>
        <time>2023-04-18T13:30:04Z</time>
      </trkpt>
      <trkpt lat="42.98997" lon="-0.80991">
        <ele>768.97</ele>
        <time>2023-04-18T13:30:09Z</time>
      </trkpt>
      <trkpt lat="42.99" lon="-0.80997">
        <ele>767.871</ele>
        <time>2023-04-18T13:30:13Z</time>
      </trkpt>
      <trkpt lat="42.99002" lon="-0.81004">
        <ele>766.796</ele>
        <time>2023-04-18T13:30:18Z</time>
      </trkpt>
      <trkpt lat="42.99003" lon="-0.8101">
        <ele>765.531</ele>
        <time>2023-04-18T13:30:21Z</time>
      </trkpt>
      <trkpt lat="42.99003" lon="-0.81016">
        <ele>764.424</ele>
        <time>2023-04-18T13:30:24Z</time>
      </trkpt>
      <trkpt lat="42.99007" lon="-0.81022">
        <ele>763.609</ele>
        <time>2023-04-18T13:30:28Z</time>
      </trkpt>
      <trkpt lat="42.99008" lon="-0.81029">
        <ele>763.08</ele>
        <time>2023-04-18T13:30:32Z</time>
      </trkpt>
      <trkpt lat="42.99008" lon="-0.81036">
        <ele>762.272</ele>
        <time>2023-04-18T13:30:36Z</time>
      </trkpt>
      <trkpt lat="42.99008" lon="-0.81043">
        <ele>761.561</ele>
        <time>2023-04-18T13:30:40Z</time>
      </trkpt>
      <trkpt lat="42.9901" lon="-0.81049">
        <ele>761.029</ele>
        <time>2023-04-18T13:30:44Z</time>
      </trkpt>
      <trkpt lat="42.9901" lon="-0.81057">
        <ele>760.49</ele>
        <time>2023-04-18T13:30:48Z</time>
      </trkpt>
      <trkpt lat="42.99006" lon="-0.8106">
        <ele>759.926</ele>
        <time>2023-04-18T13:30:52Z</time>
      </trkpt>
      <trkpt lat="42.9901" lon="-0.81063">
        <ele>759.462</ele>
        <time>2023-04-18T13:30:54Z</time>
      </trkpt>
      <trkpt lat="42.99015" lon="-0.81068">
        <ele>758.893</ele>
        <time>2023-04-18T13:30:58Z</time>
      </trkpt>
      <trkpt lat="42.99016" lon="-0.81075">
        <ele>758.454</ele>
        <time>2023-04-18T13:31:02Z</time>
      </trkpt>
      <trkpt lat="42.99019" lon="-0.81082">
        <ele>757.894</ele>
        <time>2023-04-18T13:31:07Z</time>
      </trkpt>
      <trkpt lat="42.99019" lon="-0.81089">
        <ele>756.957</ele>
        <time>2023-04-18T13:31:12Z</time>
      </trkpt>
      <trkpt lat="42.99021" lon="-0.81095">
        <ele>755.722</ele>
        <time>2023-04-18T13:31:17Z</time>
      </trkpt>
      <trkpt lat="42.99021" lon="-0.81101">
        <ele>754.309</ele>
        <time>2023-04-18T13:31:22Z</time>
      </trkpt>
      <trkpt lat="42.99025" lon="-0.81106">
        <ele>752.72</ele>
        <time>2023-04-18T13:31:28Z</time>
      </trkpt>
      <trkpt lat="42.99026" lon="-0.81114">
        <ele>750.872</ele>
        <time>2023-04-18T13:31:32Z</time>
      </trkpt>
      <trkpt lat="42.99027" lon="-0.8112">
        <ele>748.971</ele>
        <time>2023-04-18T13:31:39Z</time>
      </trkpt>
      <trkpt lat="42.99028" lon="-0.81126">
        <ele>747.079</ele>
        <time>2023-04-18T13:31:45Z</time>
      </trkpt>
      <trkpt lat="42.99028" lon="-0.81133">
        <ele>744.74</ele>
        <time>2023-04-18T13:31:51Z</time>
      </trkpt>
      <trkpt lat="42.9903" lon="-0.81139">
        <ele>742.176</ele>
        <time>2023-04-18T13:31:57Z</time>
      </trkpt>
      <trkpt lat="42.99032" lon="-0.81147">
        <ele>739.972</ele>
        <time>2023-04-18T13:32:31Z</time>
      </trkpt>
      <trkpt lat="42.99029" lon="-0.81152">
        <ele>738.333</ele>
        <time>2023-04-18T13:38:20Z</time>
      </trkpt>
      <trkpt lat="42.99031" lon="-0.81158">
        <ele>737.714</ele>
        <time>2023-04-18T13:39:06Z</time>
      </trkpt>
      <trkpt lat="42.99029" lon="-0.81164">
        <ele>735.323</ele>
        <time>2023-04-18T13:39:13Z</time>
      </trkpt>
      <trkpt lat="42.99034" lon="-0.81162">
        <ele>731.883</ele>
        <time>2023-04-18T13:39:27Z</time>
      </trkpt>
      <trkpt lat="42.99038" lon="-0.81158">
        <ele>729.911</ele>
        <time>2023-04-18T13:39:36Z</time>
      </trkpt>
      <trkpt lat="42.99042" lon="-0.81154">
        <ele>728.409</ele>
        <time>2023-04-18T13:39:45Z</time>
      </trkpt>
      <trkpt lat="42.99046" lon="-0.81152">
        <ele>726.773</ele>
        <time>2023-04-18T13:39:56Z</time>
      </trkpt>
      <trkpt lat="42.99049" lon="-0.81148">
        <ele>724.865</ele>
        <time>2023-04-18T13:40:01Z</time>
      </trkpt>
      <trkpt lat="42.99053" lon="-0.81143">
        <ele>722.634</ele>
        <time>2023-04-18T13:40:08Z</time>
      </trkpt>
      <trkpt lat="42.99056" lon="-0.81137">
        <ele>720.982</ele>
        <time>2023-04-18T13:40:14Z</time>
      </trkpt>
      <trkpt lat="42.99061" lon="-0.81134">
        <ele>719.513</ele>
        <time>2023-04-18T13:40:20Z</time>
      </trkpt>
      <trkpt lat="42.99064" lon="-0.81127">
        <ele>718.059</ele>
        <time>2023-04-18T13:40:25Z</time>
      </trkpt>
      <trkpt lat="42.99066" lon="-0.81121">
        <ele>717.015</ele>
        <time>2023-04-18T13:40:29Z</time>
      </trkpt>
      <trkpt lat="42.9907" lon="-0.81115">
        <ele>715.866</ele>
        <time>2023-04-18T13:40:35Z</time>
      </trkpt>
      <trkpt lat="42.99072" lon="-0.8111">
        <ele>715.647</ele>
        <time>2023-04-18T13:40:40Z</time>
      </trkpt>
      <trkpt lat="42.99076" lon="-0.81105">
        <ele>715.045</ele>
        <time>2023-04-18T13:40:48Z</time>
      </trkpt>
      <trkpt lat="42.99078" lon="-0.81099">
        <ele>714.247</ele>
        <time>2023-04-18T13:40:54Z</time>
      </trkpt>
      <trkpt lat="42.9908" lon="-0.81092">
        <ele>713.111</ele>
        <time>2023-04-18T13:41:00Z</time>
      </trkpt>
      <trkpt lat="42.99082" lon="-0.81085">
        <ele>711.709</ele>
        <time>2023-04-18T13:41:05Z</time>
      </trkpt>
      <trkpt lat="42.99085" lon="-0.8108">
        <ele>710.575</ele>
        <time>2023-04-18T13:41:11Z</time>
      </trkpt>
      <trkpt lat="42.99093" lon="-0.8108">
        <ele>709.047</ele>
        <time>2023-04-18T13:41:22Z</time>
      </trkpt>
      <trkpt lat="42.99093" lon="-0.81073">
        <ele>707.636</ele>
        <time>2023-04-18T13:41:37Z</time>
      </trkpt>
      <trkpt lat="42.99097" lon="-0.81068">
        <ele>706.134</ele>
        <time>2023-04-18T13:41:44Z</time>
      </trkpt>
      <trkpt lat="42.99101" lon="-0.8107">
        <ele>705.255</ele>
        <time>2023-04-18T13:41:47Z</time>
      </trkpt>
      <trkpt lat="42.99103" lon="-0.81076">
        <ele>704.061</ele>
        <time>2023-04-18T13:41:51Z</time>
      </trkpt>
      <trkpt lat="42.99105" lon="-0.81082">
        <ele>703.737</ele>
        <time>2023-04-18T13:41:57Z</time>
      </trkpt>
      <trkpt lat="42.99106" lon="-0.8109">
        <ele>703.368</ele>
        <time>2023-04-18T13:42:02Z</time>
      </trkpt>
      <trkpt lat="42.99107" lon="-0.81097">
        <ele>702.789</ele>
        <time>2023-04-18T13:42:07Z</time>
      </trkpt>
      <trkpt lat="42.99109" lon="-0.81103">
        <ele>702.115</ele>
        <time>2023-04-18T13:42:11Z</time>
      </trkpt>
      <trkpt lat="42.9911" lon="-0.81109">
        <ele>701.165</ele>
        <time>2023-04-18T13:42:15Z</time>
      </trkpt>
      <trkpt lat="42.99111" lon="-0.81117">
        <ele>700.211</ele>
        <time>2023-04-18T13:42:20Z</time>
      </trkpt>
      <trkpt lat="42.99109" lon="-0.81124">
        <ele>699.509</ele>
        <time>2023-04-18T13:42:24Z</time>
      </trkpt>
      <trkpt lat="42.99106" lon="-0.81131">
        <ele>698.782</ele>
        <time>2023-04-18T13:42:29Z</time>
      </trkpt>
      <trkpt lat="42.99104" lon="-0.81139">
        <ele>697.794</ele>
        <time>2023-04-18T13:42:33Z</time>
      </trkpt>
      <trkpt lat="42.99102" lon="-0.81145">
        <ele>696.553</ele>
        <time>2023-04-18T13:42:37Z</time>
      </trkpt>
      <trkpt lat="42.991" lon="-0.81152">
        <ele>695.951</ele>
        <time>2023-04-18T13:42:41Z</time>
      </trkpt>
      <trkpt lat="42.99099" lon="-0.8116">
        <ele>694.862</ele>
        <time>2023-04-18T13:42:46Z</time>
      </trkpt>
      <trkpt lat="42.99096" lon="-0.81166">
        <ele>694.158</ele>
        <time>2023-04-18T13:42:50Z</time>
      </trkpt>
      <trkpt lat="42.99096" lon="-0.81172">
        <ele>693.674</ele>
        <time>2023-04-18T13:42:54Z</time>
      </trkpt>
      <trkpt lat="42.99094" lon="-0.81178">
        <ele>692.775</ele>
        <time>2023-04-18T13:42:58Z</time>
      </trkpt>
      <trkpt lat="42.99092" lon="-0.81185">
        <ele>691.846</ele>
        <time>2023-04-18T13:43:02Z</time>
      </trkpt>
      <trkpt lat="42.9909" lon="-0.81191">
        <ele>691.135</ele>
        <time>2023-04-18T13:43:06Z</time>
      </trkpt>
      <trkpt lat="42.99088" lon="-0.81197">
        <ele>690.486</ele>
        <time>2023-04-18T13:43:10Z</time>
      </trkpt>
      <trkpt lat="42.99086" lon="-0.81204">
        <ele>689.614</ele>
        <time>2023-04-18T13:43:15Z</time>
      </trkpt>
      <trkpt lat="42.99085" lon="-0.81211">
        <ele>688.809</ele>
        <time>2023-04-18T13:43:19Z</time>
      </trkpt>
      <trkpt lat="42.99083" lon="-0.81218">
        <ele>687.894</ele>
        <time>2023-04-18T13:43:23Z</time>
      </trkpt>
      <trkpt lat="42.99081" lon="-0.81224">
        <ele>686.976</ele>
        <time>2023-04-18T13:43:27Z</time>
      </trkpt>
      <trkpt lat="42.99078" lon="-0.81232">
        <ele>685.785</ele>
        <time>2023-04-18T13:43:32Z</time>
      </trkpt>
      <trkpt lat="42.99075" lon="-0.81238">
        <ele>685.053</ele>
        <time>2023-04-18T13:43:36Z</time>
      </trkpt>
      <trkpt lat="42.99073" lon="-0.81244">
        <ele>684.374</ele>
        <time>2023-04-18T13:43:40Z</time>
      </trkpt>
      <trkpt lat="42.99073" lon="-0.81251">
        <ele>683.92</ele>
        <time>2023-04-18T13:43:44Z</time>
      </trkpt>
      <trkpt lat="42.99075" lon="-0.81258">
        <ele>682.736</ele>
        <time>2023-04-18T13:43:48Z</time>
      </trkpt>
      <trkpt lat="42.99081" lon="-0.81258">
        <ele>682.077</ele>
        <time>2023-04-18T13:43:52Z</time>
      </trkpt>
      <trkpt lat="42.99084" lon="-0.81253">
        <ele>681.718</ele>
        <time>2023-04-18T13:43:56Z</time>
      </trkpt>
      <trkpt lat="42.99087" lon="-0.81247">
        <ele>681.128</ele>
        <time>2023-04-18T13:44:00Z</time>
      </trkpt>
      <trkpt lat="42.9909" lon="-0.81241">
        <ele>680.489</ele>
        <time>2023-04-18T13:44:04Z</time>
      </trkpt>
      <trkpt lat="42.9909" lon="-0.81235">
        <ele>679.517</ele>
        <time>2023-04-18T13:44:07Z</time>
      </trkpt>
      <trkpt lat="42.99094" lon="-0.8123">
        <ele>678.609</ele>
        <time>2023-04-18T13:44:11Z</time>
      </trkpt>
      <trkpt lat="42.99097" lon="-0.81225">
        <ele>677.983</ele>
        <time>2023-04-18T13:44:15Z</time>
      </trkpt>
      <trkpt lat="42.991" lon="-0.8122">
        <ele>677.275</ele>
        <time>2023-04-18T13:44:19Z</time>
      </trkpt>
      <trkpt lat="42.99103" lon="-0.81213">
        <ele>676.514</ele>
        <time>2023-04-18T13:44:24Z</time>
      </trkpt>
      <trkpt lat="42.99107" lon="-0.81209">
        <ele>675.922</ele>
        <time>2023-04-18T13:44:28Z</time>
      </trkpt>
      <trkpt lat="42.9911" lon="-0.81205">
        <ele>675.333</ele>
        <time>2023-04-18T13:44:32Z</time>
      </trkpt>
      <trkpt lat="42.99114" lon="-0.81203">
        <ele>674.649</ele>
        <time>2023-04-18T13:44:36Z</time>
      </trkpt>
      <trkpt lat="42.99118" lon="-0.812">
        <ele>674.015</ele>
        <time>2023-04-18T13:44:40Z</time>
      </trkpt>
      <trkpt lat="42.99123" lon="-0.81197">
        <ele>673.476</ele>
        <time>2023-04-18T13:44:45Z</time>
      </trkpt>
      <trkpt lat="42.99129" lon="-0.81199">
        <ele>672.887</ele>
        <time>2023-04-18T13:44:49Z</time>
      </trkpt>
      <trkpt lat="42.99134" lon="-0.812">
        <ele>672.259</ele>
        <time>2023-04-18T13:44:53Z</time>
      </trkpt>
      <trkpt lat="42.99138" lon="-0.81205">
        <ele>671.703</ele>
        <time>2023-04-18T13:44:57Z</time>
      </trkpt>
      <trkpt lat="42.99141" lon="-0.81211">
        <ele>670.623</ele>
        <time>2023-04-18T13:45:00Z</time>
      </trkpt>
      <trkpt lat="42.99142" lon="-0.81219">
        <ele>670.109</ele>
        <time>2023-04-18T13:45:04Z</time>
      </trkpt>
      <trkpt lat="42.99141" lon="-0.81225">
        <ele>670.016</ele>
        <time>2023-04-18T13:45:07Z</time>
      </trkpt>
      <trkpt lat="42.99138" lon="-0.81231">
        <ele>669.498</ele>
        <time>2023-04-18T13:45:11Z</time>
      </trkpt>
      <trkpt lat="42.99134" lon="-0.81234">
        <ele>668.787</ele>
        <time>2023-04-18T13:45:14Z</time>
      </trkpt>
      <trkpt lat="42.99129" lon="-0.81237">
        <ele>668.145</ele>
        <time>2023-04-18T13:45:18Z</time>
      </trkpt>
      <trkpt lat="42.99123" lon="-0.81239">
        <ele>667.376</ele>
        <time>2023-04-18T13:45:22Z</time>
      </trkpt>
      <trkpt lat="42.99119" lon="-0.81242">
        <ele>666.562</ele>
        <time>2023-04-18T13:45:27Z</time>
      </trkpt>
      <trkpt lat="42.99115" lon="-0.81246">
        <ele>665.728</ele>
        <time>2023-04-18T13:45:31Z</time>
      </trkpt>
      <trkpt lat="42.99113" lon="-0.81252">
        <ele>664.899</ele>
        <time>2023-04-18T13:45:35Z</time>
      </trkpt>
      <trkpt lat="42.99111" lon="-0.81259">
        <ele>664.05</ele>
        <time>2023-04-18T13:45:39Z</time>
      </trkpt>
      <trkpt lat="42.9911" lon="-0.81266">
        <ele>663.396</ele>
        <time>2023-04-18T13:45:44Z</time>
      </trkpt>
      <trkpt lat="42.99109" lon="-0.81273">
        <ele>662.631</ele>
        <time>2023-04-18T13:45:48Z</time>
      </trkpt>
      <trkpt lat="42.99108" lon="-0.8128">
        <ele>661.824</ele>
        <time>2023-04-18T13:45:53Z</time>
      </trkpt>
      <trkpt lat="42.99108" lon="-0.81287">
        <ele>661.009</ele>
        <time>2023-04-18T13:45:57Z</time>
      </trkpt>
      <trkpt lat="42.99107" lon="-0.81294">
        <ele>660.38</ele>
        <time>2023-04-18T13:46:01Z</time>
      </trkpt>
      <trkpt lat="42.99106" lon="-0.813">
        <ele>659.752</ele>
        <time>2023-04-18T13:46:05Z</time>
      </trkpt>
      <trkpt lat="42.99106" lon="-0.81306">
        <ele>659.151</ele>
        <time>2023-04-18T13:46:09Z</time>
      </trkpt>
      <trkpt lat="42.99105" lon="-0.81312">
        <ele>658.519</ele>
        <time>2023-04-18T13:46:13Z</time>
      </trkpt>
      <trkpt lat="42.99104" lon="-0.8132">
        <ele>657.97</ele>
        <time>2023-04-18T13:46:18Z</time>
      </trkpt>
      <trkpt lat="42.99104" lon="-0.81327">
        <ele>657.356</ele>
        <time>2023-04-18T13:46:22Z</time>
      </trkpt>
      <trkpt lat="42.99103" lon="-0.81334">
        <ele>656.622</ele>
        <time>2023-04-18T13:46:26Z</time>
      </trkpt>
      <trkpt lat="42.99103" lon="-0.81341">
        <ele>655.993</ele>
        <time>2023-04-18T13:46:30Z</time>
      </trkpt>
      <trkpt lat="42.99102" lon="-0.81348">
        <ele>655.364</ele>
        <time>2023-04-18T13:46:34Z</time>
      </trkpt>
      <trkpt lat="42.99102" lon="-0.81355">
        <ele>654.814</ele>
        <time>2023-04-18T13:46:38Z</time>
      </trkpt>
      <trkpt lat="42.991" lon="-0.81361">
        <ele>654.354</ele>
        <time>2023-04-18T13:46:42Z</time>
      </trkpt>
      <trkpt lat="42.991" lon="-0.81368">
        <ele>653.709</ele>
        <time>2023-04-18T13:46:46Z</time>
      </trkpt>
      <trkpt lat="42.991" lon="-0.81374">
        <ele>653.109</ele>
        <time>2023-04-18T13:46:50Z</time>
      </trkpt>
      <trkpt lat="42.99099" lon="-0.81382">
        <ele>652.642</ele>
        <time>2023-04-18T13:46:55Z</time>
      </trkpt>
      <trkpt lat="42.99099" lon="-0.81388">
        <ele>652.244</ele>
        <time>2023-04-18T13:46:59Z</time>
      </trkpt>
      <trkpt lat="42.99098" lon="-0.81394">
        <ele>651.793</ele>
        <time>2023-04-18T13:47:03Z</time>
      </trkpt>
      <trkpt lat="42.99099" lon="-0.81402">
        <ele>651.231</ele>
        <time>2023-04-18T13:47:07Z</time>
      </trkpt>
      <trkpt lat="42.99098" lon="-0.81408">
        <ele>650.732</ele>
        <time>2023-04-18T13:47:11Z</time>
      </trkpt>
      <trkpt lat="42.99097" lon="-0.81415">
        <ele>650.228</ele>
        <time>2023-04-18T13:47:15Z</time>
      </trkpt>
      <trkpt lat="42.99098" lon="-0.81421">
        <ele>649.874</ele>
        <time>2023-04-18T13:47:19Z</time>
      </trkpt>
      <trkpt lat="42.99098" lon="-0.81428">
        <ele>649.325</ele>
        <time>2023-04-18T13:47:23Z</time>
      </trkpt>
      <trkpt lat="42.99098" lon="-0.81434">
        <ele>648.736</ele>
        <time>2023-04-18T13:47:27Z</time>
      </trkpt>
      <trkpt lat="42.99099" lon="-0.81441">
        <ele>648.199</ele>
        <time>2023-04-18T13:47:31Z</time>
      </trkpt>
      <trkpt lat="42.991" lon="-0.81448">
        <ele>647.507</ele>
        <time>2023-04-18T13:47:35Z</time>
      </trkpt>
      <trkpt lat="42.99099" lon="-0.81455">
        <ele>646.927</ele>
        <time>2023-04-18T13:47:39Z</time>
      </trkpt>
      <trkpt lat="42.99098" lon="-0.81462">
        <ele>646.409</ele>
        <time>2023-04-18T13:47:43Z</time>
      </trkpt>
      <trkpt lat="42.99098" lon="-0.81469">
        <ele>645.95</ele>
        <time>2023-04-18T13:47:47Z</time>
      </trkpt>
      <trkpt lat="42.99099" lon="-0.81475">
        <ele>645.292</ele>
        <time>2023-04-18T13:47:51Z</time>
      </trkpt>
      <trkpt lat="42.99098" lon="-0.81482">
        <ele>644.511</ele>
        <time>2023-04-18T13:47:55Z</time>
      </trkpt>
      <trkpt lat="42.99098" lon="-0.81488">
        <ele>643.999</ele>
        <time>2023-04-18T13:47:59Z</time>
      </trkpt>
      <trkpt lat="42.99094" lon="-0.81493">
        <ele>643.46</ele>
        <time>2023-04-18T13:48:03Z</time>
      </trkpt>
      <trkpt lat="42.9909" lon="-0.81496">
        <ele>642.936</ele>
        <time>2023-04-18T13:48:07Z</time>
      </trkpt>
      <trkpt lat="42.99084" lon="-0.815">
        <ele>642.532</ele>
        <time>2023-04-18T13:48:11Z</time>
      </trkpt>
      <trkpt lat="42.99078" lon="-0.81501">
        <ele>642.053</ele>
        <time>2023-04-18T13:48:15Z</time>
      </trkpt>
      <trkpt lat="42.99073" lon="-0.81503">
        <ele>641.054</ele>
        <time>2023-04-18T13:48:19Z</time>
      </trkpt>
      <trkpt lat="42.99069" lon="-0.81506">
        <ele>640.377</ele>
        <time>2023-04-18T13:48:23Z</time>
      </trkpt>
      <trkpt lat="42.99065" lon="-0.8151">
        <ele>639.961</ele>
        <time>2023-04-18T13:48:28Z</time>
      </trkpt>
      <trkpt lat="42.99062" lon="-0.81516">
        <ele>639.127</ele>
        <time>2023-04-18T13:48:33Z</time>
      </trkpt>
      <trkpt lat="42.99061" lon="-0.81522">
        <ele>638.409</ele>
        <time>2023-04-18T13:48:38Z</time>
      </trkpt>
      <trkpt lat="42.99061" lon="-0.81529">
        <ele>637.738</ele>
        <time>2023-04-18T13:48:43Z</time>
      </trkpt>
      <trkpt lat="42.99061" lon="-0.81535">
        <ele>636.89</ele>
        <time>2023-04-18T13:48:48Z</time>
      </trkpt>
      <trkpt lat="42.99061" lon="-0.81542">
        <ele>636.099</ele>
        <time>2023-04-18T13:48:53Z</time>
      </trkpt>
      <trkpt lat="42.99063" lon="-0.81548">
        <ele>635.317</ele>
        <time>2023-04-18T13:48:57Z</time>
      </trkpt>
      <trkpt lat="42.99062" lon="-0.81554">
        <ele>634.698</ele>
        <time>2023-04-18T13:49:01Z</time>
      </trkpt>
      <trkpt lat="42.99063" lon="-0.81561">
        <ele>634.184</ele>
        <time>2023-04-18T13:49:05Z</time>
      </trkpt>
      <trkpt lat="42.99064" lon="-0.81567">
        <ele>633.48</ele>
        <time>2023-04-18T13:49:09Z</time>
      </trkpt>
      <trkpt lat="42.99065" lon="-0.81574">
        <ele>632.571</ele>
        <time>2023-04-18T13:49:13Z</time>
      </trkpt>
      <trkpt lat="42.99066" lon="-0.8158">
        <ele>631.762</ele>
        <time>2023-04-18T13:49:17Z</time>
      </trkpt>
      <trkpt lat="42.99066" lon="-0.81587">
        <ele>631.017</ele>
        <time>2023-04-18T13:49:21Z</time>
      </trkpt>
      <trkpt lat="42.99065" lon="-0.81594">
        <ele>630.487</ele>
        <time>2023-04-18T13:49:25Z</time>
      </trkpt>
      <trkpt lat="42.99063" lon="-0.816">
        <ele>629.815</ele>
        <time>2023-04-18T13:49:30Z</time>
      </trkpt>
      <trkpt lat="42.99063" lon="-0.81607">
        <ele>629.209</ele>
        <time>2023-04-18T13:49:34Z</time>
      </trkpt>
      <trkpt lat="42.99062" lon="-0.81614">
        <ele>628.362</ele>
        <time>2023-04-18T13:49:38Z</time>
      </trkpt>
      <trkpt lat="42.99062" lon="-0.8162">
        <ele>627.594</ele>
        <time>2023-04-18T13:49:42Z</time>
      </trkpt>
      <trkpt lat="42.99061" lon="-0.81626">
        <ele>627.013</ele>
        <time>2023-04-18T13:49:46Z</time>
      </trkpt>
      <trkpt lat="42.99063" lon="-0.81633">
        <ele>626.451</ele>
        <time>2023-04-18T13:49:50Z</time>
      </trkpt>
      <trkpt lat="42.99062" lon="-0.81639">
        <ele>625.812</ele>
        <time>2023-04-18T13:49:54Z</time>
      </trkpt>
      <trkpt lat="42.99062" lon="-0.81646">
        <ele>625.348</ele>
        <time>2023-04-18T13:49:58Z</time>
      </trkpt>
      <trkpt lat="42.9906" lon="-0.81652">
        <ele>624.714</ele>
        <time>2023-04-18T13:50:02Z</time>
      </trkpt>
      <trkpt lat="42.99058" lon="-0.81658">
        <ele>624.175</ele>
        <time>2023-04-18T13:50:06Z</time>
      </trkpt>
      <trkpt lat="42.99055" lon="-0.81663">
        <ele>623.366</ele>
        <time>2023-04-18T13:50:10Z</time>
      </trkpt>
      <trkpt lat="42.99052" lon="-0.81668">
        <ele>622.717</ele>
        <time>2023-04-18T13:50:14Z</time>
      </trkpt>
      <trkpt lat="42.99049" lon="-0.81674">
        <ele>622.187</ele>
        <time>2023-04-18T13:50:19Z</time>
      </trkpt>
      <trkpt lat="42.99046" lon="-0.81681">
        <ele>621.515</ele>
        <time>2023-04-18T13:50:24Z</time>
      </trkpt>
      <trkpt lat="42.99045" lon="-0.81687">
        <ele>620.809</ele>
        <time>2023-04-18T13:50:28Z</time>
      </trkpt>
      <trkpt lat="42.99043" lon="-0.81693">
        <ele>619.992</ele>
        <time>2023-04-18T13:50:32Z</time>
      </trkpt>
      <trkpt lat="42.99042" lon="-0.81699">
        <ele>619.354</ele>
        <time>2023-04-18T13:50:36Z</time>
      </trkpt>
      <trkpt lat="42.99043" lon="-0.81705">
        <ele>618.663</ele>
        <time>2023-04-18T13:50:40Z</time>
      </trkpt>
      <trkpt lat="42.99046" lon="-0.81711">
        <ele>617.871</ele>
        <time>2023-04-18T13:50:45Z</time>
      </trkpt>
      <trkpt lat="42.9905" lon="-0.81715">
        <ele>617.132</ele>
        <time>2023-04-18T13:50:50Z</time>
      </trkpt>
      <trkpt lat="42.99054" lon="-0.81718">
        <ele>616.228</ele>
        <time>2023-04-18T13:50:54Z</time>
      </trkpt>
      <trkpt lat="42.99058" lon="-0.81723">
        <ele>615.384</ele>
        <time>2023-04-18T13:50:58Z</time>
      </trkpt>
    </trkseg>
  </trk>
</gpx>